[[{"header":{"parameterUnit":"m.s-1","parameterCategory":1,"la1":31.0,"la2":29.5877,"lo1":-88.7671,"lo2":-86.6584,"dy":0.0162,"dx":0.0185,"nx":115,"ny":88,"refTime":"2023-06-30T00:00:00:Z","depth":0,"parameterNumber":2,"parameterNumberName":"U-component_of_WINDS"},"data":[0.0,0.0,0.0,0.0,0.0,0.0,0.0,0.0,0.0,0.0,0.0,0.0,0.0,0.0,0.0,0.0,0.0,0.0,0.0,0.0,0.0,0.0,0.0,0.0,0.0,0.0,0.0,0.0,0.0,0.0,0.0,0.0,0.0,0.0,0.0,0.0,0.0,0.0,0.0,0.0,0.0,0.0,0.0,0.0,0.0,0.0,0.0,0.0,0.0,0.0,0.0,0.0,0.0,0.0,0.0,0.0,0.0,0.0,0.0,0.0,0.0,0.0,0.0,0.0,0.0,0.0,0.0,0.0,0.0,0.0,0.0,0.0,0.0,0.0,0.0,0.0,0.0,0.0,0.0,0.0,0.0,0.0,0.0,0.0,0.0,0.0,0.0,0.0,0.0,0.0,0.0,0.0,0.0,0.0,0.0,0.0,0.0,0.0,0.0,0.0,0.0,0.0,0.0,0.0,0.0,0.0,0.0,0.0,0.0,0.0,0.0,0.0,0.0,0.0,0.0,0.0,0.0,0.0,0.0,0.0,0.0,0.0,0.0,0.0,0.0,0.0,0.0,0.0,0.0,0.0,0.0,0.0,0.0,0.0,0.0,0.0,0.0,0.0,0.0,0.0,0.0,0.0,0.0,0.0,0.0,0.0,0.0,0.0,0.0,0.0,0.0,0.0,0.0,0.0,0.0,0.0,0.0,0.0,0.0,0.0,0.0,0.0,0.0,0.0,0.0,0.0,0.0,0.0,0.0,0.0,0.0,0.0,0.0,0.0,0.0,0.0,0.0,0.0,0.0,0.0,0.0,0.0,0.0,0.0,0.0,0.0,0.0,0.0,0.0,0.0,0.0,0.0,0.0,0.0,0.0,0.0,0.0,0.0,0.0,0.0,0.0,0.0,0.0,0.0,0.0,0.0,0.0,0.0,0.0,0.0,0.0,0.0,0.0,0.0,0.0,0.0,0.0,0.0,0.0,0.0,0.0,0.0,0.0,0.0,0.0,0.0,0.0,0.0,0.0,0.0,0.0,0.0,0.0,0.0,0.0,0.0,0.0,0.0,0.0,0.0,0.0,0.0,0.0,0.0,0.0,0.0,0.0,0.0,0.0,0.0,0.0,0.0,0.0,0.0,0.0,0.0,0.0,0.0,0.0,0.0,0.0,0.0,0.0,0.0,0.0,0.0,0.0,0.0,0.0,0.0,0.0,0.0,0.0,0.0,0.0,0.0,0.0,0.0,0.0,0.0,0.0,0.0,0.0,0.0,0.0,0.0,0.0,0.0,0.0,0.0,0.0,0.0,0.0,0.0,0.0,0.0,0.0,0.0,0.0,0.0,0.0,0.0,0.0,0.0,0.0,0.0,0.0,0.0,0.0,0.0,0.0,0.0,0.0,0.0,0.0,0.0,0.0,0.0,0.0,0.0,0.0,0.0,0.0,0.0,0.0,0.0,0.0,0.0,0.0,0.0,0.0,0.0,0.0,0.0,0.0,0.0,0.0,0.0,0.0,0.0,0.0,0.0,0.0,0.0,0.0,0.0,0.0,0.0,0.0,0.0,0.0,0.0,0.0,0.0,0.0,0.0,0.0,0.0,0.0,0.0,0.0,0.0,0.0,0.0,0.0,0.0,0.0,0.0,0.0,0.0,0.0,0.0,0.0,0.0,0.0,0.0,0.0,0.0,0.0,0.0,0.0,0.0,0.0,0.0,0.0,0.0,0.0,0.0,0.0,0.0,0.0,0.0,0.0,0.0,0.0,0.0,0.0,0.0,0.0,0.0,0.0,0.0,0.0,0.0,0.0,0.0,0.0,0.0,0.0,0.0,0.0,0.0,0.0,0.0,0.0,0.0,0.0,0.0,0.0,0.0,0.0,0.0,0.0,0.0,0.0,0.0,0.0,0.0,0.0,0.0,0.0,0.0,0.0,0.0,0.0,0.0,0.0,0.0,0.0,0.0,0.0,0.0,0.0,0.0,0.0,0.0,0.0,0.0,0.0,0.0,0.0,0.0,0.0,0.0,0.0,0.0,0.0,0.0,0.0,0.0,0.0,0.0,0.0,0.0,0.0,0.0,0.0,0.0,0.0,0.0,0.0,0.0,0.0,0.0,0.0,0.0,0.0,0.0,0.0,0.0,0.0,0.0,0.0,0.0,0.0,0.0,0.0,0.0,0.0,0.0,0.0,0.0,0.0,0.0,0.0,0.0,0.0,0.0,0.0,0.0,0.0,0.0,0.0,0.0,0.0,0.0,0.0,0.0,0.0,0.0,0.0,0.0,0.0,0.0,0.0,0.0,0.0,0.0,0.0,0.0,0.0,0.0,0.0,0.0,0.0,0.0,0.0,0.0,0.0,0.0,0.0,0.0,0.0,0.0,0.0,0.0,0.0,0.0,0.0,0.0,0.0,0.0,0.0,0.0,0.0,0.0,0.0,0.0,0.0,0.0,0.0,0.0,0.0,0.0,0.0,0.0,0.0,0.0,0.0,0.0,0.0,0.0,0.0,0.0,0.0,0.0,0.0,0.0,0.0,0.0,0.0,0.0,0.0,0.0,0.0,0.0,0.0,0.0,0.0,0.0,0.0,0.0,0.0,0.0,0.0,0.0,0.0,0.0,0.0,0.0,0.0,0.0,0.0,0.0,0.0,0.0,0.0,0.0,0.0,0.0,0.0,0.0,0.0,0.0,0.0,0.0,0.0,0.0,0.0,0.0,0.0,0.0,0.0,0.0,0.0,0.0,0.0,0.0,0.0,0.0,0.0,0.0,0.0,0.0,0.0,0.0,0.0,0.0,0.0,0.0,0.0,0.0,0.0,0.0,0.0,0.0,0.0,0.0,0.0,0.0,0.0,0.0,0.0,0.0,0.0,0.0,0.0,0.0,0.0,0.0,0.0,0.0,0.0,0.0,0.0,0.0,0.0,0.0,0.0,0.0,0.0,0.0,0.0,0.0,0.0,0.0,0.0,0.0,0.0,0.0,0.0,0.0,0.0,0.0,0.0,0.0,0.0,0.0,0.0,0.0,0.0,0.0,0.0,0.0,0.0,0.0,0.0,0.0,0.0,0.0,0.0,0.0,0.0,0.0,0.0,0.0,0.0,0.0,0.0,0.0,0.0,0.0,0.0,0.0,0.0,0.0,0.0,0.0,0.0,0.0,0.0,0.0,0.0,0.0,0.0,0.0,0.0,0.0,0.0,0.0,0.0,0.0,0.0,0.0,0.0,0.0,0.0,0.0,0.0,0.0,0.0,0.0,0.0,0.0,0.0,0.0,0.0,0.0,0.0,0.0,0.0,0.0,0.0,0.0,0.0,0.0,0.0,0.0,0.0,0.0,0.0,0.0,0.0,0.0,0.0,0.0,0.0,0.0,0.0,0.0,0.0,0.0,0.0,0.0,0.0,0.0,0.0,0.0,0.0,0.0,0.0,0.0,0.0,0.0,0.0,0.0,0.0,0.0,0.0,0.0,0.0,0.0,0.0,0.0,0.0,0.0,0.0,0.0,0.0,0.0,0.0,0.0,0.0,0.0,0.0,0.0,0.0,0.0,0.0,0.0,0.0,0.0,0.0,0.0,0.0,0.0,0.0,0.0,0.0,0.0,0.0,0.0,0.0,0.0,0.0,0.0,0.0,0.0,0.0,0.0,0.0,0.0,0.0,0.0,0.0,0.0,0.0,0.0,0.0,0.0,0.0,0.0,0.0,0.0,0.0,0.0,0.0,0.0,0.0,0.0,0.0,0.0,0.0,0.0,0.0,0.0,0.0,0.0,0.0,0.0,0.0,0.0,0.0,0.0,0.0,0.0,0.0,0.0,0.0,0.0,0.0,0.0,0.0,0.0,0.0,0.0,0.0,0.0,0.0,0.0,0.0,0.0,0.0,0.0,0.0,0.0,0.0,0.0,0.0,0.0,0.0,0.0,0.0,0.0,0.0,0.0,0.0,0.0,0.0,0.0,0.0,0.0,0.0,0.0,0.0,0.0,0.0,0.0,0.0,0.0,0.0,0.0,0.0,0.0,0.0,0.0,0.0,0.0,0.0,0.0,0.0,0.0,0.0,0.0,0.0,0.0,0.0,0.0,0.0,0.0,0.0,0.0,0.0,0.0,0.0,0.0,0.0,0.0,0.0,0.0,0.0,0.0,0.0,0.0,0.0,0.0,0.0,0.0,0.0,0.0,0.0,0.0,0.0,0.0,0.0,0.0,0.0,0.0,0.0,0.0,0.0,0.0,0.0,0.0,0.0,0.0,0.0,0.0,0.0,0.0,0.0,0.0,0.0,0.0,0.0,0.0,-1.0434,0.0,0.0,0.0,0.0,0.0,0.0,0.0,0.0,0.0,0.0,0.0,0.0,0.0,0.0,0.0,0.0,0.0,0.0,0.0,0.0,0.0,0.0,0.0,0.0,0.0,0.0,0.0,0.0,0.0,0.0,0.0,0.0,0.0,0.0,0.0,0.0,0.0,0.0,0.0,0.0,0.0,0.0,0.0,0.0,0.0,0.0,0.0,0.0,0.0,0.0,0.0,0.0,0.0,0.0,0.0,0.0,0.0,0.0,0.0,0.0,0.0,0.0,0.0,0.0,0.0,0.0,0.0,0.0,0.0,0.0,0.0,0.0,0.0,0.0,0.0,0.0,0.0,0.0,0.0,0.0,0.0,0.0,0.0,0.0,0.0,0.0,0.0,0.0,0.0,0.0,0.0,0.0,0.0,0.0,0.0,0.0,0.0,0.0,0.0,0.0,0.0,0.0,0.0,0.0,0.0,0.0,0.0,0.0,0.0,0.0,-1.1693,-1.1693,-1.1382,-1.1196,-1.1173,0.0,0.0,0.0,0.0,0.0,0.0,0.0,0.0,0.0,0.0,0.0,0.0,0.0,0.0,0.0,0.0,0.0,0.0,0.0,0.0,0.0,0.0,0.0,0.0,0.0,0.0,0.0,0.0,0.0,0.0,0.0,0.0,0.0,0.0,0.0,0.0,0.0,0.0,0.0,0.0,0.0,0.0,0.0,0.0,0.0,0.0,0.0,0.0,0.0,0.0,0.0,0.0,0.0,0.0,0.0,0.0,0.0,0.0,0.0,0.0,0.0,0.0,0.0,0.0,0.0,0.0,0.0,0.0,0.0,0.0,0.0,0.0,0.0,0.0,0.0,0.0,0.0,0.0,0.0,0.0,0.0,0.0,0.0,0.0,0.0,0.0,0.0,0.0,0.0,0.0,0.0,0.0,0.0,0.0,0.0,0.0,0.0,0.0,0.0,0.0,0.0,0.0,0.0,0.0,0.0,0.0,0.0,0.0,0.0,0.0,0.0,0.0,-1.2068,-1.1895,-1.1687,0.0,0.0,0.0,0.0,0.0,0.0,0.0,0.0,0.0,0.0,0.0,0.0,0.0,0.0,0.0,0.0,0.0,0.0,0.0,0.0,0.0,0.0,0.0,0.0,0.0,0.0,0.0,0.0,0.0,0.0,0.0,0.0,0.0,0.0,0.0,0.0,0.0,0.0,0.0,0.0,0.0,0.0,0.0,0.0,0.0,0.0,0.0,0.0,0.0,0.0,0.0,0.0,0.0,0.0,0.0,0.0,0.0,0.0,0.0,0.0,0.0,0.0,0.0,0.0,0.0,0.0,0.0,0.0,0.0,0.0,0.0,0.0,0.0,0.0,0.0,0.0,0.0,0.0,0.0,0.0,0.0,0.0,0.0,0.0,0.0,0.0,0.0,0.0,0.0,0.0,0.0,0.0,0.0,0.0,0.0,0.0,0.0,0.0,0.0,0.0,0.0,0.0,0.0,0.0,0.0,0.0,0.0,0.0,0.0,0.0,-1.3793,-1.3775,-1.3121,0.0,-1.1758,0.0,0.0,0.0,0.0,0.0,0.0,0.0,0.0,0.0,0.0,0.0,0.0,0.0,0.0,0.0,0.0,0.0,0.0,0.0,0.0,0.0,0.0,0.0,0.0,0.0,0.0,0.0,0.0,0.0,0.0,0.0,0.0,0.0,0.0,0.0,0.0,0.0,0.0,0.0,0.0,0.0,0.0,0.0,0.0,0.0,0.0,0.0,0.0,0.0,0.0,0.0,0.0,0.0,0.0,0.0,0.0,0.0,0.0,0.0,0.0,0.0,0.0,0.0,0.0,0.0,0.0,0.0,0.0,0.0,0.0,0.0,0.0,0.0,0.0,0.0,0.0,0.0,0.0,0.0,0.0,0.0,0.0,0.0,0.0,0.0,0.0,0.0,0.0,0.0,0.0,0.0,0.0,0.0,0.0,0.0,0.0,0.0,0.0,0.0,0.0,0.0,0.0,0.0,0.0,0.0,0.0,0.0,0.0,0.0,0.0,-1.3779,-1.3294,-1.2982,-1.2913,0.0,0.0,0.0,0.0,0.0,0.0,0.0,0.0,0.0,0.0,0.0,0.0,0.0,0.0,0.0,0.0,0.0,0.0,0.0,0.0,0.0,0.0,0.0,0.0,0.0,0.0,0.0,0.0,0.0,0.0,0.0,0.0,0.0,0.0,0.0,0.0,0.0,0.0,0.0,0.0,0.0,0.0,0.0,0.0,0.0,0.0,0.0,0.0,0.0,0.0,0.0,0.0,0.0,0.0,0.0,0.0,0.0,0.0,0.0,0.0,0.0,0.0,0.0,0.0,0.0,0.0,0.0,0.0,0.0,0.0,0.0,0.0,0.0,0.0,0.0,0.0,0.0,0.0,0.0,0.0,0.0,0.0,0.0,0.0,0.0,0.0,0.0,0.0,0.0,0.0,0.0,0.0,0.0,0.0,0.0,0.0,0.0,0.0,0.0,0.0,0.0,0.0,0.0,0.0,0.0,0.0,0.0,0.0,0.0,0.0,-1.3941,-1.3697,-1.3132,-1.3114,-1.3393,-1.3973,0.0,0.0,0.0,0.0,0.0,0.0,0.0,0.0,0.0,0.0,0.0,0.0,0.0,0.0,0.0,0.0,0.0,0.0,0.0,0.0,0.0,0.0,0.0,0.0,0.0,0.0,0.0,0.0,0.0,0.0,0.0,0.0,0.0,0.0,0.0,0.0,0.0,0.0,0.0,0.0,0.0,0.0,0.0,0.0,0.0,0.0,0.0,0.0,0.0,0.0,0.0,0.0,0.0,0.0,0.0,0.0,0.0,0.0,0.0,0.0,0.0,0.0,0.0,0.0,0.0,0.0,0.0,0.0,0.0,0.0,0.0,0.0,0.0,0.0,0.0,0.0,0.0,0.0,0.0,0.0,0.0,0.0,0.0,0.0,0.0,0.0,0.0,0.0,0.0,0.0,0.0,0.0,0.0,0.0,0.0,0.0,0.0,0.0,0.0,0.0,0.0,0.0,0.0,0.0,0.0,0.0,0.0,0.0,0.0,-1.3921,-1.3865,-1.3828,-1.3853,-1.3885,0.0,0.0,0.0,0.0,0.0,0.0,0.0,0.0,0.0,0.0,0.0,0.0,0.0,0.0,0.0,0.0,0.0,0.0,0.0,0.0,0.0,0.0,0.0,0.0,0.0,0.0,0.0,0.0,0.0,0.0,0.0,0.0,0.0,0.0,0.0,0.0,0.0,0.0,0.0,0.0,0.0,0.0,0.0,0.0,0.0,0.0,0.0,0.0,0.0,0.0,0.0,0.0,0.0,0.0,0.0,0.0,0.0,0.0,0.0,0.0,0.0,0.0,0.0,0.0,0.0,0.0,0.0,0.0,0.0,0.0,0.0,0.0,0.0,0.0,0.0,0.0,0.0,0.0,0.0,0.0,0.0,0.0,0.0,0.0,0.0,0.0,0.0,0.0,0.0,0.0,0.0,0.0,0.0,0.0,0.0,0.0,0.0,0.0,0.0,0.0,0.0,0.0,0.0,0.0,0.0,0.0,0.0,0.0,0.0,-1.4553,-1.4141,-1.3886,-1.3883,-1.3398,-1.3387,0.0,0.0,0.0,0.0,0.0,0.0,0.0,0.0,0.0,0.0,0.0,0.0,0.0,0.0,0.0,0.0,0.0,0.0,0.0,0.0,0.0,0.0,0.0,0.0,0.0,0.0,0.0,0.0,0.0,0.0,0.0,0.0,0.0,0.0,0.0,0.0,0.0,0.0,0.0,0.0,0.0,0.0,0.0,0.0,0.0,0.0,0.0,0.0,0.0,0.0,0.0,0.0,0.0,0.0,0.0,0.0,0.0,0.0,0.0,0.0,0.0,0.0,0.0,0.0,0.0,0.0,0.0,0.0,0.0,0.0,0.0,0.0,0.0,0.0,0.0,0.0,0.0,0.0,0.0,0.0,0.0,0.0,0.0,0.0,0.0,0.0,0.0,0.0,0.0,0.0,0.0,0.0,0.0,0.0,0.0,0.0,0.0,0.0,0.0,0.0,0.0,0.0,0.0,0.0,0.0,0.0,0.0,0.0,0.0,-1.5343,0.0,-1.4518,0.0,-1.3728,-1.3587,0.0,0.0,0.0,0.0,0.0,0.0,0.0,0.0,0.0,0.0,0.0,0.0,0.0,0.0,0.0,0.0,0.0,0.0,0.0,0.0,0.0,0.0,0.0,0.0,0.0,0.0,0.0,0.0,0.0,0.0,0.0,0.0,0.0,0.0,0.0,0.0,0.0,0.0,0.0,0.0,0.0,0.0,0.0,0.0,0.0,0.0,0.0,0.0,0.0,0.0,0.0,0.0,0.0,0.0,0.0,0.0,0.0,0.0,0.0,0.0,0.0,0.0,0.0,0.0,0.0,0.0,0.0,0.0,0.0,0.0,0.0,0.0,0.0,0.0,0.0,0.0,0.0,0.0,0.0,0.0,0.0,0.0,0.0,0.0,0.0,0.0,0.0,0.0,0.0,0.0,0.0,0.0,0.0,0.0,0.0,0.0,0.0,0.0,0.0,0.0,0.0,0.0,0.0,0.0,0.0,0.0,0.0,0.0,-1.545,-1.6185,-1.622,-1.5817,-1.5062,-1.4974,-1.4623,0.0,0.0,0.0,0.0,0.0,0.0,0.0,0.0,0.0,0.0,0.0,0.0,0.0,0.0,0.0,0.0,0.0,0.0,0.0,0.0,0.0,0.0,0.0,0.0,0.0,0.0,0.0,0.0,0.0,0.0,0.0,0.0,0.0,0.0,0.0,0.0,0.0,0.0,0.0,0.0,0.0,0.0,0.0,0.0,0.0,0.0,0.0,0.0,0.0,0.0,0.0,0.0,0.0,0.0,0.0,0.0,0.0,0.0,0.0,0.0,0.0,0.0,0.0,0.0,0.0,0.0,0.0,0.0,0.0,0.0,0.0,0.0,0.0,0.0,0.0,0.0,0.0,0.0,0.0,0.0,0.0,0.0,0.0,0.0,0.0,0.0,0.0,0.0,0.0,0.0,0.0,0.0,0.0,0.0,0.0,0.0,0.0,0.0,0.0,0.0,0.0,0.0,0.0,0.0,0.0,0.0,0.0,0.0,0.0,-1.7716,-1.7218,-1.6851,-1.6563,-1.5553,-1.4894,0.0,0.0,0.0,0.0,0.0,0.0,0.0,0.0,0.0,0.0,0.0,0.0,0.0,0.0,0.0,0.0,0.0,0.0,0.0,0.0,0.0,0.0,0.0,0.0,0.0,0.0,0.0,0.0,0.0,0.0,0.0,0.0,0.0,0.0,0.0,0.0,0.0,0.0,0.0,0.0,0.0,0.0,0.0,0.0,0.0,0.0,0.0,0.0,0.0,0.0,0.0,0.0,0.0,0.0,0.0,0.0,0.0,0.0,0.0,0.0,0.0,0.0,0.0,0.0,0.0,0.0,0.0,0.0,0.0,0.0,0.0,0.0,0.0,0.0,0.0,0.0,0.0,0.0,0.0,0.0,0.0,0.0,0.0,0.0,0.0,0.0,0.0,0.0,0.0,0.0,0.0,0.0,0.0,0.0,0.0,0.0,0.0,0.0,0.0,0.0,0.0,0.0,0.0,0.0,0.0,0.0,0.0,0.0,0.0,-2.0367,-1.9761,-1.93,-1.9072,-1.7827,-1.6756,-1.5878,0.0,0.0,0.0,0.0,0.0,0.0,0.0,0.0,0.0,0.0,0.0,0.0,0.0,0.0,0.0,0.0,0.0,0.0,0.0,0.0,0.0,0.0,0.0,0.0,0.0,0.0,0.0,0.0,0.0,0.0,0.0,0.0,0.0,0.0,0.0,0.0,0.0,0.0,0.0,0.0,0.0,0.0,0.0,0.0,0.0,0.0,0.0,0.0,0.0,0.0,0.0,0.0,0.0,0.0,0.0,0.0,0.0,0.0,0.0,0.0,0.0,0.0,0.0,0.0,0.0,0.0,0.0,0.0,0.0,0.0,0.0,0.0,0.0,0.0,0.0,0.0,0.0,0.0,0.0,0.0,0.0,0.0,0.0,0.0,0.0,0.0,0.0,0.0,0.0,0.0,0.0,0.0,0.0,0.0,0.0,0.0,0.0,0.0,0.0,0.0,0.0,0.0,0.0,0.0,0.0,0.0,0.0,0.0,-2.3874,-2.3558,-2.3015,-2.2247,-2.123,-1.9738,0.0,0.0,0.0,0.0,0.0,0.0,0.0,0.0,0.0,0.0,0.0,0.0,0.0,0.0,0.0,0.0,0.0,0.0,0.0,0.0,0.0,0.0,0.0,0.0,0.0,0.0,0.0,0.0,0.0,0.0,0.0,0.0,0.0,0.0,0.0,0.0,0.0,0.0,0.0,0.0,0.0,0.0,0.0,0.0,0.0,0.0,0.0,0.0,0.0,0.0,0.0,0.0,0.0,0.0,0.0,0.0,0.0,0.0,0.0,0.0,0.0,0.0,0.0,0.0,0.0,0.0,0.0,0.0,0.0,0.0,0.0,0.0,0.0,0.0,0.0,0.0,0.0,0.0,0.0,0.0,0.0,0.0,0.0,0.0,0.0,0.0,0.0,0.0,0.0,0.0,0.0,0.0,0.0,0.0,0.0,0.0,0.0,0.0,0.0,0.0,0.0,0.0,0.0,0.0,0.0,0.0,0.0,0.0,0.0,-2.5287,-2.7065,-2.7065,-2.5192,-2.2248,-2.0372,0.0,0.0,0.0,0.0,0.0,0.0,0.0,0.0,0.0,0.0,0.0,0.0,0.0,0.0,0.0,0.0,0.0,0.0,0.0,0.0,0.0,0.0,0.0,0.0,0.0,0.0,0.0,0.0,0.0,0.0,0.0,0.0,0.0,0.0,0.0,0.0,0.0,0.0,0.0,0.0,0.0,0.0,0.0,0.0,0.0,0.0,0.0,0.0,0.0,0.0,0.0,0.0,0.0,0.0,0.0,0.0,0.0,0.0,0.0,0.0,0.0,0.0,0.0,0.0,0.0,0.0,0.0,0.0,0.0,0.0,0.0,0.0,0.0,0.0,0.0,0.0,0.0,0.0,0.0,0.0,0.0,0.0,0.0,0.0,0.0,0.0,0.0,0.0,0.0,0.0,0.0,0.0,0.0,0.0,0.0,0.0,0.0,0.0,0.0,0.0,0.0,0.0,0.0,0.0,0.0,0.0,0.0,0.0,-2.4357,-2.6421,-2.8812,-2.9483,-2.8339,-2.4853,-2.2546,0.0,0.0,0.0,0.0,0.0,0.0,0.0,0.0,0.0,0.0,0.0,0.0,0.0,0.0,0.0,0.0,0.0,0.0,0.0,0.0,0.0,0.0,0.0,0.0,0.0,0.0,0.0,0.0,0.0,0.0,0.0,0.0,0.0,0.0,0.0,0.0,0.0,0.0,0.0,0.0,0.0,0.0,0.0,0.0,0.0,0.0,0.0,0.0,0.0,0.0,0.0,0.0,0.0,0.0,0.0,0.0,0.0,0.0,0.0,0.0,0.0,0.0,0.0,0.0,0.0,0.0,0.0,0.0,0.0,0.0,0.0,0.0,0.0,0.0,0.0,0.0,0.0,0.0,0.0,0.0,0.0,0.0,0.0,0.0,0.0,0.0,0.0,0.0,0.0,0.0,0.0,0.0,0.0,0.0,0.0,0.0,0.0,0.0,0.0,0.0,0.0,0.0,0.0,0.0,0.0,0.0,0.0,0.0,-2.5613,-2.7259,-2.94,-3.0666,-3.0943,-2.7876,-2.525,0.0,0.0,0.0,0.0,0.0,0.0,0.0,0.0,0.0,0.0,0.0,0.0,0.0,0.0,0.0,0.0,0.0,0.0,0.0,0.0,0.0,0.0,0.0,0.0,0.0,0.0,0.0,0.0,0.0,0.0,0.0,0.0,0.0,0.0,0.0,0.0,0.0,0.0,0.0,0.0,0.0,0.0,0.0,0.0,0.0,0.0,0.0,0.0,0.0,0.0,0.0,0.0,0.0,0.0,0.0,0.0,0.0,0.0,0.0,0.0,0.0,0.0,0.0,0.0,0.0,0.0,0.0,0.0,0.0,0.0,0.0,0.0,0.0,0.0,0.0,0.0,0.0,0.0,0.0,0.0,0.0,0.0,0.0,0.0,0.0,0.0,0.0,0.0,0.0,0.0,0.0,0.0,0.0,0.0,0.0,0.0,0.0,0.0,0.0,0.0,0.0,0.0,0.0,0.0,0.0,0.0,0.0,0.0,-2.5715,-2.7791,-2.9604,-3.0522,-3.0588,-2.7311,-2.5207,0.0,0.0,0.0,0.0,0.0,0.0,0.0,0.0,0.0,0.0,0.0,0.0,0.0,0.0,0.0,0.0,0.0,0.0,0.0,0.0,0.0,0.0,0.0,0.0,0.0,0.0,0.0,0.0,0.0,0.0,0.0,0.0,0.0,0.0,0.0,0.0,0.0,0.0,0.0,0.0,0.0,0.0,0.0,0.0,0.0,0.0,0.0,0.0,-0.8696,0.0,0.0,0.0,0.0,0.0,0.0,0.0,0.0,0.0,0.0,0.0,0.0,0.0,0.0,0.0,0.0,0.0,0.0,0.0,0.0,0.0,0.0,0.0,0.0,0.0,0.0,0.0,0.0,0.0,0.0,0.0,0.0,0.0,0.0,0.0,0.0,0.0,0.0,0.0,0.0,0.0,0.0,0.0,0.0,0.0,0.0,0.0,0.0,0.0,0.0,0.0,0.0,0.0,0.0,0.0,0.0,0.0,0.0,0.0,-2.6901,-2.9022,-3.0225,-3.077,-3.0544,-2.8148,-2.6273,0.0,0.0,0.0,0.0,0.0,0.0,0.0,0.0,0.0,0.0,0.0,0.0,0.0,0.0,0.0,0.0,0.0,0.0,0.0,0.0,0.0,0.0,0.0,0.0,0.0,0.0,0.0,0.0,0.0,0.0,0.0,0.0,0.0,0.0,0.0,0.0,0.0,0.0,0.0,0.0,0.0,0.0,0.0,0.0,0.0,0.0,0.0,0.0,0.0,0.0,0.0,0.0,0.0,0.0,0.0,0.0,0.0,0.0,0.0,0.0,0.0,0.0,0.0,0.0,0.0,0.0,0.0,0.0,0.0,0.0,0.0,0.0,0.0,0.0,0.0,0.0,0.0,0.0,0.0,0.0,0.0,0.0,0.0,0.0,0.0,0.0,0.0,0.0,0.0,0.0,0.0,0.0,0.0,0.0,0.0,0.0,0.0,0.0,0.0,0.0,0.0,0.0,0.0,0.0,0.0,0.0,0.0,-2.5857,-2.8237,-3.0347,-3.0931,-3.103,-3.0695,-2.9424,-2.766,-2.543,0.0,0.0,0.0,0.0,0.0,0.0,0.0,0.0,0.0,0.0,0.0,0.0,0.0,0.0,0.0,0.0,0.0,0.0,0.0,0.0,0.0,0.0,0.0,0.0,0.0,0.0,0.0,0.0,0.0,0.0,0.0,0.0,0.0,0.0,0.0,0.0,0.0,0.0,-1.0105,-1.03,0.0,0.0,0.0,0.0,0.0,0.0,0.0,0.0,-1.151,0.0,0.0,0.0,0.0,0.0,0.0,0.0,0.0,0.0,0.0,0.0,0.0,0.0,0.0,0.0,0.0,0.0,0.0,0.0,0.0,0.0,0.0,0.0,0.0,0.0,0.0,0.0,0.0,0.0,0.0,0.0,0.0,0.0,0.0,0.0,0.0,0.0,0.0,0.0,0.0,0.0,0.0,0.0,0.0,0.0,0.0,0.0,0.0,0.0,0.0,0.0,0.0,0.0,0.0,0.0,0.0,-2.461,-2.6282,-2.8379,-3.0954,-3.116,-3.094,-3.0323,-2.9945,-2.8465,-2.5748,0.0,0.0,0.0,0.0,0.0,0.0,0.0,0.0,0.0,0.0,0.0,0.0,0.0,0.0,0.0,0.0,0.0,0.0,0.0,0.0,0.0,0.0,0.0,0.0,0.0,0.0,0.0,0.0,0.0,0.0,0.0,0.0,0.0,0.0,0.0,0.0,0.0,0.0,0.0,-1.149,-1.223,0.0,0.0,0.0,0.0,0.0,0.0,0.0,0.0,-1.4026,0.0,0.0,0.0,0.0,0.0,0.0,0.0,0.0,0.0,0.0,0.0,0.0,0.0,0.0,0.0,0.0,0.0,0.0,0.0,0.0,0.0,0.0,0.0,0.0,0.0,0.0,0.0,0.0,0.0,0.0,0.0,0.0,0.0,0.0,0.0,0.0,0.0,0.0,0.0,0.0,0.0,0.0,0.0,0.0,0.0,0.0,0.0,0.0,0.0,0.0,0.0,0.0,0.0,0.0,0.0,-2.5471,-2.7968,-3.0219,-3.2203,-3.2297,-3.1966,-3.1295,-3.0567,-2.892,0.0,0.0,0.0,0.0,0.0,0.0,0.0,0.0,0.0,0.0,0.0,0.0,0.0,0.0,0.0,0.0,0.0,0.0,0.0,0.0,0.0,0.0,0.0,0.0,0.0,0.0,0.0,0.0,0.0,0.0,0.0,0.0,0.0,0.0,0.0,0.0,0.0,0.0,0.0,0.0,-1.349,-1.4986,-1.6275,0.0,0.0,0.0,0.0,0.0,0.0,-1.6047,-1.5137,0.0,0.0,0.0,0.0,0.0,0.0,0.0,0.0,0.0,0.0,0.0,0.0,0.0,0.0,0.0,0.0,0.0,0.0,0.0,0.0,0.0,0.0,0.0,0.0,0.0,0.0,0.0,0.0,0.0,0.0,0.0,0.0,0.0,0.0,0.0,0.0,0.0,0.0,0.0,0.0,0.0,0.0,0.0,0.0,0.0,0.0,0.0,0.0,0.0,0.0,0.0,0.0,0.0,0.0,0.0,-2.6435,-2.9556,-3.1887,-3.323,-3.3293,-3.2977,-3.2291,-3.087,-2.9067,0.0,0.0,0.0,0.0,0.0,0.0,0.0,0.0,0.0,0.0,0.0,0.0,0.0,0.0,0.0,0.0,0.0,0.0,0.0,0.0,0.0,0.0,0.0,0.0,0.0,0.0,0.0,0.0,0.0,0.0,0.0,0.0,0.0,0.0,0.0,0.0,0.0,0.0,0.0,0.0,0.0,-1.7471,-2.0558,-1.7807,0.0,0.0,0.0,0.0,-1.8248,-1.7295,0.0,0.0,0.0,0.0,0.0,0.0,0.0,0.0,0.0,0.0,0.0,0.0,0.0,0.0,0.0,0.0,0.0,0.0,0.0,0.0,0.0,0.0,0.0,0.0,0.0,0.0,0.0,0.0,0.0,0.0,0.0,0.0,0.0,0.0,0.0,0.0,0.0,0.0,0.0,0.0,0.0,0.0,0.0,0.0,0.0,0.0,0.0,0.0,0.0,0.0,0.0,0.0,0.0,0.0,0.0,0.0,-2.781,-3.0069,-3.1887,-3.3214,-3.3293,-3.2977,-3.2291,-3.0426,-2.8812,0.0,0.0,0.0,0.0,0.0,0.0,0.0,0.0,0.0,0.0,0.0,0.0,0.0,0.0,0.0,0.0,0.0,0.0,0.0,0.0,0.0,0.0,0.0,0.0,0.0,0.0,0.0,0.0,0.0,0.0,0.0,0.0,0.0,0.0,0.0,0.0,0.0,0.0,0.0,0.0,0.0,-1.8867,-2.2181,-1.9381,-1.6801,0.0,0.0,-1.9196,-2.0003,-2.0102,0.0,0.0,0.0,0.0,0.0,0.0,0.0,0.0,0.0,0.0,0.0,0.0,0.0,0.0,0.0,0.0,0.0,0.0,0.0,0.0,0.0,0.0,0.0,0.0,0.0,0.0,0.0,0.0,0.0,0.0,0.0,0.0,0.0,0.0,0.0,0.0,0.0,0.0,0.0,0.0,0.0,0.0,0.0,0.0,0.0,0.0,0.0,0.0,0.0,0.0,0.0,0.0,0.0,0.0,0.0,-2.6088,-2.811,-3.0939,-3.2692,-3.3277,-3.3293,-3.3166,-3.2876,-3.0553,-2.8895,0.0,0.0,0.0,0.0,0.0,0.0,0.0,0.0,0.0,0.0,0.0,0.0,0.0,0.0,0.0,0.0,0.0,0.0,0.0,0.0,0.0,0.0,0.0,0.0,0.0,0.0,0.0,0.0,0.0,0.0,0.0,0.0,0.0,0.0,0.0,0.0,0.0,0.0,0.0,0.0,0.0,0.0,-2.3245,-2.1269,0.0,0.0,0.0,-2.0643,-2.077,0.0,0.0,0.0,0.0,0.0,0.0,0.0,0.0,0.0,0.0,0.0,0.0,0.0,0.0,0.0,0.0,0.0,0.0,0.0,0.0,0.0,0.0,0.0,0.0,0.0,0.0,0.0,0.0,0.0,0.0,0.0,0.0,0.0,0.0,0.0,0.0,0.0,0.0,0.0,0.0,0.0,0.0,0.0,0.0,0.0,0.0,0.0,0.0,0.0,0.0,0.0,0.0,0.0,0.0,0.0,0.0,0.0,-2.8379,-3.1618,-3.3293,-3.3293,-3.3293,-3.3293,-3.3261,-3.098,0.0,0.0,0.0,0.0,0.0,0.0,0.0,0.0,0.0,0.0,0.0,0.0,0.0,0.0,0.0,0.0,0.0,0.0,0.0,0.0,0.0,0.0,0.0,0.0,0.0,0.0,0.0,-1.5631,0.0,0.0,0.0,0.0,0.0,0.0,0.0,0.0,0.0,0.0,0.0,0.0,0.0,0.0,-2.1318,-2.4368,-2.3067,-2.1898,0.0,0.0,-2.1959,-2.2091,-2.2654,-2.1984,0.0,0.0,0.0,0.0,0.0,0.0,0.0,0.0,0.0,0.0,0.0,0.0,0.0,0.0,0.0,0.0,0.0,0.0,0.0,0.0,0.0,0.0,0.0,0.0,0.0,0.0,0.0,0.0,0.0,0.0,0.0,0.0,0.0,0.0,0.0,0.0,0.0,0.0,0.0,0.0,0.0,0.0,0.0,0.0,0.0,0.0,0.0,0.0,0.0,0.0,0.0,0.0,0.0,0.0,0.0,-2.9082,-3.183,-3.3324,-3.3309,-3.3293,-3.3293,-3.3277,-3.1839,-3.0465,0.0,0.0,0.0,0.0,0.0,0.0,0.0,0.0,0.0,0.0,0.0,0.0,0.0,0.0,0.0,0.0,0.0,0.0,0.0,0.0,0.0,0.0,0.0,0.0,0.0,0.0,0.0,0.0,0.0,0.0,0.0,0.0,0.0,0.0,0.0,0.0,0.0,0.0,0.0,0.0,0.0,-2.2251,-2.5689,-2.4555,-2.363,0.0,0.0,-2.3412,-2.4649,-2.4706,-2.3462,-2.0046,0.0,0.0,0.0,0.0,0.0,0.0,0.0,0.0,0.0,0.0,0.0,0.0,0.0,0.0,0.0,0.0,0.0,0.0,0.0,0.0,0.0,0.0,0.0,0.0,0.0,0.0,0.0,0.0,0.0,0.0,0.0,0.0,0.0,0.0,0.0,0.0,0.0,0.0,0.0,0.0,0.0,0.0,0.0,0.0,0.0,0.0,0.0,0.0,0.0,0.0,0.0,0.0,0.0,-2.8395,-2.9785,-3.2503,-3.4115,-3.4541,-3.4162,-3.3925,-3.3909,-3.2171,-3.0789,0.0,0.0,0.0,0.0,0.0,0.0,0.0,0.0,0.0,0.0,0.0,0.0,0.0,0.0,0.0,0.0,0.0,0.0,0.0,0.0,0.0,0.0,0.0,0.0,0.0,0.0,0.0,0.0,-2.0936,-2.1015,-2.0826,0.0,0.0,0.0,0.0,0.0,0.0,0.0,0.0,0.0,0.0,-2.3385,-2.7263,-2.6134,0.0,0.0,-2.5333,-2.5296,-2.529,-2.5546,-2.4597,-2.1371,-1.9465,0.0,0.0,0.0,0.0,0.0,0.0,0.0,0.0,0.0,0.0,0.0,0.0,0.0,0.0,0.0,0.0,0.0,0.0,0.0,0.0,0.0,0.0,0.0,0.0,0.0,0.0,0.0,0.0,0.0,0.0,0.0,0.0,0.0,0.0,0.0,0.0,0.0,0.0,0.0,0.0,0.0,0.0,0.0,0.0,0.0,0.0,0.0,0.0,0.0,0.0,0.0,0.0,-2.909,-3.0496,-3.3214,-3.4901,-3.5379,-3.4889,-3.4604,-3.4573,-3.3008,-3.1729,0.0,0.0,0.0,0.0,0.0,0.0,0.0,0.0,0.0,0.0,0.0,0.0,0.0,0.0,0.0,0.0,0.0,0.0,0.0,0.0,0.0,0.0,0.0,0.0,0.0,0.0,0.0,0.0,-2.1948,-2.1916,-2.1205,0.0,0.0,0.0,0.0,0.0,0.0,0.0,0.0,0.0,0.0,-2.463,-2.7809,-2.7011,-2.6072,-2.6051,-2.5991,-2.5815,-2.5416,-2.5404,-2.4593,-2.2202,0.0,0.0,0.0,0.0,0.0,0.0,0.0,0.0,0.0,0.0,0.0,0.0,0.0,0.0,0.0,0.0,0.0,0.0,0.0,0.0,0.0,0.0,0.0,0.0,0.0,0.0,0.0,0.0,0.0,0.0,-2.0919,0.0,0.0,0.0,0.0,0.0,0.0,0.0,0.0,0.0,0.0,0.0,0.0,0.0,0.0,0.0,0.0,0.0,0.0,0.0,0.0,0.0,0.0,0.0,-3.1207,-3.3941,-3.5379,-3.5426,-3.5394,-3.5379,-3.5347,-3.462,-3.3604,-3.2244,0.0,0.0,0.0,0.0,0.0,0.0,0.0,0.0,0.0,0.0,0.0,0.0,0.0,0.0,0.0,0.0,0.0,0.0,0.0,0.0,0.0,0.0,0.0,0.0,0.0,0.0,-2.0906,-2.206,-2.2582,0.0,0.0,0.0,0.0,0.0,0.0,0.0,0.0,0.0,0.0,-2.2621,-2.5968,-2.7008,-2.6975,-2.6816,-2.6863,-2.5418,-2.4516,-2.5204,-2.4307,-2.3207,0.0,0.0,0.0,0.0,0.0,0.0,0.0,0.0,0.0,0.0,0.0,0.0,0.0,0.0,0.0,0.0,0.0,0.0,0.0,0.0,0.0,0.0,0.0,0.0,0.0,0.0,0.0,-2.6796,-2.61,0.0,0.0,0.0,0.0,0.0,0.0,0.0,0.0,0.0,0.0,0.0,-2.6108,-2.6049,0.0,0.0,0.0,0.0,0.0,0.0,0.0,0.0,0.0,0.0,0.0,0.0,-3.0528,-3.1991,-3.4668,-3.6311,-3.6782,-3.6311,-3.6045,-3.6045,-3.5394,-3.4162,-3.2339,0.0,0.0,0.0,0.0,0.0,0.0,0.0,0.0,0.0,0.0,0.0,0.0,0.0,0.0,0.0,0.0,0.0,0.0,0.0,0.0,0.0,0.0,0.0,0.0,0.0,-2.1646,0.0,0.0,0.0,0.0,0.0,0.0,0.0,0.0,0.0,0.0,0.0,-2.2305,-2.2762,-2.4228,-2.5694,-2.6919,-2.663,-2.6624,0.0,0.0,0.0,0.0,0.0,0.0,0.0,0.0,0.0,0.0,0.0,0.0,0.0,0.0,-1.6555,-1.5253,-1.5424,-1.5797,-1.5783,0.0,0.0,0.0,0.0,0.0,0.0,0.0,0.0,0.0,0.0,0.0,0.0,0.0,0.0,0.0,0.0,-2.876,0.0,0.0,0.0,0.0,0.0,0.0,0.0,0.0,-2.8563,-2.9182,-2.9154,-2.9109,-2.92,0.0,-2.9277,-2.8072,0.0,0.0,0.0,0.0,0.0,0.0,0.0,0.0,-3.1516,-3.2718,-3.5379,-3.7006,-3.7462,-3.7038,-3.6801,-3.6756,-3.6105,-3.4999,-3.343,-3.2218,-3.0528,0.0,0.0,0.0,0.0,0.0,0.0,0.0,0.0,0.0,0.0,0.0,0.0,0.0,0.0,0.0,0.0,0.0,0.0,0.0,0.0,0.0,0.0,0.0,-2.283,0.0,0.0,0.0,0.0,0.0,0.0,0.0,0.0,0.0,-2.2625,-2.3386,-2.4068,-2.4242,-2.5523,-2.6404,-2.6393,0.0,0.0,0.0,0.0,0.0,0.0,0.0,-2.3812,-2.3524,-2.414,-2.4265,-2.3076,-2.1693,-2.0585,-2.0285,0.0,0.0,-1.8426,-1.846,-1.8758,-1.8581,-1.852,-1.8541,-1.8527,-1.8506,-1.8527,0.0,0.0,0.0,0.0,0.0,0.0,0.0,0.0,-3.2388,-3.1917,0.0,-3.1202,0.0,0.0,0.0,0.0,0.0,-2.9822,0.0,0.0,-3.2135,-3.3039,-3.2482,-3.239,-3.2718,-3.3245,-3.2013,-3.1381,-3.1277,-3.0701,0.0,0.0,0.0,0.0,0.0,0.0,-3.2671,-3.3435,-3.6074,-3.751,-3.751,-3.7494,-3.7494,-3.7478,-3.6801,-3.6121,-3.5394,-3.3525,-3.2386,-3.2212,-2.841,0.0,0.0,0.0,0.0,0.0,0.0,0.0,0.0,0.0,0.0,0.0,0.0,0.0,0.0,0.0,0.0,0.0,0.0,0.0,0.0,-2.397,0.0,0.0,0.0,0.0,0.0,0.0,0.0,0.0,0.0,0.0,-2.4235,-2.5219,-2.5298,-2.3357,0.0,0.0,0.0,0.0,-2.7373,-2.5492,-2.4465,-2.3962,-2.4057,-2.4436,-2.5098,-2.614,0.0,0.0,-2.6251,-2.4134,-2.2724,-2.2823,-2.2825,-2.2101,-2.0356,-2.0446,-2.0532,-2.008,-2.0026,-1.9917,-1.9931,-2.0188,-2.0134,-3.5618,0.0,0.0,0.0,0.0,-3.4194,-3.4923,-3.6061,-3.6044,-3.5625,-3.4891,-3.4914,0.0,0.0,0.0,0.0,0.0,0.0,-3.2989,-3.3136,-3.3947,-3.4382,-3.4533,-3.4521,-3.4604,-3.4778,-3.4845,-3.4908,-3.4908,-3.5236,-3.3446,-2.9643,0.0,0.0,0.0,0.0,-3.3593,-3.4826,-3.6579,-3.751,-3.751,-3.751,-3.751,-3.751,-3.7291,-3.6832,-3.6124,-3.5537,-3.4304,-3.237,-3.1137,0.0,0.0,0.0,0.0,0.0,0.0,0.0,0.0,0.0,0.0,0.0,0.0,0.0,0.0,0.0,0.0,0.0,0.0,0.0,-2.4622,-2.5108,-2.5072,0.0,0.0,0.0,0.0,0.0,0.0,0.0,0.0,0.0,-2.7567,-2.713,-2.6577,0.0,0.0,-2.811,-2.9264,-2.8268,-2.7525,-2.7889,0.0,0.0,0.0,-2.7296,-2.7168,-2.7411,-2.8093,-2.8493,-2.8237,-2.7467,-2.6763,-2.6399,-2.6469,-2.6244,-2.5343,-2.4327,-2.3689,-2.3513,-2.3485,-2.3635,-2.4015,-2.4109,-2.4204,-3.964,-3.8251,-3.6004,-3.5489,-3.6208,-3.6284,-3.6995,-3.8079,-3.8079,-3.7776,-3.7335,-3.7395,-3.6707,-3.555,-3.5195,0.0,0.0,0.0,-3.5053,-3.5523,-3.5138,-3.5249,-3.5774,-3.5805,-3.5947,-3.6232,-3.6643,-3.6848,-3.6848,-3.699,-3.5584,-3.2724,0.0,0.0,-3.2076,-3.3435,-3.4541,-3.541,-3.6798,-3.751,-3.751,-3.751,-3.751,-3.751,-3.751,-3.7275,-3.6864,-3.6535,-3.5635,-3.3988,-3.2876,-3.1343,0.0,0.0,0.0,0.0,0.0,0.0,0.0,0.0,0.0,0.0,0.0,-2.3117,0.0,0.0,0.0,0.0,-2.5214,-2.5866,-2.6562,-2.6751,0.0,0.0,0.0,0.0,0.0,0.0,0.0,-2.7172,-2.7984,-2.8869,-2.9777,-2.9225,-2.8498,-2.7962,-2.8616,-2.9848,-3.1776,0.0,-2.9659,-2.9904,-2.924,-2.9011,-2.9793,-3.0085,-3.0298,-3.0817,-3.0782,-3.0626,-3.0441,-2.9841,-2.9015,-2.8348,-2.8107,-2.788,-2.7397,-2.6524,-2.5855,-2.5753,-2.5724,-2.586,-2.6212,-2.6267,-2.6389,-4.3375,-4.311,-3.8696,-3.7331,-3.8044,-3.8062,-3.8495,-3.9131,-3.9188,-3.9086,-3.8996,-3.9086,-3.8671,-3.7823,-3.7077,0.0,-3.7814,-3.6834,-3.6788,-3.7308,-3.6291,-3.6099,-3.6629,-3.6661,-3.7006,-3.7684,-3.7668,-3.7668,-3.7652,-3.7006,-3.6645,-3.6614,-3.6026,-3.4999,-3.3688,-3.4826,-3.5505,-3.5568,-3.6861,-3.751,-3.751,-3.751,-3.751,-3.751,-3.751,-3.751,-3.7494,-3.6848,-3.6456,-3.6329,-3.3972,-3.2544,-3.2291,0.0,0.0,0.0,0.0,0.0,0.0,0.0,0.0,0.0,0.0,0.0,0.0,0.0,0.0,0.0,-2.7446,0.0,-2.913,-2.8632,0.0,0.0,0.0,-2.8442,-2.9114,-2.9288,-2.9351,-2.9351,0.0,0.0,-3.1261,0.0,-3.1009,-2.9809,-3.1223,-3.2623,-3.3309,-3.3324,-3.2914,-3.1665,-3.1498,-3.1514,-3.1713,-3.2566,-3.3625,-3.4687,-3.4589,-3.353,-3.2719,-3.1424,-3.0104,-2.9375,-2.8557,-2.8115,-2.7716,-2.7723,-2.7492,-2.7223,-2.6901,-2.6796,-2.6847,-2.686,-2.6901,-4.4136,-4.3947,-4.224,-4.1726,-4.2018,-4.2018,-4.2074,-4.2151,-4.2265,-4.2223,-4.2102,-4.2127,-4.1695,-4.0912,-4.0716,-4.0733,-4.0916,-4.0832,-4.0591,-4.0238,-3.9601,-3.9115,-3.876,-3.876,-3.8855,-3.9013,-3.9013,-3.9013,-3.9013,-3.8855,-3.8776,-3.876,-3.8602,-3.7575,-3.5729,-3.5998,-3.6437,-3.7004,-3.7336,-3.751,-3.751,-3.751,-3.751,-3.751,-3.751,-3.751,-3.751,-3.7352,-3.6975,-3.6424,-3.5761,-3.4699,-3.3119,-3.0765,0.0,0.0,0.0,0.0,0.0,0.0,0.0,0.0,0.0,-2.4748,-2.4732,0.0,-2.6688,0.0,-2.8869,-2.9753,-2.9935,-2.9809,0.0,0.0,-2.8956,-2.913,-2.9864,-3.09,-3.1548,-3.1548,-3.2424,-3.3182,-3.3514,-3.3561,-3.3783,-3.4304,-3.3609,-3.3372,-3.4209,-3.4178,-3.3957,-3.3672,-3.4004,-3.4399,-3.4383,-3.4652,-3.5015,-3.5331,-3.4909,-3.444,-3.4212,-3.3261,-3.2458,-3.2204,-3.15,-3.0864,-3.0423,-3.0234,-2.9912,-2.9481,-2.808,-2.6942,-2.7362,-2.7515,-2.7637,-4.6083,-4.6022,-4.5572,-4.545,-4.5473,-4.396,-4.3264,-4.3207,-4.3289,-4.3264,-4.3207,-4.3207,-4.2948,-4.2534,-4.2534,-4.2551,-4.2519,-4.2076,-4.1643,-4.1281,-4.0445,-3.9859,-3.9487,-3.9487,-3.9487,-3.9487,-3.9487,-3.9487,-3.9487,-3.9487,-3.9487,-3.9487,-3.9487,-3.8934,-3.7844,-3.7796,-3.7986,-3.8365,-3.8096,-3.7796,-3.7526,-3.751,-3.7368,-3.7022,-3.7006,-3.6706,-3.609,-3.6087,-3.5742,-3.5078,-3.4731,-3.4051,-3.2908,-3.086,-2.9374,0.0,0.0,0.0,0.0,0.0,0.0,0.0,0.0,0.0,0.0,0.0,-2.83,0.0,-3.0006,-3.0638,-3.0638,-3.0638,-3.0733,-3.093,-3.0961,-3.1381,-3.2418,-3.3209,-3.3699,-3.3699,-3.4347,-3.4889,-3.5189,-3.5252,-3.56,-3.6593,-3.5821,-3.5347,-3.5789,-3.5789,-3.5739,-3.577,-3.6058,-3.634,-3.6327,-3.6311,-3.6355,-3.6282,-3.5917,-3.565,-3.5857,-3.488,-3.3906,-3.339,-3.274,-3.2055,-3.1528,-3.1129,-3.0807,-3.0331,-2.9374,-2.8622,-2.8845,-2.8912,-2.9034,-4.818,-4.826,-4.8154,-4.8154,-4.805,-4.5069,-4.3757,-4.3688,-4.3671,-4.3594,-4.3483,-4.3396,-4.3345,-4.3345,-4.3345,-4.3327,-4.3277,-4.2213,-4.1676,-4.1517,-4.0419,-3.9866,-3.9771,-3.9771,-3.9771,-3.9771,-3.9771,-3.9771,-3.9771,-3.9771,-3.9756,-3.9756,-3.9771,-3.9771,-3.9771,-3.9771,-3.9677,-3.9487,-3.8855,-3.8223,-3.7668,-3.7528,-3.7133,-3.644,-3.6393,-3.5805,-3.4525,-3.4431,-3.4115,-3.3451,-3.2876,-3.2592,-3.2655,-3.067,-2.9572,0.0,-2.8419,0.0,0.0,0.0,0.0,0.0,0.0,0.0,0.0,-2.9074,-2.9793,-3.0552,-3.1207,-3.1624,-3.1729,-3.1744,-3.2234,-3.3403,-3.3577,-3.4051,-3.5221,-3.5458,-3.5521,-3.5521,-3.56,-3.59,-3.6437,-3.6535,-3.6817,-3.732,-3.7352,-3.7257,-3.7462,-3.7383,-3.7336,-3.751,-3.751,-3.7336,-3.7383,-3.7431,-3.7431,-3.7387,-3.6965,-3.6877,-3.7147,-3.5999,-3.4695,-3.381,-3.3204,-3.2616,-3.1834,-3.1475,-3.1137,-3.0876,-3.0712,-3.0541,-3.031,-3.0242,-3.0405,-4.8207,-4.8136,-4.8127,-4.8127,-4.8057,-4.7447,-4.6847,-4.6274,-4.6274,-4.5797,-4.4975,-4.4363,-4.4104,-4.4087,-4.4104,-4.4087,-4.407,-4.3973,-4.3595,-4.3069,-4.2333,-4.1725,-4.1226,-4.1193,-4.1193,-4.1193,-4.1193,-4.1193,-4.1178,-4.1178,-4.1193,-4.1193,-4.1193,-4.1193,-4.1193,0.0,0.0,0.0,-3.8855,-3.8414,-3.8302,-3.7765,-3.7148,-3.6424,-3.6393,0.0,-3.5236,-3.5217,-3.4857,-3.4162,-3.3999,0.0,0.0,0.0,0.0,0.0,0.0,0.0,0.0,0.0,0.0,0.0,-3.1097,-3.09,-2.9951,-3.0963,-3.1991,-3.2645,-3.3324,-3.3957,-3.4541,-3.4604,-3.4715,-3.4952,-3.4999,-3.511,-3.5394,-3.5884,-3.6203,-3.6203,-3.6722,-3.7146,-3.7212,-3.7275,-3.7352,-3.7462,-3.751,-3.751,-3.751,-3.751,-3.751,-3.751,-3.751,-3.751,-3.751,-3.751,-3.751,-3.745,-3.7075,-3.6723,-3.6538,-3.5915,-3.5188,-3.4818,-3.4126,-3.3575,-3.3317,-3.3057,-3.2605,-3.2309,-3.2239,-3.1907,-3.0691,-3.0418,-3.0405,-4.9546,0.0,-4.9466,-4.9466,0.0,-4.9466,-4.9038,-4.8277,-4.7779,-4.7012,-4.6187,-4.5788,-4.5364,-4.4941,-4.4941,-4.4742,-4.4414,-4.4472,-4.4128,-4.3482,-4.3183,-4.2725,-4.2077,-4.2077,-4.1932,-4.1588,-4.1588,-4.1588,-4.1588,-4.1588,-4.1588,-4.1588,-4.1588,-4.1588,-4.1588,-4.1588,-4.1083,-4.0056,-3.9724,-3.9376,-3.8997,-3.8665,-3.797,-3.7006,0.0,0.0,0.0,0.0,0.0,0.0,0.0,0.0,0.0,0.0,0.0,-3.3719,-3.2819,-3.2392,-3.2708,-3.274,-3.2898,-3.3245,-3.3609,-3.3382,-3.2307,-3.3224,-3.3957,-3.4304,-3.4636,-3.4984,-3.5347,-3.5394,-3.5521,-3.5853,-3.59,-3.6011,-3.639,-3.6722,-3.6943,-3.6959,-3.7259,-3.751,-3.751,-3.751,-3.751,-3.751,-3.751,-3.751,-3.751,-3.751,-3.751,-3.751,-3.751,-3.751,-3.751,-3.751,-3.751,-3.745,-3.7255,-3.6846,-3.6274,-3.6274,-3.6196,-3.5672,-3.5023,-3.4423,-3.3652,-3.3269,-3.2917,-3.2739,-3.2574,-3.233,-3.1615,-3.1414,-3.1287,-5.1084,-5.1084,-5.0961,-5.0891,-5.0891,-5.0891,-5.0531,-4.9837,0.0,0.0,0.0,-4.7178,-4.6708,-4.6005,-4.584,-4.5453,-4.4873,-4.4626,-4.4259,-4.3718,-4.3601,-4.3213,-4.2648,-4.2617,-4.2238,-4.1621,-4.1588,-4.1588,-4.1588,-4.1588,-4.1588,-4.1588,-4.1588,-4.1588,-4.1588,-4.1588,-4.132,-4.0783,-4.0721,-4.0388,-3.9802,-3.9722,-3.9056,-3.7789,-3.7662,-3.6653,-3.4747,-3.4541,-3.4162,-3.353,-3.3467,-3.353,-3.3672,-3.3672,-3.3783,-3.4036,-3.4036,-3.4273,-3.481,-3.4885,-3.5126,-3.5726,-3.5758,-3.5422,-3.4573,-3.5157,-3.5568,-3.5568,-3.5679,-3.5758,-3.5758,-3.5758,-3.5979,-3.6535,-3.6582,-3.6848,-3.7399,-3.751,-3.7462,-3.751,-3.7494,-3.751,-3.751,-3.751,-3.751,-3.751,-3.751,-3.751,-3.751,-3.751,-3.751,-3.751,-3.751,-3.751,-3.751,-3.751,-3.751,-3.751,-3.7421,-3.7059,-3.6554,-3.6754,-3.6784,-3.6023,-3.5625,-3.4909,-3.3899,-3.3395,-3.2988,-3.2846,-3.2588,-3.2444,-3.2538,-3.2408,-3.2164,-5.1856,-5.1786,-5.1154,-5.0891,-5.0891,-5.0891,-5.0803,-5.0592,-4.8995,-4.8154,-4.7926,-4.7837,-4.7686,-4.7538,-4.6798,-4.6414,-4.6254,-4.5169,-4.4625,0.0,-4.3934,-4.3347,-4.2785,-4.2663,-4.2238,-4.1621,-4.1588,-4.1588,-4.1588,-4.1588,-4.1588,-4.1588,-4.1588,-4.1588,-4.1588,-4.1588,-4.1541,-4.143,-4.1183,-4.099,-4.0878,-4.053,-3.9868,-3.8846,-3.824,-3.7361,-3.6169,-3.5568,-3.4905,-3.4194,-3.4162,-3.4446,-3.5047,-3.511,-3.5631,-3.6798,-3.6925,-3.6956,-3.7035,-3.7067,-3.7099,-3.7209,-3.7209,-3.6672,-3.5422,-3.5884,-3.625,-3.6282,-3.6785,-3.7209,-3.7209,-3.7162,-3.7162,-3.7275,-3.7306,-3.7385,-3.751,-3.751,-3.751,-3.751,-3.751,-3.751,-3.751,-3.751,-3.751,-3.751,-3.751,-3.751,-3.751,-3.751,-3.751,-3.751,-3.751,-3.751,-3.751,-3.751,-3.751,-3.751,-3.7135,-3.6998,-3.715,-3.6723,-3.6305,-3.5944,-3.5593,-3.5154,-3.4824,-3.452,-3.3874,-3.3339,-3.3108,-3.2931,-3.248,-3.2277,-3.2218,-5.2646,-5.2558,-5.1821,-5.1487,-5.147,-5.1066,-5.0891,-5.082,-5.0082,-4.9424,-4.8968,-4.8915,-4.859,-4.811,-4.7699,-4.7301,-4.691,-4.6642,-4.611,-4.5314,-4.4998,-4.4227,-4.3199,-4.2771,-4.2238,-4.1621,-4.1588,-4.1588,-4.1588,-4.1588,-4.1588,-4.1588,-4.1588,-4.1687,-4.1851,-4.1687,-4.1588,-4.1588,-4.1435,-4.1374,-4.1358,-4.1215,-4.0704,-3.9879,-3.9561,-3.8977,-3.8112,-3.7449,-3.6927,-3.6595,-3.6216,-3.6197,-3.6529,-3.6545,-3.683,-3.7462,-3.751,-3.751,-3.751,-3.751,-3.751,-3.751,-3.751,-3.7257,-3.6624,-3.6817,-3.7006,-3.7006,-3.7306,-3.751,-3.751,-3.751,-3.751,-3.751,-3.751,-3.751,-3.751,-3.751,-3.751,-3.751,-3.751,-3.751,-3.751,-3.751,-3.751,-3.751,-3.751,-3.751,-3.751,-3.751,-3.751,-3.751,-3.751,-3.751,-3.751,-3.751,-3.751,-3.751,-3.7315,-3.7255,-3.748,-3.6983,-3.6693,-3.6368,-3.5943,-3.54,-3.5055,-3.4438,-3.3977,-3.3701,-3.3199,-3.2895,-3.2753,-3.253,-3.2218,-5.3464,-5.3394,-5.2593,-5.219,-5.1944,-5.1207,-5.0891,-5.0891,-5.0891,-5.0539,-4.9995,-4.9916,-4.9486,-4.8837,-4.8635,-4.8209,-4.7771,-4.7991,-4.7494,-4.6433,-4.6242,-4.541,-4.4001,-4.3354,-4.2653,-4.1916,-4.1835,-4.1818,-4.1835,-4.1835,-4.1835,-4.1851,-4.1835,-4.198,-4.219,-4.1883,-4.172,-4.172,-4.1654,-4.1621,-4.172,-4.1769,-4.1564,-4.0991,-4.0785,-4.0388,-3.9756,-3.9092,-3.8744,-3.8697,-3.8081,-3.7747,-3.7731,-3.7589,-3.751,-3.751,-3.751,-3.751,-3.751,-3.751,-3.751,-3.751,-3.751,-3.751,-3.751,-3.751,-3.751,-3.751,-3.7494,-3.751,-3.751,-3.751,-3.751,-3.751,-3.751,-3.751,-3.751,-3.751,-3.751,-3.751,-3.751,-3.751,-3.751,-3.751,-3.751,-3.751,-3.751,-3.751,-3.751,-3.751,-3.751,-3.751,-3.751,-3.751,-3.751,-3.751,-3.751,-3.751,-3.751,-3.748,-3.751,-3.751,-3.7375,-3.6907,-3.6445,-3.5944,-3.5237,-3.4691,-3.4337,-3.4153,-3.3589,-3.3023,-3.2895,-3.2552,-3.2205,-5.4208,-5.4086,-5.3383,-5.2664,-5.1916,-5.1224,-5.0926,-5.0891,-5.0891,-5.0855,-5.0733,-5.0597,-5.0437,-5.0305,-4.9567,-4.9179,-4.9055,-4.8538,-4.8216,-4.8005,-4.7637,-4.6708,-4.5414,-4.475,-4.3828,-4.2682,-4.2523,-4.2508,-4.2459,-4.2491,-4.2491,-4.2522,-4.2506,-4.2507,-4.2539,-4.2254,-4.2061,-4.2045,-4.1753,-4.1753,-4.2029,-4.2333,-4.2349,-4.1965,-4.1374,-4.0896,-4.0482,-3.9787,-3.9424,-3.936,-3.8776,-3.8412,-3.8365,-3.7828,-3.751,-3.7526,-3.751,-3.751,-3.751,-3.751,-3.751,-3.751,-3.751,-3.751,-3.751,-3.751,-3.751,-3.751,-3.751,-3.751,-3.751,-3.751,-3.751,-3.751,-3.751,-3.751,-3.751,-3.751,-3.751,-3.751,-3.751,-3.751,-3.751,-3.751,-3.751,-3.751,-3.751,-3.751,-3.751,-3.751,-3.751,-3.751,-3.751,-3.751,-3.751,-3.751,-3.751,-3.751,-3.751,-3.751,-3.751,-3.751,-3.745,-3.7285,-3.6923,-3.6492,-3.6321,-3.5975,-3.535,-3.4876,-3.4211,-3.3451,-3.261,-3.2314,-3.2277,-5.5033,-5.4946,-5.4173,-5.312,-5.2032,-5.1681,-5.1294,-5.0908,-5.0891,-5.0891,-5.0891,-5.0819,-5.0774,-5.0757,-5.0404,-5.0255,-5.022,-4.9958,-4.9511,-4.9002,-4.8443,-4.762,-4.655,-4.5571,-4.4624,-4.3719,-4.3407,-4.3038,-4.2681,-4.2617,-4.2679,-4.2899,-4.3116,-4.336,-4.3518,-4.3654,-4.3492,-4.3041,-4.2701,-4.2493,-4.2366,-4.2142,-4.2029,-4.2077,-4.1821,-4.1518,-4.1179,-4.0722,-4.0356,-4.0135,-3.9471,-3.9108,-3.9076,-3.846,-3.8096,-3.8065,-3.7731,-3.751,-3.751,-3.751,-3.751,-3.751,-3.751,-3.751,-3.751,-3.751,-3.751,-3.751,-3.751,-3.751,-3.751,-3.751,-3.751,-3.751,-3.751,-3.751,-3.751,-3.751,-3.751,-3.751,-3.751,-3.7526,-3.751,-3.751,-3.751,-3.751,-3.7526,-3.7573,-3.7541,-3.751,-3.751,-3.751,-3.751,-3.751,-3.751,-3.751,-3.751,-3.751,-3.751,-3.751,-3.751,-3.751,-3.751,-3.751,-3.7075,-3.6754,-3.6662,-3.6164,-3.5608,-3.5302,-3.496,-3.4124,-3.2995,-3.2797,-3.2668,-5.5367,-5.5069,-5.4331,-5.3489,-5.2628,-5.2162,-5.1698,-5.1207,-5.0996,-5.0891,-5.0891,-5.0891,-5.0891,-5.0891,-5.0891,-5.0891,-5.0891,-5.0891,-5.0548,-4.986,-4.9277,-4.8535,-4.7677,-4.6746,-4.5874,-4.515,-4.4474,-4.3706,-4.2978,-4.2881,-4.3005,-4.3272,-4.3544,-4.3887,-4.432,-4.4543,-4.4496,-4.4171,-4.3815,-4.3428,-4.3022,-4.2478,-4.2204,-4.2254,-4.2222,-4.2126,-4.1884,-4.1566,-4.1278,-4.1007,-4.0246,-3.9803,-3.9787,-3.9155,-3.8776,-3.876,-3.8318,-3.7954,-3.778,-3.7765,-3.7686,-3.7541,-3.751,-3.751,-3.751,-3.751,-3.751,-3.751,-3.751,-3.751,-3.751,-3.751,-3.751,-3.751,-3.751,-3.751,-3.751,-3.751,-3.751,-3.751,-3.7686,-3.7859,-3.8032,-3.8095,-3.8063,-3.7621,-3.7842,-3.8063,-3.8063,-3.8111,-3.8081,-3.8063,-3.8079,-3.7905,-3.7621,-3.751,-3.751,-3.751,-3.751,-3.751,-3.751,-3.751,-3.751,-3.748,-3.7105,-3.6938,-3.6998,-3.6492,-3.5847,-3.5623,-3.5285,-3.4695,-3.3699,-3.3526,-3.3206,-5.5069,-5.4314,-5.3559,-5.3629,-5.4068,-5.2681,-5.1986,-5.1839,-5.1224,-5.0908,-5.0908,-5.0891,-5.0891,-5.0891,-5.0891,-5.0891,-5.0891,-5.0891,-5.0855,-5.0696,-5.0248,-4.9669,-4.9011,-4.8426,-4.7768,-4.6948,-4.5925,-4.4808,-4.3681,-4.3602,-4.3552,-4.3568,-4.3684,-4.3998,-4.453,-4.4483,-4.4588,-4.5047,-4.487,-4.4545,-4.4149,-4.3781,-4.3266,-4.2762,-4.2585,-4.2554,-4.2475,-4.2221,-4.2013,-4.2029,-4.1055,-4.0546,-4.0482,-3.9866,-3.9471,-3.9424,-3.9376,-3.9092,-3.857,-3.846,-3.8223,-3.77,-3.7684,-3.7573,-3.7715,-3.77,-3.7715,-3.7573,-3.7684,-3.7652,-3.7652,-3.7684,-3.7636,-3.7668,-3.7605,-3.7621,-3.7589,-3.7731,-3.7541,-3.7684,-3.8128,-3.8618,-3.925,-3.9408,-3.8744,-3.8206,-3.8602,-3.9345,-3.9376,-3.9408,-3.9266,-3.925,-3.9171,-3.895,-3.7858,-3.7826,-3.7747,-3.7557,-3.7589,-3.7557,-3.7526,-3.751,-3.7526,-3.751,-3.7391,-3.7345,-3.7345,-3.7029,-3.6383,-3.6006,-3.5672,-3.5059,-3.4413,-3.4312,-3.3885,-5.4138,-5.4279,-5.4015,-5.405,-5.4226,-5.3699,-5.2899,-5.1986,-5.1706,-5.1329,-5.0943,-5.0891,-5.0891,-5.0891,-5.0891,-5.0891,-5.0891,-5.0891,-5.0891,-5.0891,-5.0692,-5.048,-5.0225,-4.9721,-4.9108,-4.8361,-4.762,-4.6537,-4.5302,-4.4901,-4.4503,-4.4219,-4.4537,-4.4757,-4.4835,-4.5539,-4.5872,-4.5627,-4.5701,-4.5619,-4.5217,-4.4898,-4.4475,-4.3941,-4.3264,-4.282,-4.2617,-4.2476,-4.2317,-4.2109,-4.1547,-4.1225,-4.1162,-4.0577,-3.9977,-3.9566,-3.9487,-3.9392,-3.9187,-3.9155,-3.906,-3.8823,-3.8776,-3.8728,-3.8776,-3.876,-3.8776,-3.876,-3.876,-3.876,-3.8681,-3.8412,-3.8318,-3.8681,-3.876,-3.8713,-3.8776,-3.8776,-3.876,-3.8807,-3.9029,-3.925,-3.9471,-3.9503,-3.9297,-3.8934,-3.9202,-3.985,-4.0451,-4.0135,-3.9582,-3.9503,-3.9487,-3.9345,-3.8965,-3.8792,-3.8634,-3.797,-3.7701,-3.778,-3.7826,-3.7731,-3.7715,-3.7668,-3.7621,-3.7528,-3.7454,-3.7165,-3.6631,-3.6336,-3.6006,-3.5672,-3.5157,-3.5026,-3.4413,-5.3401,-5.4208,-5.4033,-5.4261,-5.4647,-5.4419,-5.3717,-5.2716,-5.2225,-5.1716,-5.1277,-5.1013,-5.0891,-5.0891,-5.0891,-5.0891,-5.0891,-5.0891,-5.0891,-5.0891,-5.0891,-5.0891,-5.0863,-5.0537,-5.0119,-4.9604,-4.8901,-4.7826,-4.6543,-4.588,-4.5382,-4.4976,-4.5053,-4.5039,-4.5093,-4.5792,-4.6096,-4.6164,-4.6435,-4.6402,-4.6164,-4.5908,-4.5561,-4.5007,-4.4111,-4.3387,-4.2959,-4.271,-4.2507,-4.2254,-4.1851,-4.1588,-4.1541,-4.1162,-4.0704,-4.0245,-4.0198,-4.0072,-3.9882,-3.985,-3.9756,-3.9518,-3.9487,-3.9487,-3.9487,-3.9487,-3.9487,-3.9487,-3.9503,-3.9566,-3.9724,-3.9439,-3.9297,-3.9487,-3.9487,-3.9487,-3.9487,-3.9471,-3.9598,-3.9771,-3.985,-3.9945,-4.0119,-4.0198,-4.0214,-4.0166,-4.0166,-4.0656,-4.1193,-4.0877,-4.0182,-4.0182,-4.0277,-4.0293,-4.0166,-4.0166,-3.9771,-3.9123,-3.8507,-3.8412,-3.8349,-3.8175,-3.797,-3.7875,-3.778,-3.7656,-3.7471,-3.7212,-3.6908,-3.6616,-3.6414,-3.6116,-3.5879,-3.5784,-3.5091,-5.2874,-5.3998,-5.3489,-5.398,-5.4998,-5.4454,-5.4244,-5.3734,-5.2576,-5.1926,-5.1645,-5.1189,-5.0891,-5.0891,-5.0891,-5.0891,-5.0891,-5.0891,-5.0891,-5.0891,-5.0891,-5.0891,-5.0891,-5.0863,-5.0819,-5.0669,-4.9659,-4.848,-4.7346,-4.6685,-4.6253,-4.5896,-4.5027,-4.4929,-4.5358,-4.5123,-4.5545,-4.6424,-4.6742,-4.6842,-4.6891,-4.6842,-4.6511,-4.5831,-4.5135,-4.4395,-4.3638,-4.299,-4.2648,-4.2522,-4.1997,-4.1606,-4.1588,-4.1525,-4.1525,-4.1446,-4.1494,-4.1209,-4.0704,-4.0593,-4.0309,-3.9882,-3.9613,-3.9724,-3.9787,-3.9724,-3.9724,-3.9756,-3.974,-3.9882,-4.0482,-4.053,-4.0293,-3.9692,-3.9756,-3.9756,-3.9677,-3.9582,-3.9819,-4.0435,-4.0593,-4.0893,-4.1351,-4.1367,-4.1288,-4.1304,-4.1336,-4.1351,-4.1557,-4.1367,-4.1494,-4.1462,-4.1241,-4.1067,-4.132,-4.1494,-4.0941,-4.0372,-3.9771,-3.9424,-3.9392,-3.925,-3.8792,-3.8618,-3.8523,-3.8366,-3.7725,-3.7448,-3.7108,-3.6832,-3.6662,-3.6507,-3.632,-3.6116,-3.5879,-5.1821,-5.2664,-5.2488,-5.2962,-5.384,-5.3629,-5.3243,-5.2734,-5.2144,-5.1733,-5.1259,-5.0996,-5.0891,-5.0891,-5.0891,-5.0891,-5.0891,-5.0891,-5.0891,-5.0891,-5.0891,-5.0891,-5.0891,-5.0891,-5.0891,-5.0801,-5.0154,-4.9514,-4.8891,-4.8342,-4.7624,-4.6631,-4.6161,-4.5607,-4.5122,-4.5118,-4.5503,-4.5875,-4.6552,-4.6891,-4.6957,-4.7388,-4.7272,-4.6626,-4.6311,-4.5649,-4.4409,-4.345,-4.2974,-4.2912,-4.2285,-4.1851,-4.1654,-4.1588,-4.1588,-4.1588,-4.1588,-4.1541,-4.1336,-4.1257,-4.1178,-4.0972,-4.0909,-4.0941,-4.0941,-4.0893,-4.0893,-4.0893,-4.0941,-4.1067,-4.1225,-4.1272,-4.1114,-4.0956,-4.0925,-4.0862,-4.0814,-4.0877,-4.1035,-4.1209,-4.1288,-4.1383,-4.1509,-4.1588,-4.1588,-4.1588,-4.1588,-4.1588,-4.1588,-4.1588,-4.1588,-4.1588,-4.1588,-4.1588,-4.1588,-4.1588,-4.132,-4.0956,-4.0561,-4.023,-4.023,-4.0135,-3.9692,-3.9313,-3.9218,-3.884,-3.8213,-3.7839,-3.756,-3.7064,-3.6863,-3.6677,-3.6553,-3.632,-3.6085,-5.1329,-5.1997,-5.2014,-5.2453,-5.3183,-5.3173,-5.2909,-5.2435,-5.2137,-5.1751,-5.1329,-5.0996,-5.0891,-5.0891,-5.0891,-5.0891,-5.0891,-5.0891,-5.0891,-5.0891,-5.0891,-5.0891,-5.0891,-5.0891,-5.0891,-5.0863,-5.0564,-5.0303,-5.0091,-4.9544,-4.8771,-4.7935,-4.7403,-4.6544,-4.5439,-4.5348,-4.5345,-4.526,-4.5754,-4.6212,-4.6576,-4.7206,-4.7371,-4.6957,-4.6891,-4.6427,-4.55,-4.4372,-4.3436,-4.2916,-4.2254,-4.1818,-4.1621,-4.1588,-4.1588,-4.1588,-4.1588,-4.1588,-4.1588,-4.1557,-4.1588,-4.1588,-4.1588,-4.1573,-4.1588,-4.1588,-4.1588,-4.1588,-4.1557,-4.1588,-4.1573,-4.1588,-4.1588,-4.1588,-4.1541,-4.1588,-4.1588,-4.1588,-4.1573,-4.1557,-4.1557,-4.1588,-4.1588,-4.1588,-4.1588,-4.1588,-4.1588,-4.1588,-4.1588,-4.1588,-4.1588,-4.1588,-4.1588,-4.1588,-4.1588,-4.1588,-4.1588,-4.1415,-4.1178,-4.0972,-4.0893,-4.0783,-4.0482,-3.9945,-3.9708,-3.936,-3.8763,-3.8701,-3.8466,-3.7842,-3.725,-3.711,-3.7048,-3.6615,-3.632,-5.1294,-5.1899,-5.1944,-5.2295,-5.2892,-5.2937,-5.2885,-5.2822,-5.2225,-5.1856,-5.1698,-5.1154,-5.0891,-5.0891,-5.0891,-5.0891,-5.0891,-5.0891,-5.0891,-5.0891,-5.0891,-5.0891,-5.0891,-5.0891,-5.0891,-5.0891,-5.0863,-5.0846,-5.0715,-5.0144,-4.9714,-4.9372,-4.845,-4.7447,-4.6454,-4.5795,-4.5295,-4.5066,-4.4909,-4.5168,-4.5765,-4.646,-4.6874,-4.6874,-4.6891,-4.6825,-4.6527,-4.5241,-4.3922,-4.2793,-4.211,-4.1785,-4.1654,-4.1621,-4.1588,-4.1588,-4.1588,-4.1588,-4.1588,-4.1588,-4.1588,-4.1588,-4.1588,-4.1588,-4.1588,-4.1588,-4.1588,-4.1588,-4.1588,-4.1588,-4.1588,-4.1588,-4.1588,-4.1588,-4.1588,-4.1588,-4.1588,-4.1588,-4.1588,-4.1588,-4.1588,-4.1588,-4.1588,-4.1588,-4.1588,-4.1588,-4.1588,-4.1588,-4.1588,-4.1588,-4.1588,-4.1588,-4.1588,-4.1588,-4.1588,-4.1588,-4.1588,-4.1541,-4.143,-4.1367,-4.1304,-4.1225,-4.1162,-4.0656,-4.0245,-3.985,-3.955,-3.9424,-3.9156,-3.8622,-3.8151,-3.7854,-3.7496,-3.7108,-3.6768,-5.1013,-5.1171,-5.1189,-5.1312,-5.1487,-5.1487,-5.155,-5.1487,-5.1329,-5.1242,-5.1136,-5.0978,-5.0891,-5.0891,-5.0891,-5.0891,-5.0891,-5.0891,-5.0891,-5.0891,-5.0891,-5.0891,-5.0891,-5.0891,-5.0891,-5.0891,-5.0891,-5.0891,-5.0891,-5.0627,-5.0285,-4.9706,-4.9398,-4.8784,-4.7918,-4.6618,-4.5903,-4.5647,-4.5003,-4.4785,-4.5036,-4.5715,-4.6361,-4.6874,-4.6874,-4.6874,-4.6727,-4.5217,-4.3943,-4.3056,-4.2585,-4.2206,-4.198,-4.1753,-4.1621,-4.1588,-4.1588,-4.1588,-4.1588,-4.1588,-4.1588,-4.1588,-4.1588,-4.1588,-4.1588,-4.1588,-4.1588,-4.1588,-4.1588,-4.1588,-4.1588,-4.1588,-4.1588,-4.1588,-4.1588,-4.1588,-4.1588,-4.1588,-4.1588,-4.1588,-4.1588,-4.1588,-4.1588,-4.1588,-4.1588,-4.1588,-4.1588,-4.1588,-4.1588,-4.1588,-4.1588,-4.1588,-4.1588,-4.1588,-4.1588,-4.1588,-4.1588,-4.1588,-4.1557,-4.1525,-4.1494,-4.1462,-4.1446,-4.1272,-4.102,-4.0672,-4.0371,-4.018,-3.9752,-3.9371,-3.8883,-3.8489,-3.8159,-3.78,-3.7446,-5.0891,-5.0891,-5.0891,-5.0891,-5.0891,-5.0891,-5.0891,-5.0891,-5.0891,-5.0891,-5.0891,-5.0891,-5.0891,-5.0891,-5.0891,-5.0891,-5.0891,-5.0891,-5.0891,-5.0891,-5.0891,-5.0891,-5.0891,-5.0891,-5.0891,-5.0891,-5.0891,-5.0891,-5.0891,-5.0891,-5.061,-5.0311,-5.0215,-4.9705,-4.8747,-4.7944,-4.6764,-4.5937,-4.5207,-4.4797,-4.4354,-4.4953,-4.545,-4.598,-4.6212,-4.6427,-4.6263,-4.5676,-4.4826,-4.3753,-4.2984,-4.2476,-4.2142,-4.1948,-4.1737,-4.1621,-4.1588,-4.1588,-4.1588,-4.1588,-4.1588,-4.1588,-4.1588,-4.1588,-4.1588,-4.1588,-4.1588,-4.1588,-4.1588,-4.1588,-4.1588,-4.1588,-4.1588,-4.1588,-4.1588,-4.1588,-4.1588,-4.1588,-4.1588,-4.1588,-4.1588,-4.1588,-4.1588,-4.1588,-4.1588,-4.1588,-4.1588,-4.1588,-4.1588,-4.1588,-4.1588,-4.1588,-4.1588,-4.1588,-4.1588,-4.1588,-4.1588,-4.1588,-4.1588,-4.1588,-4.1588,-4.1588,-4.1573,-4.1557,-4.1573,-4.1494,-4.1081,-4.0795,-4.0582,-4.0167,-3.9613,-3.9137,-3.8835,-3.8415,-3.8077,-5.0891,-5.0891,-5.0891,-5.0891,-5.0891,-5.0891,-5.0891,-5.0891,-5.0891,-5.0891,-5.0891,-5.0891,-5.0891,-5.0891,-5.0891,-5.0891,-5.0891,-5.0891,-5.0891,-5.0891,-5.0891,-5.0891,-5.0891,-5.0891,-5.0891,-5.0891,-5.0891,-5.0891,-5.0891,-5.0891,-5.0891,-5.0785,-5.0803,-5.0342,-4.9522,-4.9077,-4.7853,-4.6402,-4.5703,-4.5093,-4.4449,-4.463,-4.4886,-4.5172,-4.5663,-4.5928,-4.603,-4.6147,-4.5904,-4.442,-4.3339,-4.2765,-4.2382,-4.2238,-4.1916,-4.1687,-4.1588,-4.1588,-4.1588,-4.1588,-4.1588,-4.1588,-4.1588,-4.1588,-4.1588,-4.1588,-4.1588,-4.1588,-4.1588,-4.1588,-4.1588,-4.1588,-4.1588,-4.1588,-4.1588,-4.1588,-4.1588,-4.1588,-4.1588,-4.1588,-4.1588,-4.1588,-4.1588,-4.1588,-4.1588,-4.1588,-4.1588,-4.1588,-4.1588,-4.1588,-4.1588,-4.1588,-4.1588,-4.1588,-4.1588,-4.1588,-4.1588,-4.1588,-4.1588,-4.1588,-4.1588,-4.1588,-4.1588,-4.1588,-4.1588,-4.1588,-4.1509,-4.1314,-4.1098,-4.0821,-4.0168,-3.9846,-3.9573,-3.9031,-3.8616,-5.0891,-5.0891,-5.0891,-5.0891,-5.0891,-5.0891,-5.0891,-5.0891,-5.0891,-5.0891,-5.0891,-5.0891,-5.0891,-5.0891,-5.0891,-5.0891,-5.0891,-5.0891,-5.0891,-5.0891,-5.0891,-5.0891,-5.0891,-5.0891,-5.0891,-5.0891,-5.0891,-5.0891,-5.0891,-5.0891,-5.0891,-5.0891,-5.0891,-5.0776,-5.0439,-4.9562,-4.8952,-4.8068,-4.6805,-4.5903,-4.5337,-4.4764,-4.4754,-4.5148,-4.5596,-4.5794,-4.5829,-4.593,-4.5833,-4.5311,-4.4516,-4.376,-4.3331,-4.2591,-4.206,-4.1783,-4.162,-4.1588,-4.1588,-4.1588,-4.1588,-4.1588,-4.1588,-4.1588,-4.1588,-4.1588,-4.1588,-4.1588,-4.1588,-4.1588,-4.1588,-4.1588,-4.1588,-4.1588,-4.1588,-4.1588,-4.1588,-4.1588,-4.1588,-4.1588,-4.1588,-4.1588,-4.1588,-4.1588,-4.1588,-4.1588,-4.1588,-4.1588,-4.1588,-4.1588,-4.1588,-4.1588,-4.1588,-4.1588,-4.1588,-4.1588,-4.1588,-4.1588,-4.1588,-4.1588,-4.1588,-4.1588,-4.1588,-4.1588,-4.1588,-4.1588,-4.1588,-4.1372,-4.1091,-4.0876,-4.0724,-4.0418,-4.0072,-3.9573,-3.9259,-5.0891,-5.0891,-5.0891,-5.0891,-5.0891,-5.0891,-5.0891,-5.0891,-5.0891,-5.0891,-5.0891,-5.0891,-5.0891,-5.0891,-5.0891,-5.0891,-5.0891,-5.0891,-5.0891,-5.0891,-5.0891,-5.0891,-5.0891,-5.0891,-5.0891,-5.0891,-5.0891,-5.0891,-5.0891,-5.0891,-5.0891,-5.0891,-5.0891,-5.0891,-5.0891,-5.02,-4.9659,-4.8997,-4.81,-4.712,-4.6122,-4.5535,-4.4976,-4.5286,-4.5614,-4.5827,-4.5634,-4.6197,-4.627,-4.6035,-4.5568,-4.4983,-4.438,-4.3444,-4.2735,-4.2393,-4.1797,-4.1653,-4.1588,-4.1588,-4.1588,-4.1588,-4.1588,-4.1588,-4.1588,-4.1588,-4.1588,-4.1588,-4.1588,-4.1588,-4.1588,-4.1588,-4.1588,-4.1588,-4.1588,-4.1588,-4.1588,-4.1588,-4.1588,-4.1588,-4.1588,-4.1588,-4.1588,-4.1588,-4.1588,-4.1588,-4.1588,-4.1588,-4.1588,-4.1588,-4.1588,-4.1588,-4.1588,-4.1588,-4.1588,-4.1588,-4.1588,-4.1588,-4.1588,-4.1588,-4.1588,-4.1588,-4.1588,-4.1588,-4.1588,-4.1588,-4.1555,-4.1305,-4.1171,-4.1107,-4.0956,-4.0783,-4.0588,-4.0217,-4.0007,-5.0891,-5.0891,-5.0891,-5.0891,-5.0891,-5.0891,-5.0891,-5.0891,-5.0891,-5.0891,-5.0891,-5.0891,-5.0891,-5.0891,-5.0891,-5.0891,-5.0891,-5.0891,-5.0891,-5.0891,-5.0891,-5.0891,-5.0891,-5.0891,-5.0891,-5.0891,-5.0891,-5.0891,-5.0891,-5.0891,-5.0891,-5.0891,-5.0891,-5.0891,-5.0891,-5.0855,-5.0395,-4.959,-4.9169,-4.8258,-4.6842,-4.6299,-4.5744,-4.5169,-4.5369,-4.5575,-4.5573,-4.6128,-4.669,-4.6494,-4.652,-4.621,-4.5522,-4.4512,-4.3622,-4.3214,-4.2309,-4.1843,-4.162,-4.1588,-4.1588,-4.1588,-4.1588,-4.1588,-4.1588,-4.1588,-4.1588,-4.1588,-4.1588,-4.1588,-4.1588,-4.1588,-4.1588,-4.1588,-4.1588,-4.1588,-4.1588,-4.1588,-4.1588,-4.1588,-4.1588,-4.1588,-4.1588,-4.1588,-4.1588,-4.1588,-4.1588,-4.1588,-4.1588,-4.1588,-4.1588,-4.1588,-4.1588,-4.1588,-4.1588,-4.1588,-4.1588,-4.1588,-4.1588,-4.1588,-4.1588,-4.1588,-4.1588,-4.1588,-4.1588,-4.1588,-4.1555,-4.139,-4.129,-4.129,-4.1171,-4.095,-4.0867,-4.0833,-4.0634,-5.0891,-5.0891,-5.0891,-5.0891,-5.0891,-5.0891,-5.0891,-5.0891,-5.0891,-5.0891,-5.0891,-5.0891,-5.0891,-5.0891,-5.0891,-5.0891,-5.0891,-5.0891,-5.0891,-5.0891,-5.0891,-5.0891,-5.0891,-5.0891,-5.0891,-5.0891,-5.0891,-5.0891,-5.0891,-5.0891,-5.0891,-5.0891,-5.0891,-5.0891,-5.0891,-5.0891,-5.0811,-5.0369,-4.9922,-4.902,-4.8111,-4.7028,-4.6086,-4.5174,-4.5285,-4.521,-4.5265,-4.5732,-4.6158,-4.617,-4.6669,-4.6821,-4.6439,-4.5346,-4.4367,-4.3605,-4.3051,-4.26,-4.2057,-4.175,-4.1637,-4.1588,-4.1588,-4.1588,-4.1588,-4.1588,-4.1588,-4.1588,-4.1588,-4.1588,-4.1588,-4.1588,-4.1588,-4.1588,-4.1588,-4.1588,-4.1588,-4.1588,-4.1588,-4.1588,-4.1588,-4.1588,-4.1588,-4.1588,-4.1588,-4.1588,-4.1588,-4.1588,-4.1588,-4.1588,-4.1588,-4.1588,-4.1588,-4.1588,-4.1588,-4.1588,-4.1588,-4.1588,-4.1588,-4.1588,-4.1588,-4.1588,-4.1588,-4.1588,-4.1588,-4.1588,-4.1522,-4.1423,-4.139,-4.1357,-4.1254,-4.1102,-4.1052,-4.0969,-4.0867,-5.0891,-5.0891,-5.0891,-5.0891,-5.0891,-5.0891,-5.0891,-5.0891,-5.0891,-5.0891,-5.0891,-5.0891,-5.0891,-5.0891,-5.0891,-5.0891,-5.0891,-5.0891,-5.0891,-5.0891,-5.0891,-5.0891,-5.0891,-5.0891,-5.0891,-5.0891,-5.0891,-5.0891,-5.0891,-5.0891,-5.0891,-5.0891,-5.0891,-5.0891,-5.0891,-5.0891,-5.0891,-5.0785,-5.0469,-4.989,-4.903,-4.7762,-4.6543,-4.5849,-4.5537,-4.5442,-4.5397,-4.5762,-4.5986,-4.6008,-4.6495,-4.6811,-4.6658,-4.6237,-4.5472,-4.4907,-4.4526,-4.4009,-4.3249,-4.2912,-4.2591,-4.2125,-4.1835,-4.1621,-4.1588,-4.1588,-4.1588,-4.1588,-4.1588,-4.1588,-4.1588,-4.1588,-4.1588,-4.1588,-4.1588,-4.1588,-4.1588,-4.1588,-4.1588,-4.1588,-4.1588,-4.1588,-4.1588,-4.1588,-4.1588,-4.1588,-4.1588,-4.1588,-4.1588,-4.1588,-4.1588,-4.1588,-4.1588,-4.1588,-4.1588,-4.1588,-4.1588,-4.1588,-4.1588,-4.1588,-4.1588,-4.1588,-4.1588,-4.1588,-4.1588,-4.1588,-4.1588,-4.1522,-4.1489,-4.1456,-4.1406,-4.1321,-4.1254,-4.1138,-4.1003,-5.0891,-5.0891,-5.0891,-5.0891,-5.0891,-5.0891,-5.0891,-5.0891,-5.0891,-5.0891,-5.0891,-5.0891,-5.0891,-5.0891,-5.0891,-5.0891,-5.0891,-5.0891,-5.0891,-5.0891,-5.0891,-5.0891,-5.0891,-5.0891,-5.0891,-5.0891,-5.0891,-5.0891,-5.0891,-5.0891,-5.0891,-5.0891,-5.0891,-5.0891,-5.0891,-5.0891,-5.0891,-5.0891,-5.0873,-5.0452,-4.9363,-4.8152,-4.7029,-4.6284,-4.6214,-4.6005,-4.5778,-4.5982,-4.6035,-4.6004,-4.6257,-4.6595,-4.6637,-4.6683,-4.6737,-4.6598,-4.627,-4.5537,-4.4649,-4.4264,-4.3595,-4.2898,-4.2238,-4.1916,-4.1737,-4.1737,-4.1588,-4.1588,-4.1588,-4.1588,-4.1588,-4.1588,-4.1588,-4.1588,-4.1588,-4.1588,-4.1588,-4.1588,-4.1588,-4.1588,-4.1588,-4.1588,-4.1588,-4.1588,-4.1588,-4.1588,-4.1588,-4.1588,-4.1588,-4.1588,-4.1588,-4.1588,-4.1588,-4.1588,-4.1588,-4.1588,-4.1588,-4.1588,-4.1588,-4.1588,-4.1588,-4.1588,-4.1588,-4.1588,-4.1588,-4.1588,-4.1588,-4.1588,-4.1555,-4.1522,-4.1588,-4.1522,-4.1439,-4.1272,-4.1138,-5.0891,-5.0891,-5.0891,-5.0891,-5.0891,-5.0891,-5.0891,-5.0891,-5.0891,-5.0891,-5.0891,-5.0891,-5.0891,-5.0891,-5.0891,-5.0891,-5.0891,-5.0891,-5.0891,-5.0891,-5.0891,-5.0891,-5.0891,-5.0891,-5.0891,-5.0891,-5.0891,-5.0891,-5.0891,-5.0891,-5.0891,-5.0891,-5.0891,-5.0891,-5.0891,-5.0891,-5.0891,-5.0891,-5.0891,-5.0224,-4.8942,-4.7941,-4.7116,-4.6495,-4.6214,-4.6172,-4.6073,-4.6147,-4.6122,-4.614,-4.6185,-4.628,-4.6368,-4.6955,-4.7151,-4.6973,-4.6419,-4.549,-4.4612,-4.4616,-4.4467,-4.3661,-4.2953,-4.263,-4.238,-4.19,-4.1621,-4.1588,-4.1588,-4.1687,-4.1687,-4.1621,-4.1621,-4.1654,-4.172,-4.1687,-4.1654,-4.1588,-4.1588,-4.1588,-4.1588,-4.1588,-4.1588,-4.1588,-4.1588,-4.1588,-4.1588,-4.1588,-4.1588,-4.1588,-4.1588,-4.1588,-4.1588,-4.1588,-4.1588,-4.1588,-4.1588,-4.1588,-4.1588,-4.1588,-4.1588,-4.1588,-4.1588,-4.1588,-4.1588,-4.1588,-4.1588,-4.1588,-4.1588,-4.1588,-4.1588,-4.1588,-4.1588,-4.1423,-4.1239,-5.0891,-5.0891,-5.0891,-5.0891,-5.0891,-5.0891,-5.0891,-5.0891,-5.0891,-5.0891,-5.0891,-5.0891,-5.0891,-5.0891,-5.0891,-5.0891,-5.0891,-5.0891,-5.0891,-5.0891,-5.0891,-5.0891,-5.0891,-5.0891,-5.0891,-5.0891,-5.0891,-5.0891,-5.0891,-5.0891,-5.0891,-5.0891,-5.0891,-5.0891,-5.0891,-5.0891,-5.0891,-5.0891,-5.082,-5.0311,-4.9311,-4.8433,-4.7661,-4.6906,-4.6442,-4.6249,-4.6214,-4.6214,-4.6214,-4.6214,-4.6214,-4.6214,-4.6249,-4.653,-4.6673,-4.665,-4.6838,-4.647,-4.5867,-4.5597,-4.5049,-4.4342,-4.3643,-4.3166,-4.2925,-4.2269,-4.1867,-4.2158,-4.1818,-4.1802,-4.1981,-4.1802,-4.2126,-4.2253,-4.2077,-4.2029,-4.1932,-4.1654,-4.1588,-4.1588,-4.1621,-4.1654,-4.1654,-4.1588,-4.1588,-4.1588,-4.1588,-4.1588,-4.1588,-4.1588,-4.1588,-4.1588,-4.1588,-4.1588,-4.1588,-4.1588,-4.1588,-4.1588,-4.1588,-4.1588,-4.1588,-4.1588,-4.1588,-4.1588,-4.1588,-4.1588,-4.1588,-4.1588,-4.1588,-4.1588,-4.1588,-4.1588,-4.1588,-4.1423,-4.1223,-5.0891,-5.0891,-5.0891,-5.0891,-5.0891,-5.0891,-5.0891,-5.0891,-5.0891,-5.0891,-5.0891,-5.0891,-5.0891,-5.0891,-5.0891,-5.0891,-5.0891,-5.0891,-5.0891,-5.0891,-5.0891,-5.0891,-5.0891,-5.0891,-5.0891,-5.0891,-5.0891,-5.0891,-5.0891,-5.0891,-5.0891,-5.0891,-5.0891,-5.0891,-5.0891,-5.0891,-5.0891,-5.0891,-5.0891,-5.0434,-4.9653,-4.8872,-4.8117,-4.738,-4.6713,-4.6214,-4.6214,-4.6214,-4.6214,-4.6214,-4.6214,-4.6214,-4.6232,-4.6284,-4.6319,-4.6382,-4.6652,-4.6776,-4.6465,-4.6243,-4.574,-4.5018,-4.4243,-4.3689,-4.3363,-4.2553,-4.219,-4.2818,-4.2506,-4.2506,-4.2569,-4.2364,-4.2647,-4.2785,-4.2709,-4.26,-4.2491,-4.2317,-4.1948,-4.1687,-4.172,-4.1785,-4.1753,-4.1621,-4.1588,-4.1588,-4.1588,-4.1588,-4.1588,-4.1588,-4.1588,-4.1588,-4.1588,-4.1588,-4.1588,-4.1588,-4.1588,-4.1588,-4.1588,-4.1588,-4.1588,-4.1588,-4.1588,-4.1588,-4.1588,-4.1588,-4.1588,-4.1588,-4.1588,-4.1588,-4.1588,-4.1588,-4.1555,-4.139,-4.1189,-5.0891,-5.0891,-5.0891,-5.0891,-5.0891,-5.0891,-5.0891,-5.0891,-5.0891,-5.0891,-5.0891,-5.0891,-5.0891,-5.0891,-5.0891,-5.0891,-5.0891,-5.0891,-5.0891,-5.0891,-5.0891,-5.0891,-5.0891,-5.0891,-5.0891,-5.0891,-5.0891,-5.0891,-5.0891,-5.0891,-5.0891,-5.0891,-5.0891,-5.0891,-5.0891,-5.0891,-5.0891,-5.0891,-5.0891,-5.0557,-4.9767,-4.8977,-4.8187,-4.7467,-4.6705,-4.6214,-4.6214,-4.6214,-4.6214,-4.6214,-4.6214,-4.6214,-4.6214,-4.6214,-4.6214,-4.6284,-4.6337,-4.6445,-4.6372,-4.6567,-4.6508,-4.5762,-4.4899,-4.4157,-4.3881,-4.3571,-4.3393,-4.338,-4.3152,-4.3243,-4.3363,-4.3393,-4.3273,-4.3512,-4.3423,-4.3139,-4.3078,-4.3122,-4.2693,-4.2045,-4.1932,-4.2206,-4.2238,-4.219,-4.1737,-4.1687,-4.1588,-4.1588,-4.1588,-4.1588,-4.1588,-4.1588,-4.1588,-4.1588,-4.1588,-4.1588,-4.1588,-4.1588,-4.1588,-4.1588,-4.1588,-4.1588,-4.1588,-4.1588,-4.1588,-4.1588,-4.1588,-4.1588,-4.1588,-4.1588,-4.1588,-4.1588,-4.1489,-4.1357,-4.1122,-5.0891,-5.0891,-5.0891,-5.0891,-5.0891,-5.0891,-5.0891,-5.0891,-5.0891,-5.0891,-5.0891,-5.0891,-5.0891,-5.0891,-5.0891,-5.0891,-5.0891,-5.0891,-5.0891,-5.0891,-5.0891,-5.0891,-5.0891,-5.0891,-5.0891,-5.0891,-5.0891,-5.0891,-5.0891,-5.0891,-5.0891,-5.0891,-5.0891,-5.0891,-5.0891,-5.0891,-5.0891,-5.0891,-5.0891,-5.068,-5.0311,-4.9153,-4.838,-4.8135,-4.674,-4.6284,-4.6214,-4.6214,-4.6214,-4.6214,-4.6214,-4.6214,-4.6214,-4.6214,-4.6214,-4.6214,-4.6214,-4.6214,-4.6189,-4.637,-4.6184,-4.5745,-4.4971,-4.4513,-4.444,-4.4026,-4.3881,-4.3823,-4.3794,-4.3748,-4.4071,-4.3823,-4.363,-4.414,-4.4169,-4.3794,-4.3676,-4.3718,-4.3423,-4.2709,-4.2802,-4.3031,-4.297,-4.2878,-4.2285,-4.1802,-4.1687,-4.1588,-4.1588,-4.1588,-4.1588,-4.1588,-4.1588,-4.1588,-4.1588,-4.1588,-4.1588,-4.1588,-4.1588,-4.1588,-4.1588,-4.1588,-4.1588,-4.1588,-4.1588,-4.1588,-4.1588,-4.1588,-4.1588,-4.1588,-4.1555,-4.1555,-4.1439,-4.1305,-4.1138,-5.1224,-5.1207,-5.0978,-5.0891,-5.0891,-5.0891,-5.0891,-5.0891,-5.0891,-5.0891,-5.0891,-5.0891,-5.0891,-5.0891,-5.0891,-5.0891,-5.0891,-5.0891,-5.0891,-5.0891,-5.0891,-5.0891,-5.0891,-5.0891,-5.0891,-5.0891,-5.0891,-5.0891,-5.0891,-5.0891,-5.0891,-5.0891,-5.0891,-5.0891,-5.0891,-5.0891,-5.0891,-5.0891,-5.0891,-5.0891,-5.0662,-4.9398,-4.8556,-4.831,-4.7004,-4.6284,-4.6214,-4.6214,-4.6214,-4.6214,-4.6214,-4.6214,-4.6214,-4.6214,-4.6214,-4.6214,-4.6214,-4.6214,-4.6172,-4.6073,-4.5914,-4.5641,-4.531,-4.5203,-4.5079,-4.4635,-4.458,-4.4642,-4.4356,-4.4226,-4.4742,-4.4485,-4.444,-4.4889,-4.4708,-4.4412,-4.4316,-4.4288,-4.3881,-4.3423,-4.3601,-4.3706,-4.3482,-4.3333,-4.3047,-4.2506,-4.2301,-4.2029,-4.1588,-4.1588,-4.1588,-4.1588,-4.1588,-4.1588,-4.1588,-4.1588,-4.1588,-4.1588,-4.1588,-4.1588,-4.1588,-4.1588,-4.1588,-4.1588,-4.1588,-4.1588,-4.1588,-4.1588,-4.1588,-4.1588,-4.1555,-4.1555,-4.139,-4.129,-4.1205,-5.1997,-5.1909,-5.1224,-5.0943,-5.0978,-5.0891,-5.0891,-5.0891,-5.0891,-5.0891,-5.0891,-5.0891,-5.0891,-5.0891,-5.0891,-5.0891,-5.0891,-5.0891,-5.0891,-5.0891,-5.0891,-5.0891,-5.0891,-5.0891,-5.0891,-5.0891,-5.0891,-5.0891,-5.0891,-5.0891,-5.0891,-5.0891,-5.0891,-5.0891,-5.0891,-5.0891,-5.0891,-5.0891,-5.0891,-5.0891,-5.0575,-4.9381,-4.8696,-4.824,-4.7021,-4.6232,-4.6214,-4.6214,-4.6214,-4.6214,-4.6214,-4.6214,-4.6214,-4.6214,-4.6214,-4.6214,-4.6214,-4.6214,-4.6189,-4.6073,-4.5947,-4.5821,-4.5546,-4.5572,-4.5589,-4.5441,-4.5283,-4.5247,-4.5167,-4.5177,-4.5327,-4.5318,-4.5318,-4.5247,-4.5069,-4.4988,-4.4852,-4.4824,-4.4412,-4.4197,-4.4271,-4.4288,-4.4013,-4.3764,-4.3647,-4.335,-4.3003,-4.2506,-4.1867,-4.1753,-4.1802,-4.1588,-4.1588,-4.1588,-4.1588,-4.1588,-4.1588,-4.1588,-4.1588,-4.1588,-4.1588,-4.1588,-4.1588,-4.1588,-4.1588,-4.1588,-4.1588,-4.1588,-4.1588,-4.1588,-4.1588,-4.1555,-4.139,-4.1323,-4.1305,-5.2786,-5.2716,-5.1961,-5.1628,-5.1558,-5.1084,-5.0891,-5.0891,-5.0891,-5.0891,-5.0891,-5.0891,-5.0891,-5.0891,-5.0891,-5.0891,-5.0891,-5.0891,-5.0891,-5.0891,-5.0891,-5.0891,-5.0891,-5.0891,-5.0891,-5.0891,-5.0891,-5.0891,-5.0891,-5.0891,-5.0891,-5.0891,-5.0891,-5.0891,-5.0891,-5.0891,-5.0891,-5.0891,-5.0891,-5.0855,-5.0697,-4.9451,-4.853,-4.846,-4.7021,-4.6249,-4.6214,-4.6214,-4.6214,-4.6214,-4.6214,-4.6214,-4.6214,-4.6214,-4.6214,-4.6214,-4.6214,-4.6214,-4.6214,-4.6165,-4.609,-4.5947,-4.5871,-4.5795,-4.5744,-4.5718,-4.571,-4.5658,-4.5581,-4.5537,-4.5511,-4.5406,-4.538,-4.5371,-4.5291,-4.5264,-4.5211,-4.522,-4.5096,-4.5042,-4.5059,-4.5005,-4.478,-4.4541,-4.4373,-4.4243,-4.3939,-4.2863,-4.2077,-4.2142,-4.2206,-4.1769,-4.1588,-4.1588,-4.1588,-4.1588,-4.1588,-4.1588,-4.1588,-4.1588,-4.1588,-4.1588,-4.1588,-4.1588,-4.1588,-4.1588,-4.1588,-4.1588,-4.1588,-4.1588,-4.1588,-4.1588,-4.1522,-4.1489,-4.1489,-5.3359,-5.3454,-5.2435,-5.2014,-5.1891,-5.1207,-5.0891,-5.0891,-5.0891,-5.0891,-5.0891,-5.0891,-5.0891,-5.0891,-5.0891,-5.0891,-5.0891,-5.0891,-5.0891,-5.0891,-5.0891,-5.0891,-5.0891,-5.0891,-5.0891,-5.0891,-5.0891,-5.0891,-5.0891,-5.0891,-5.0891,-5.0891,-5.0891,-5.0891,-5.0891,-5.0891,-5.0891,-5.0891,-5.0891,-5.0891,-5.0434,-4.9539,-4.8512,-4.8074,-4.7197,-4.6214,-4.6214,-4.6214,-4.6214,-4.6214,-4.6214,-4.6214,-4.6214,-4.6214,-4.6214,-4.6214,-4.6214,-4.6214,-4.6214,-4.6214,-4.614,-4.609,-4.599,-4.5922,-4.5897,-4.5871,-4.5821,-4.577,-4.5736,-4.5658,-4.5589,-4.5485,-4.545,-4.545,-4.5414,-4.5388,-4.5388,-4.5397,-4.5397,-4.5388,-4.5388,-4.5414,-4.5414,-4.5344,-4.514,-4.5015,-4.4889,-4.366,-4.2522,-4.2569,-4.2569,-4.2077,-4.1737,-4.1704,-4.1687,-4.1588,-4.1588,-4.1588,-4.1621,-4.1687,-4.1588,-4.1588,-4.1588,-4.1588,-4.1588,-4.1588,-4.1588,-4.1588,-4.1588,-4.1588,-4.1588,-4.1588,-4.1588,-4.1588,-4.1588,-5.3594,-5.3998,-5.2646,-5.2014,-5.1891,-5.1207,-5.0891,-5.0891,-5.0891,-5.0891,-5.0891,-5.0891,-5.0891,-5.0891,-5.0891,-5.0891,-5.0891,-5.0891,-5.0891,-5.0891,-5.0891,-5.0891,-5.0891,-5.0891,-5.0891,-5.0891,-5.0891,-5.0891,-5.0891,-5.0891,-5.0891,-5.0891,-5.0891,-5.0891,-5.0891,-5.0891,-5.0891,-5.0891,-5.0891,-5.0803,-5.0329,-4.9311,-4.8512,-4.7898,-4.7004,-4.6337,-4.6214,-4.6214,-4.6214,-4.6214,-4.6214,-4.6214,-4.6214,-4.6214,-4.6214,-4.6214,-4.6214,-4.6214,-4.6214,-4.6214,-4.6214,-4.6165,-4.6165,-4.6097,-4.6048,-4.5998,-4.5972,-4.5897,-4.5821,-4.5718,-4.5615,-4.5563,-4.5528,-4.5476,-4.5414,-4.5414,-4.5414,-4.5397,-4.5397,-4.5414,-4.5414,-4.5414,-4.5414,-4.5414,-4.5414,-4.5344,-4.514,-4.4735,-4.3689,-4.3125,-4.2972,-4.2349,-4.2045,-4.1884,-4.1867,-4.1964,-4.1867,-4.1964,-4.1883,-4.1883,-4.1753,-4.1687,-4.172,-4.1753,-4.1621,-4.1588,-4.1588,-4.1588,-4.1588,-4.1588,-4.1588,-4.1588,-4.1588,-4.1588,-4.1588,-5.3341,-5.3383,-5.2435,-5.2014,-5.1909,-5.1207,-5.0891,-5.0891,-5.0891,-5.0891,-5.0891,-5.0891,-5.0891,-5.0891,-5.0891,-5.0891,-5.0891,-5.0891,-5.0891,-5.0891,-5.0891,-5.0891,-5.0891,-5.0891,-5.0891,-5.0891,-5.0891,-5.0891,-5.0891,-5.0891,-5.0891,-5.0891,-5.0891,-5.0891,-5.0891,-5.0891,-5.0873,-5.082,-5.0785,-5.0522,-4.9995,-4.8995,-4.8345,-4.7573,-4.6793,-4.6284,-4.6214,-4.6214,-4.6214,-4.6214,-4.6214,-4.6214,-4.6214,-4.6214,-4.6214,-4.6214,-4.6214,-4.6214,-4.6214,-4.6214,-4.6214,-4.6214,-4.6214,-4.6196,-4.6147,-4.6122,-4.6097,-4.6023,-4.5947,-4.5871,-4.577,-4.5693,-4.5589,-4.5502,-4.545,-4.5441,-4.5441,-4.5414,-4.5414,-4.5414,-4.5414,-4.5414,-4.5414,-4.5414,-4.5414,-4.5414,-4.5318,-4.5069,-4.4708,-4.4042,-4.341,-4.2802,-4.2599,-4.2522,-4.26,-4.2694,-4.2491,-4.2349,-4.2317,-4.2174,-4.2013,-4.1948,-4.1964,-4.1932,-4.19,-4.1737,-4.1588,-4.1588,-4.1588,-4.1588,-4.1588,-4.1588,-4.1588,-4.1588,-4.1588,-5.2892,-5.3078,-5.2348,-5.1856,-5.1505,-5.1084,-5.0891,-5.0891,-5.0891,-5.0891,-5.0891,-5.0891,-5.0891,-5.0891,-5.0891,-5.0891,-5.0891,-5.0891,-5.0891,-5.0891,-5.0891,-5.0891,-5.0891,-5.0891,-5.0891,-5.0891,-5.0891,-5.0891,-5.0891,-5.0891,-5.0891,-5.0891,-5.0891,-5.0891,-5.0891,-5.0873,-5.0662,-5.0514,-5.032,-5.0083,-4.9469,-4.8644,-4.7871,-4.7327,-4.6607,-4.6284,-4.6214,-4.6214,-4.6214,-4.6214,-4.6214,-4.6214,-4.6214,-4.6214,-4.6214,-4.6214,-4.6214,-4.6214,-4.6214,-4.6214,-4.6214,-4.6214,-4.6214,-4.6196,-4.6196,-4.6189,-4.6189,-4.6165,-4.6097,-4.6005,-4.5905,-4.5795,-4.5641,-4.5502,-4.5476,-4.5476,-4.5441,-4.5414,-4.5414,-4.5414,-4.5414,-4.5414,-4.5414,-4.5414,-4.5414,-4.5414,-4.5414,-4.5318,-4.5015,-4.4586,-4.3927,-4.3273,-4.3257,-4.3287,-4.3333,-4.332,-4.3125,-4.2972,-4.2925,-4.2771,-4.2459,-4.2459,-4.2647,-4.249,-4.2221,-4.2077,-4.1867,-4.1654,-4.1588,-4.1588,-4.1588,-4.1588,-4.1588,-4.1588,-4.1588,-5.2277,-5.292,-5.2225,-5.1523,-5.0961,-5.0891,-5.0891,-5.0891,-5.0891,-5.0891,-5.0891,-5.0891,-5.0891,-5.0891,-5.0891,-5.0891,-5.0891,-5.0891,-5.0891,-5.0891,-5.0891,-5.0891,-5.0891,-5.0891,-5.0891,-5.0891,-5.0891,-5.0891,-5.0891,-5.0891,-5.0891,-5.0891,-5.0891,-5.0891,-5.0891,-5.0662,-5.0391,-4.996,-4.9556,-4.9205,-4.8977,-4.8205,-4.7345,-4.7134,-4.6635,-4.6214,-4.6214,-4.6214,-4.6214,-4.6214,-4.6214,-4.6214,-4.6214,-4.6214,-4.6214,-4.6214,-4.6214,-4.6214,-4.6214,-4.6214,-4.6214,-4.6214,-4.6214,-4.6214,-4.6214,-4.6214,-4.6214,-4.6214,-4.6147,-4.6073,-4.5972,-4.5897,-4.5795,-4.5641,-4.5581,-4.5528,-4.5502,-4.545,-4.5414,-4.5414,-4.5414,-4.5414,-4.5414,-4.5414,-4.5414,-4.5414,-4.5414,-4.5414,-4.5264,-4.4951,-4.4513,-4.3893,-4.4037,-4.4066,-4.3968,-4.391,-4.3706,-4.3588,-4.3588,-4.3363,-4.3061,-4.3183,-4.3406,-4.2939,-4.2412,-4.2396,-4.2222,-4.1867,-4.1588,-4.1588,-4.1588,-4.1588,-4.1588,-4.1588,-4.1588,-5.0724,-5.1435,-5.1242,-5.1049,-5.0891,-5.0891,-5.0891,-5.0891,-5.0891,-5.0918,-5.0891,-5.0918,-5.0891,-5.0891,-5.0945,-5.0945,-5.0891,-5.0891,-5.0891,-5.0891,-5.0891,-5.0891,-5.0891,-5.0891,-5.0891,-5.0891,-5.0891,-5.0891,-5.0891,-5.0891,-5.0891,-5.0891,-5.0891,-5.0873,-5.0733,-5.0426,-4.9899,-4.939,-4.8661,-4.8187,-4.7889,-4.7713,-4.7187,-4.6748,-4.6214,-4.6214,-4.6214,-4.6214,-4.6214,-4.6214,-4.6214,-4.6214,-4.6214,-4.6214,-4.6214,-4.6214,-4.6214,-4.6214,-4.6214,-4.6214,-4.6214,-4.6214,-4.6214,-4.6214,-4.6214,-4.6214,-4.6214,-4.6214,-4.6189,-4.6097,-4.6048,-4.5998,-4.5947,-4.5795,-4.5667,-4.5615,-4.5554,-4.5502,-4.5423,-4.5441,-4.5414,-4.5414,-4.5414,-4.5414,-4.5414,-4.5414,-4.5414,-4.5414,-4.5414,-4.5211,-4.5184,-4.478,-4.4917,-4.4961,-4.4708,-4.4513,-4.4299,-4.4243,-4.4259,-4.3968,-4.366,-4.3777,-4.3864,-4.3108,-4.2569,-4.26,-4.2396,-4.1818,-4.1621,-4.1588,-4.1588,-4.1588,-4.1588,-4.1588,-4.1588,-4.9434,-4.9872,-5.0224,-5.0373,-5.0417,-5.0715,-5.0891,-5.0918,-5.1025,-5.1088,-5.1061,-5.1079,-5.1025,-5.0972,-5.1008,-5.0972,-5.0918,-5.0891,-5.0891,-5.0891,-5.0891,-5.0891,-5.0891,-5.0891,-5.0891,-5.0891,-5.0891,-5.0891,-5.0891,-5.0891,-5.0891,-5.0891,-5.0873,-5.068,-5.0417,-4.9837,-4.9258,-4.8652,-4.7731,-4.7274,-4.6993,-4.6811,-4.673,-4.6267,-4.6214,-4.6214,-4.6214,-4.6214,-4.6214,-4.6214,-4.6214,-4.6214,-4.6214,-4.6214,-4.6214,-4.6214,-4.6214,-4.6214,-4.6214,-4.6214,-4.6214,-4.6214,-4.6214,-4.6214,-4.6214,-4.6214,-4.6214,-4.6214,-4.6214,-4.6165,-4.6122,-4.6097,-4.6023,-4.5897,-4.5846,-4.5795,-4.5693,-4.5589,-4.5554,-4.5528,-4.5476,-4.5414,-4.5414,-4.5414,-4.5414,-4.5414,-4.5414,-4.5414,-4.5414,-4.5414,-4.5414,-4.5414,-4.5414,-4.5414,-4.5167,-4.5015,-4.4917,-4.4906,-4.4824,-4.4752,-4.4541,-4.444,-4.4243,-4.3735,-4.3259,-4.2956,-4.2663,-4.1997,-4.1654,-4.1588,-4.1588,-4.1588,-4.1588,-4.1588,-4.1588,-4.8451,-4.8626,-4.9258,-4.9556,-4.9653,-5.0259,-5.0522,-5.0593,-5.0911,-5.1069,-5.1061,-5.1201,-5.1141,-5.1114,-5.1132,-5.1025,-5.0989,-5.0918,-5.0891,-5.0891,-5.0891,-5.0891,-5.0891,-5.0891,-5.0891,-5.0891,-5.0891,-5.0891,-5.0891,-5.0891,-5.0891,-5.0873,-5.0672,-5.0408,-4.9864,-4.9276,-4.8731,-4.7906,-4.7204,-4.6835,-4.6495,-4.6214,-4.6232,-4.6232,-4.6214,-4.6214,-4.6214,-4.6214,-4.6214,-4.6214,-4.6214,-4.6214,-4.6214,-4.6214,-4.6214,-4.6214,-4.6214,-4.6214,-4.6214,-4.6214,-4.6214,-4.6214,-4.6214,-4.6214,-4.6214,-4.6214,-4.6214,-4.6214,-4.6214,-4.6214,-4.6196,-4.6172,-4.6097,-4.6023,-4.5998,-4.5922,-4.5795,-4.5693,-4.5641,-4.5632,-4.5554,-4.5476,-4.5423,-4.5423,-4.5423,-4.5423,-4.5414,-4.5414,-4.5414,-4.5414,-4.5414,-4.5414,-4.5414,-4.5414,-4.5414,-4.5344,-4.522,-4.522,-4.5167,-4.5318,-4.5344,-4.5042,-4.4835,-4.4725,-4.4271,-4.3439,-4.2802,-4.2174,-4.19,-4.1588,-4.1588,-4.1588,-4.1588,-4.1588,-4.1588,-4.7977,-4.8512,-4.8749,-4.8802,-4.8863,-4.896,-4.896,-4.9082,-4.9741,-5.0013,-5.0251,-5.0955,-5.1272,-5.1202,-5.1008,-5.0918,-5.0918,-5.0891,-5.0891,-5.0891,-5.0891,-5.0891,-5.0891,-5.0891,-5.0891,-5.0891,-5.0891,-5.0891,-5.0891,-5.0891,-5.0891,-5.0891,-5.0136,-4.982,-4.9539,-4.8819,-4.7819,-4.7169,-4.6775,-4.6389,-4.6372,-4.6214,-4.6214,-4.6214,-4.6214,-4.6214,-4.6214,-4.6214,-4.6214,-4.6214,-4.6214,-4.6214,-4.6214,-4.6214,-4.6214,-4.6214,-4.6214,-4.6214,-4.6214,-4.6214,-4.6214,-4.6214,-4.6214,-4.6214,-4.6214,-4.6214,-4.6214,-4.6214,-4.6214,-4.6214,-4.6196,-4.6196,-4.6165,-4.6115,-4.609,-4.5972,-4.5846,-4.5795,-4.577,-4.5744,-4.5718,-4.5632,-4.5554,-4.5528,-4.5459,-4.545,-4.5414,-4.5414,-4.5414,-4.5414,-4.5414,-4.5414,-4.5414,-4.5414,-4.5414,-4.5414,-4.5344,-4.5371,-4.5414,-4.5414,-4.5414,-4.5414,-4.5264,-4.5059,-4.4299,-4.3393,-4.2802,-4.2317,-4.1867,-4.1588,-4.1588,-4.1588,-4.1588,-4.1588,-4.1588]},{"header":{"parameterUnit":"m.s-1","parameterCategory":1,"la1":31.0,"la2":29.5877,"lo1":-88.7671,"lo2":-86.6584,"dy":0.0162,"dx":0.0185,"nx":115,"ny":88,"refTime":"2023-06-30T00:00:00:Z","depth":0,"parameterNumber":3,"parameterNumberName":"V-component_of_WINDS"},"data":[0.0,0.0,0.0,0.0,0.0,0.0,0.0,0.0,0.0,0.0,0.0,0.0,0.0,0.0,0.0,0.0,0.0,0.0,0.0,0.0,0.0,0.0,0.0,0.0,0.0,0.0,0.0,0.0,0.0,0.0,0.0,0.0,0.0,0.0,0.0,0.0,0.0,0.0,0.0,0.0,0.0,0.0,0.0,0.0,0.0,0.0,0.0,0.0,0.0,0.0,0.0,0.0,0.0,0.0,0.0,0.0,0.0,0.0,0.0,0.0,0.0,0.0,0.0,0.0,0.0,0.0,0.0,0.0,0.0,0.0,0.0,0.0,0.0,0.0,0.0,0.0,0.0,0.0,0.0,0.0,0.0,0.0,0.0,0.0,0.0,0.0,0.0,0.0,0.0,0.0,0.0,0.0,0.0,0.0,0.0,0.0,0.0,0.0,0.0,0.0,0.0,0.0,0.0,0.0,0.0,0.0,0.0,0.0,0.0,0.0,0.0,0.0,0.0,0.0,0.0,0.0,0.0,0.0,0.0,0.0,0.0,0.0,0.0,0.0,0.0,0.0,0.0,0.0,0.0,0.0,0.0,0.0,0.0,0.0,0.0,0.0,0.0,0.0,0.0,0.0,0.0,0.0,0.0,0.0,0.0,0.0,0.0,0.0,0.0,0.0,0.0,0.0,0.0,0.0,0.0,0.0,0.0,0.0,0.0,0.0,0.0,0.0,0.0,0.0,0.0,0.0,0.0,0.0,0.0,0.0,0.0,0.0,0.0,0.0,0.0,0.0,0.0,0.0,0.0,0.0,0.0,0.0,0.0,0.0,0.0,0.0,0.0,0.0,0.0,0.0,0.0,0.0,0.0,0.0,0.0,0.0,0.0,0.0,0.0,0.0,0.0,0.0,0.0,0.0,0.0,0.0,0.0,0.0,0.0,0.0,0.0,0.0,0.0,0.0,0.0,0.0,0.0,0.0,0.0,0.0,0.0,0.0,0.0,0.0,0.0,0.0,0.0,0.0,0.0,0.0,0.0,0.0,0.0,0.0,0.0,0.0,0.0,0.0,0.0,0.0,0.0,0.0,0.0,0.0,0.0,0.0,0.0,0.0,0.0,0.0,0.0,0.0,0.0,0.0,0.0,0.0,0.0,0.0,0.0,0.0,0.0,0.0,0.0,0.0,0.0,0.0,0.0,0.0,0.0,0.0,0.0,0.0,0.0,0.0,0.0,0.0,0.0,0.0,0.0,0.0,0.0,0.0,0.0,0.0,0.0,0.0,0.0,0.0,0.0,0.0,0.0,0.0,0.0,0.0,0.0,0.0,0.0,0.0,0.0,0.0,0.0,0.0,0.0,0.0,0.0,0.0,0.0,0.0,0.0,0.0,0.0,0.0,0.0,0.0,0.0,0.0,0.0,0.0,0.0,0.0,0.0,0.0,0.0,0.0,0.0,0.0,0.0,0.0,0.0,0.0,0.0,0.0,0.0,0.0,0.0,0.0,0.0,0.0,0.0,0.0,0.0,0.0,0.0,0.0,0.0,0.0,0.0,0.0,0.0,0.0,0.0,0.0,0.0,0.0,0.0,0.0,0.0,0.0,0.0,0.0,0.0,0.0,0.0,0.0,0.0,0.0,0.0,0.0,0.0,0.0,0.0,0.0,0.0,0.0,0.0,0.0,0.0,0.0,0.0,0.0,0.0,0.0,0.0,0.0,0.0,0.0,0.0,0.0,0.0,0.0,0.0,0.0,0.0,0.0,0.0,0.0,0.0,0.0,0.0,0.0,0.0,0.0,0.0,0.0,0.0,0.0,0.0,0.0,0.0,0.0,0.0,0.0,0.0,0.0,0.0,0.0,0.0,0.0,0.0,0.0,0.0,0.0,0.0,0.0,0.0,0.0,0.0,0.0,0.0,0.0,0.0,0.0,0.0,0.0,0.0,0.0,0.0,0.0,0.0,0.0,0.0,0.0,0.0,0.0,0.0,0.0,0.0,0.0,0.0,0.0,0.0,0.0,0.0,0.0,0.0,0.0,0.0,0.0,0.0,0.0,0.0,0.0,0.0,0.0,0.0,0.0,0.0,0.0,0.0,0.0,0.0,0.0,0.0,0.0,0.0,0.0,0.0,0.0,0.0,0.0,0.0,0.0,0.0,0.0,0.0,0.0,0.0,0.0,0.0,0.0,0.0,0.0,0.0,0.0,0.0,0.0,0.0,0.0,0.0,0.0,0.0,0.0,0.0,0.0,0.0,0.0,0.0,0.0,0.0,0.0,0.0,0.0,0.0,0.0,0.0,0.0,0.0,0.0,0.0,0.0,0.0,0.0,0.0,0.0,0.0,0.0,0.0,0.0,0.0,0.0,0.0,0.0,0.0,0.0,0.0,0.0,0.0,0.0,0.0,0.0,0.0,0.0,0.0,0.0,0.0,0.0,0.0,0.0,0.0,0.0,0.0,0.0,0.0,0.0,0.0,0.0,0.0,0.0,0.0,0.0,0.0,0.0,0.0,0.0,0.0,0.0,0.0,0.0,0.0,0.0,0.0,0.0,0.0,0.0,0.0,0.0,0.0,0.0,0.0,0.0,0.0,0.0,0.0,0.0,0.0,0.0,0.0,0.0,0.0,0.0,0.0,0.0,0.0,0.0,0.0,0.0,0.0,0.0,0.0,0.0,0.0,0.0,0.0,0.0,0.0,0.0,0.0,0.0,0.0,0.0,0.0,0.0,0.0,0.0,0.0,0.0,0.0,0.0,0.0,0.0,0.0,0.0,0.0,0.0,0.0,0.0,0.0,0.0,0.0,0.0,0.0,0.0,0.0,0.0,0.0,0.0,0.0,0.0,0.0,0.0,0.0,0.0,0.0,0.0,0.0,0.0,0.0,0.0,0.0,0.0,0.0,0.0,0.0,0.0,0.0,0.0,0.0,0.0,0.0,0.0,0.0,0.0,0.0,0.0,0.0,0.0,0.0,0.0,0.0,0.0,0.0,0.0,0.0,0.0,0.0,0.0,0.0,0.0,0.0,0.0,0.0,0.0,0.0,0.0,0.0,0.0,0.0,0.0,0.0,0.0,0.0,0.0,0.0,0.0,0.0,0.0,0.0,0.0,0.0,0.0,0.0,0.0,0.0,0.0,0.0,0.0,0.0,0.0,0.0,0.0,0.0,0.0,0.0,0.0,0.0,0.0,0.0,0.0,0.0,0.0,0.0,0.0,0.0,0.0,0.0,0.0,0.0,0.0,0.0,0.0,0.0,0.0,0.0,0.0,0.0,0.0,0.0,0.0,0.0,0.0,0.0,0.0,0.0,0.0,0.0,0.0,0.0,0.0,0.0,0.0,0.0,0.0,0.0,0.0,0.0,0.0,0.0,0.0,0.0,0.0,0.0,0.0,0.0,0.0,0.0,0.0,0.0,0.0,0.0,0.0,0.0,0.0,0.0,0.0,0.0,0.0,0.0,0.0,0.0,0.0,0.0,0.0,0.0,0.0,0.0,0.0,0.0,0.0,0.0,0.0,0.0,0.0,0.0,0.0,0.0,0.0,0.0,0.0,0.0,0.0,0.0,0.0,0.0,0.0,0.0,0.0,0.0,0.0,0.0,0.0,0.0,0.0,0.0,0.0,0.0,0.0,0.0,0.0,0.0,0.0,0.0,0.0,0.0,0.0,0.0,0.0,0.0,0.0,0.0,0.0,0.0,0.0,0.0,0.0,0.0,0.0,0.0,0.0,0.0,0.0,0.0,0.0,0.0,0.0,0.0,0.0,0.0,0.0,0.0,0.0,0.0,0.0,0.0,0.0,0.0,0.0,0.0,0.0,0.0,0.0,0.0,0.0,0.0,0.0,0.0,0.0,0.0,0.0,0.0,0.0,0.0,0.0,0.0,0.0,0.0,0.0,0.0,0.0,0.0,0.0,0.0,0.0,0.0,0.0,0.0,0.0,0.0,0.0,0.0,0.0,0.0,0.0,0.0,0.0,0.0,0.0,0.0,0.0,0.0,0.0,0.0,0.0,0.0,0.0,0.0,0.0,0.0,0.0,0.0,0.0,0.0,0.0,0.0,0.0,0.0,0.0,0.0,0.0,0.0,0.0,0.0,0.0,0.0,0.0,0.0,0.0,0.0,0.0,0.0,0.0,0.0,0.0,0.0,0.0,0.0,0.0,0.0,0.0,0.0,0.0,0.0,0.0,0.0,0.0,0.0,0.0,0.0,0.0,0.0,0.0,0.0,0.0,0.0,0.0,0.0,0.0,0.0,0.0,0.0,0.0,0.0,0.0,0.0,0.0,0.0,0.0,-0.451,0.0,0.0,0.0,0.0,0.0,0.0,0.0,0.0,0.0,0.0,0.0,0.0,0.0,0.0,0.0,0.0,0.0,0.0,0.0,0.0,0.0,0.0,0.0,0.0,0.0,0.0,0.0,0.0,0.0,0.0,0.0,0.0,0.0,0.0,0.0,0.0,0.0,0.0,0.0,0.0,0.0,0.0,0.0,0.0,0.0,0.0,0.0,0.0,0.0,0.0,0.0,0.0,0.0,0.0,0.0,0.0,0.0,0.0,0.0,0.0,0.0,0.0,0.0,0.0,0.0,0.0,0.0,0.0,0.0,0.0,0.0,0.0,0.0,0.0,0.0,0.0,0.0,0.0,0.0,0.0,0.0,0.0,0.0,0.0,0.0,0.0,0.0,0.0,0.0,0.0,0.0,0.0,0.0,0.0,0.0,0.0,0.0,0.0,0.0,0.0,0.0,0.0,0.0,0.0,0.0,0.0,0.0,0.0,0.0,0.0,-0.5191,-0.5191,-0.5023,-0.4912,-0.4916,0.0,0.0,0.0,0.0,0.0,0.0,0.0,0.0,0.0,0.0,0.0,0.0,0.0,0.0,0.0,0.0,0.0,0.0,0.0,0.0,0.0,0.0,0.0,0.0,0.0,0.0,0.0,0.0,0.0,0.0,0.0,0.0,0.0,0.0,0.0,0.0,0.0,0.0,0.0,0.0,0.0,0.0,0.0,0.0,0.0,0.0,0.0,0.0,0.0,0.0,0.0,0.0,0.0,0.0,0.0,0.0,0.0,0.0,0.0,0.0,0.0,0.0,0.0,0.0,0.0,0.0,0.0,0.0,0.0,0.0,0.0,0.0,0.0,0.0,0.0,0.0,0.0,0.0,0.0,0.0,0.0,0.0,0.0,0.0,0.0,0.0,0.0,0.0,0.0,0.0,0.0,0.0,0.0,0.0,0.0,0.0,0.0,0.0,0.0,0.0,0.0,0.0,0.0,0.0,0.0,0.0,0.0,0.0,0.0,0.0,0.0,0.0,-0.5404,-0.5312,-0.5203,0.0,0.0,0.0,0.0,0.0,0.0,0.0,0.0,0.0,0.0,0.0,0.0,0.0,0.0,0.0,0.0,0.0,0.0,0.0,0.0,0.0,0.0,0.0,0.0,0.0,0.0,0.0,0.0,0.0,0.0,0.0,0.0,0.0,0.0,0.0,0.0,0.0,0.0,0.0,0.0,0.0,0.0,0.0,0.0,0.0,0.0,0.0,0.0,0.0,0.0,0.0,0.0,0.0,0.0,0.0,0.0,0.0,0.0,0.0,0.0,0.0,0.0,0.0,0.0,0.0,0.0,0.0,0.0,0.0,0.0,0.0,0.0,0.0,0.0,0.0,0.0,0.0,0.0,0.0,0.0,0.0,0.0,0.0,0.0,0.0,0.0,0.0,0.0,0.0,0.0,0.0,0.0,0.0,0.0,0.0,0.0,0.0,0.0,0.0,0.0,0.0,0.0,0.0,0.0,0.0,0.0,0.0,0.0,0.0,0.0,-0.6377,-0.6369,-0.6014,0.0,-0.5235,0.0,0.0,0.0,0.0,0.0,0.0,0.0,0.0,0.0,0.0,0.0,0.0,0.0,0.0,0.0,0.0,0.0,0.0,0.0,0.0,0.0,0.0,0.0,0.0,0.0,0.0,0.0,0.0,0.0,0.0,0.0,0.0,0.0,0.0,0.0,0.0,0.0,0.0,0.0,0.0,0.0,0.0,0.0,0.0,0.0,0.0,0.0,0.0,0.0,0.0,0.0,0.0,0.0,0.0,0.0,0.0,0.0,0.0,0.0,0.0,0.0,0.0,0.0,0.0,0.0,0.0,0.0,0.0,0.0,0.0,0.0,0.0,0.0,0.0,0.0,0.0,0.0,0.0,0.0,0.0,0.0,0.0,0.0,0.0,0.0,0.0,0.0,0.0,0.0,0.0,0.0,0.0,0.0,0.0,0.0,0.0,0.0,0.0,0.0,0.0,0.0,0.0,0.0,0.0,0.0,0.0,0.0,0.0,0.0,0.0,-0.6407,-0.6199,-0.6036,-0.5953,0.0,0.0,0.0,0.0,0.0,0.0,0.0,0.0,0.0,0.0,0.0,0.0,0.0,0.0,0.0,0.0,0.0,0.0,0.0,0.0,0.0,0.0,0.0,0.0,0.0,0.0,0.0,0.0,0.0,0.0,0.0,0.0,0.0,0.0,0.0,0.0,0.0,0.0,0.0,0.0,0.0,0.0,0.0,0.0,0.0,0.0,0.0,0.0,0.0,0.0,0.0,0.0,0.0,0.0,0.0,0.0,0.0,0.0,0.0,0.0,0.0,0.0,0.0,0.0,0.0,0.0,0.0,0.0,0.0,0.0,0.0,0.0,0.0,0.0,0.0,0.0,0.0,0.0,0.0,0.0,0.0,0.0,0.0,0.0,0.0,0.0,0.0,0.0,0.0,0.0,0.0,0.0,0.0,0.0,0.0,0.0,0.0,0.0,0.0,0.0,0.0,0.0,0.0,0.0,0.0,0.0,0.0,0.0,0.0,0.0,-0.6612,-0.6442,-0.6176,-0.6168,-0.6263,-0.6497,0.0,0.0,0.0,0.0,0.0,0.0,0.0,0.0,0.0,0.0,0.0,0.0,0.0,0.0,0.0,0.0,0.0,0.0,0.0,0.0,0.0,0.0,0.0,0.0,0.0,0.0,0.0,0.0,0.0,0.0,0.0,0.0,0.0,0.0,0.0,0.0,0.0,0.0,0.0,0.0,0.0,0.0,0.0,0.0,0.0,0.0,0.0,0.0,0.0,0.0,0.0,0.0,0.0,0.0,0.0,0.0,0.0,0.0,0.0,0.0,0.0,0.0,0.0,0.0,0.0,0.0,0.0,0.0,0.0,0.0,0.0,0.0,0.0,0.0,0.0,0.0,0.0,0.0,0.0,0.0,0.0,0.0,0.0,0.0,0.0,0.0,0.0,0.0,0.0,0.0,0.0,0.0,0.0,0.0,0.0,0.0,0.0,0.0,0.0,0.0,0.0,0.0,0.0,0.0,0.0,0.0,0.0,0.0,0.0,-0.679,-0.6725,-0.6577,-0.657,-0.6548,0.0,0.0,0.0,0.0,0.0,0.0,0.0,0.0,0.0,0.0,0.0,0.0,0.0,0.0,0.0,0.0,0.0,0.0,0.0,0.0,0.0,0.0,0.0,0.0,0.0,0.0,0.0,0.0,0.0,0.0,0.0,0.0,0.0,0.0,0.0,0.0,0.0,0.0,0.0,0.0,0.0,0.0,0.0,0.0,0.0,0.0,0.0,0.0,0.0,0.0,0.0,0.0,0.0,0.0,0.0,0.0,0.0,0.0,0.0,0.0,0.0,0.0,0.0,0.0,0.0,0.0,0.0,0.0,0.0,0.0,0.0,0.0,0.0,0.0,0.0,0.0,0.0,0.0,0.0,0.0,0.0,0.0,0.0,0.0,0.0,0.0,0.0,0.0,0.0,0.0,0.0,0.0,0.0,0.0,0.0,0.0,0.0,0.0,0.0,0.0,0.0,0.0,0.0,0.0,0.0,0.0,0.0,0.0,0.0,-0.7098,-0.6916,-0.6772,-0.6734,-0.648,-0.6457,0.0,0.0,0.0,0.0,0.0,0.0,0.0,0.0,0.0,0.0,0.0,0.0,0.0,0.0,0.0,0.0,0.0,0.0,0.0,0.0,0.0,0.0,0.0,0.0,0.0,0.0,0.0,0.0,0.0,0.0,0.0,0.0,0.0,0.0,0.0,0.0,0.0,0.0,0.0,0.0,0.0,0.0,0.0,0.0,0.0,0.0,0.0,0.0,0.0,0.0,0.0,0.0,0.0,0.0,0.0,0.0,0.0,0.0,0.0,0.0,0.0,0.0,0.0,0.0,0.0,0.0,0.0,0.0,0.0,0.0,0.0,0.0,0.0,0.0,0.0,0.0,0.0,0.0,0.0,0.0,0.0,0.0,0.0,0.0,0.0,0.0,0.0,0.0,0.0,0.0,0.0,0.0,0.0,0.0,0.0,0.0,0.0,0.0,0.0,0.0,0.0,0.0,0.0,0.0,0.0,0.0,0.0,0.0,0.0,-0.7483,0.0,-0.7081,0.0,-0.6695,-0.6627,0.0,0.0,0.0,0.0,0.0,0.0,0.0,0.0,0.0,0.0,0.0,0.0,0.0,0.0,0.0,0.0,0.0,0.0,0.0,0.0,0.0,0.0,0.0,0.0,0.0,0.0,0.0,0.0,0.0,0.0,0.0,0.0,0.0,0.0,0.0,0.0,0.0,0.0,0.0,0.0,0.0,0.0,0.0,0.0,0.0,0.0,0.0,0.0,0.0,0.0,0.0,0.0,0.0,0.0,0.0,0.0,0.0,0.0,0.0,0.0,0.0,0.0,0.0,0.0,0.0,0.0,0.0,0.0,0.0,0.0,0.0,0.0,0.0,0.0,0.0,0.0,0.0,0.0,0.0,0.0,0.0,0.0,0.0,0.0,0.0,0.0,0.0,0.0,0.0,0.0,0.0,0.0,0.0,0.0,0.0,0.0,0.0,0.0,0.0,0.0,0.0,0.0,0.0,0.0,0.0,0.0,0.0,0.0,-0.7619,-0.7894,-0.7911,-0.7714,-0.7346,-0.7303,-0.7132,0.0,0.0,0.0,0.0,0.0,0.0,0.0,0.0,0.0,0.0,0.0,0.0,0.0,0.0,0.0,0.0,0.0,0.0,0.0,0.0,0.0,0.0,0.0,0.0,0.0,0.0,0.0,0.0,0.0,0.0,0.0,0.0,0.0,0.0,0.0,0.0,0.0,0.0,0.0,0.0,0.0,0.0,0.0,0.0,0.0,0.0,0.0,0.0,0.0,0.0,0.0,0.0,0.0,0.0,0.0,0.0,0.0,0.0,0.0,0.0,0.0,0.0,0.0,0.0,0.0,0.0,0.0,0.0,0.0,0.0,0.0,0.0,0.0,0.0,0.0,0.0,0.0,0.0,0.0,0.0,0.0,0.0,0.0,0.0,0.0,0.0,0.0,0.0,0.0,0.0,0.0,0.0,0.0,0.0,0.0,0.0,0.0,0.0,0.0,0.0,0.0,0.0,0.0,0.0,0.0,0.0,0.0,0.0,0.0,-0.8809,-0.8538,-0.831,-0.8101,-0.7586,-0.7244,0.0,0.0,0.0,0.0,0.0,0.0,0.0,0.0,0.0,0.0,0.0,0.0,0.0,0.0,0.0,0.0,0.0,0.0,0.0,0.0,0.0,0.0,0.0,0.0,0.0,0.0,0.0,0.0,0.0,0.0,0.0,0.0,0.0,0.0,0.0,0.0,0.0,0.0,0.0,0.0,0.0,0.0,0.0,0.0,0.0,0.0,0.0,0.0,0.0,0.0,0.0,0.0,0.0,0.0,0.0,0.0,0.0,0.0,0.0,0.0,0.0,0.0,0.0,0.0,0.0,0.0,0.0,0.0,0.0,0.0,0.0,0.0,0.0,0.0,0.0,0.0,0.0,0.0,0.0,0.0,0.0,0.0,0.0,0.0,0.0,0.0,0.0,0.0,0.0,0.0,0.0,0.0,0.0,0.0,0.0,0.0,0.0,0.0,0.0,0.0,0.0,0.0,0.0,0.0,0.0,0.0,0.0,0.0,0.0,-1.049,-0.996,-0.957,-0.9328,-0.8671,-0.815,-0.7766,0.0,0.0,0.0,0.0,0.0,0.0,0.0,0.0,0.0,0.0,0.0,0.0,0.0,0.0,0.0,0.0,0.0,0.0,0.0,0.0,0.0,0.0,0.0,0.0,0.0,0.0,0.0,0.0,0.0,0.0,0.0,0.0,0.0,0.0,0.0,0.0,0.0,0.0,0.0,0.0,0.0,0.0,0.0,0.0,0.0,0.0,0.0,0.0,0.0,0.0,0.0,0.0,0.0,0.0,0.0,0.0,0.0,0.0,0.0,0.0,0.0,0.0,0.0,0.0,0.0,0.0,0.0,0.0,0.0,0.0,0.0,0.0,0.0,0.0,0.0,0.0,0.0,0.0,0.0,0.0,0.0,0.0,0.0,0.0,0.0,0.0,0.0,0.0,0.0,0.0,0.0,0.0,0.0,0.0,0.0,0.0,0.0,0.0,0.0,0.0,0.0,0.0,0.0,0.0,0.0,0.0,0.0,0.0,-1.2761,-1.2101,-1.1444,-1.0881,-1.0383,-0.9654,0.0,0.0,0.0,0.0,0.0,0.0,0.0,0.0,0.0,0.0,0.0,0.0,0.0,0.0,0.0,0.0,0.0,0.0,0.0,0.0,0.0,0.0,0.0,0.0,0.0,0.0,0.0,0.0,0.0,0.0,0.0,0.0,0.0,0.0,0.0,0.0,0.0,0.0,0.0,0.0,0.0,0.0,0.0,0.0,0.0,0.0,0.0,0.0,0.0,0.0,0.0,0.0,0.0,0.0,0.0,0.0,0.0,0.0,0.0,0.0,0.0,0.0,0.0,0.0,0.0,0.0,0.0,0.0,0.0,0.0,0.0,0.0,0.0,0.0,0.0,0.0,0.0,0.0,0.0,0.0,0.0,0.0,0.0,0.0,0.0,0.0,0.0,0.0,0.0,0.0,0.0,0.0,0.0,0.0,0.0,0.0,0.0,0.0,0.0,0.0,0.0,0.0,0.0,0.0,0.0,0.0,0.0,0.0,0.0,-1.3801,-1.4164,-1.3865,-1.2767,-1.1275,-1.0352,0.0,0.0,0.0,0.0,0.0,0.0,0.0,0.0,0.0,0.0,0.0,0.0,0.0,0.0,0.0,0.0,0.0,0.0,0.0,0.0,0.0,0.0,0.0,0.0,0.0,0.0,0.0,0.0,0.0,0.0,0.0,0.0,0.0,0.0,0.0,0.0,0.0,0.0,0.0,0.0,0.0,0.0,0.0,0.0,0.0,0.0,0.0,0.0,0.0,0.0,0.0,0.0,0.0,0.0,0.0,0.0,0.0,0.0,0.0,0.0,0.0,0.0,0.0,0.0,0.0,0.0,0.0,0.0,0.0,0.0,0.0,0.0,0.0,0.0,0.0,0.0,0.0,0.0,0.0,0.0,0.0,0.0,0.0,0.0,0.0,0.0,0.0,0.0,0.0,0.0,0.0,0.0,0.0,0.0,0.0,0.0,0.0,0.0,0.0,0.0,0.0,0.0,0.0,0.0,0.0,0.0,0.0,0.0,-1.4563,-1.537,-1.6384,-1.6427,-1.5427,-1.3041,-1.155,0.0,0.0,0.0,0.0,0.0,0.0,0.0,0.0,0.0,0.0,0.0,0.0,0.0,0.0,0.0,0.0,0.0,0.0,0.0,0.0,0.0,0.0,0.0,0.0,0.0,0.0,0.0,0.0,0.0,0.0,0.0,0.0,0.0,0.0,0.0,0.0,0.0,0.0,0.0,0.0,0.0,0.0,0.0,0.0,0.0,0.0,0.0,0.0,0.0,0.0,0.0,0.0,0.0,0.0,0.0,0.0,0.0,0.0,0.0,0.0,0.0,0.0,0.0,0.0,0.0,0.0,0.0,0.0,0.0,0.0,0.0,0.0,0.0,0.0,0.0,0.0,0.0,0.0,0.0,0.0,0.0,0.0,0.0,0.0,0.0,0.0,0.0,0.0,0.0,0.0,0.0,0.0,0.0,0.0,0.0,0.0,0.0,0.0,0.0,0.0,0.0,0.0,0.0,0.0,0.0,0.0,0.0,0.0,-1.6357,-1.7116,-1.8371,-1.87,-1.8045,-1.5175,-1.3039,0.0,0.0,0.0,0.0,0.0,0.0,0.0,0.0,0.0,0.0,0.0,0.0,0.0,0.0,0.0,0.0,0.0,0.0,0.0,0.0,0.0,0.0,0.0,0.0,0.0,0.0,0.0,0.0,0.0,0.0,0.0,0.0,0.0,0.0,0.0,0.0,0.0,0.0,0.0,0.0,0.0,0.0,0.0,0.0,0.0,0.0,0.0,0.0,0.0,0.0,0.0,0.0,0.0,0.0,0.0,0.0,0.0,0.0,0.0,0.0,0.0,0.0,0.0,0.0,0.0,0.0,0.0,0.0,0.0,0.0,0.0,0.0,0.0,0.0,0.0,0.0,0.0,0.0,0.0,0.0,0.0,0.0,0.0,0.0,0.0,0.0,0.0,0.0,0.0,0.0,0.0,0.0,0.0,0.0,0.0,0.0,0.0,0.0,0.0,0.0,0.0,0.0,0.0,0.0,0.0,0.0,0.0,0.0,-1.674,-1.7918,-1.8634,-1.8934,-1.879,-1.6168,-1.4189,0.0,0.0,0.0,0.0,0.0,0.0,0.0,0.0,0.0,0.0,0.0,0.0,0.0,0.0,0.0,0.0,0.0,0.0,0.0,0.0,0.0,0.0,0.0,0.0,0.0,0.0,0.0,0.0,0.0,0.0,0.0,0.0,0.0,0.0,0.0,0.0,0.0,0.0,0.0,0.0,0.0,0.0,0.0,0.0,0.0,0.0,0.0,0.0,-0.7137,0.0,0.0,0.0,0.0,0.0,0.0,0.0,0.0,0.0,0.0,0.0,0.0,0.0,0.0,0.0,0.0,0.0,0.0,0.0,0.0,0.0,0.0,0.0,0.0,0.0,0.0,0.0,0.0,0.0,0.0,0.0,0.0,0.0,0.0,0.0,0.0,0.0,0.0,0.0,0.0,0.0,0.0,0.0,0.0,0.0,0.0,0.0,0.0,0.0,0.0,0.0,0.0,0.0,0.0,0.0,0.0,0.0,0.0,0.0,-1.8445,-1.9807,-2.0435,-2.0463,-1.9883,-1.8193,-1.6298,0.0,0.0,0.0,0.0,0.0,0.0,0.0,0.0,0.0,0.0,0.0,0.0,0.0,0.0,0.0,0.0,0.0,0.0,0.0,0.0,0.0,0.0,0.0,0.0,0.0,0.0,0.0,0.0,0.0,0.0,0.0,0.0,0.0,0.0,0.0,0.0,0.0,0.0,0.0,0.0,0.0,0.0,0.0,0.0,0.0,0.0,0.0,0.0,0.0,0.0,0.0,0.0,0.0,0.0,0.0,0.0,0.0,0.0,0.0,0.0,0.0,0.0,0.0,0.0,0.0,0.0,0.0,0.0,0.0,0.0,0.0,0.0,0.0,0.0,0.0,0.0,0.0,0.0,0.0,0.0,0.0,0.0,0.0,0.0,0.0,0.0,0.0,0.0,0.0,0.0,0.0,0.0,0.0,0.0,0.0,0.0,0.0,0.0,0.0,0.0,0.0,0.0,0.0,0.0,0.0,0.0,0.0,-1.8572,-2.0281,-2.1796,-2.2421,-2.2184,-2.1096,-2.0222,-1.8438,-1.5507,0.0,0.0,0.0,0.0,0.0,0.0,0.0,0.0,0.0,0.0,0.0,0.0,0.0,0.0,0.0,0.0,0.0,0.0,0.0,0.0,0.0,0.0,0.0,0.0,0.0,0.0,0.0,0.0,0.0,0.0,0.0,0.0,0.0,0.0,0.0,0.0,0.0,0.0,-0.7877,-0.8229,0.0,0.0,0.0,0.0,0.0,0.0,0.0,0.0,-0.9404,0.0,0.0,0.0,0.0,0.0,0.0,0.0,0.0,0.0,0.0,0.0,0.0,0.0,0.0,0.0,0.0,0.0,0.0,0.0,0.0,0.0,0.0,0.0,0.0,0.0,0.0,0.0,0.0,0.0,0.0,0.0,0.0,0.0,0.0,0.0,0.0,0.0,0.0,0.0,0.0,0.0,0.0,0.0,0.0,0.0,0.0,0.0,0.0,0.0,0.0,0.0,0.0,0.0,0.0,0.0,0.0,-1.7798,-1.9051,-2.0618,-2.249,-2.2639,-2.2376,-2.1729,-2.0533,-1.8885,-1.6761,0.0,0.0,0.0,0.0,0.0,0.0,0.0,0.0,0.0,0.0,0.0,0.0,0.0,0.0,0.0,0.0,0.0,0.0,0.0,0.0,0.0,0.0,0.0,0.0,0.0,0.0,0.0,0.0,0.0,0.0,0.0,0.0,0.0,0.0,0.0,0.0,0.0,0.0,0.0,-0.918,-0.9881,0.0,0.0,0.0,0.0,0.0,0.0,0.0,0.0,-1.1107,0.0,0.0,0.0,0.0,0.0,0.0,0.0,0.0,0.0,0.0,0.0,0.0,0.0,0.0,0.0,0.0,0.0,0.0,0.0,0.0,0.0,0.0,0.0,0.0,0.0,0.0,0.0,0.0,0.0,0.0,0.0,0.0,0.0,0.0,0.0,0.0,0.0,0.0,0.0,0.0,0.0,0.0,0.0,0.0,0.0,0.0,0.0,0.0,0.0,0.0,0.0,0.0,0.0,0.0,0.0,-1.8506,-2.032,-2.2006,-2.3397,-2.3465,-2.3224,-2.2685,-2.1453,-1.9783,0.0,0.0,0.0,0.0,0.0,0.0,0.0,0.0,0.0,0.0,0.0,0.0,0.0,0.0,0.0,0.0,0.0,0.0,0.0,0.0,0.0,0.0,0.0,0.0,0.0,0.0,0.0,0.0,0.0,0.0,0.0,0.0,0.0,0.0,0.0,0.0,0.0,0.0,0.0,0.0,-1.09,-1.2001,-1.2573,0.0,0.0,0.0,0.0,0.0,0.0,-1.3111,-1.2589,0.0,0.0,0.0,0.0,0.0,0.0,0.0,0.0,0.0,0.0,0.0,0.0,0.0,0.0,0.0,0.0,0.0,0.0,0.0,0.0,0.0,0.0,0.0,0.0,0.0,0.0,0.0,0.0,0.0,0.0,0.0,0.0,0.0,0.0,0.0,0.0,0.0,0.0,0.0,0.0,0.0,0.0,0.0,0.0,0.0,0.0,0.0,0.0,0.0,0.0,0.0,0.0,0.0,0.0,0.0,-1.9206,-2.1523,-2.3167,-2.4143,-2.4189,-2.3959,-2.3407,-2.2172,-2.0495,0.0,0.0,0.0,0.0,0.0,0.0,0.0,0.0,0.0,0.0,0.0,0.0,0.0,0.0,0.0,0.0,0.0,0.0,0.0,0.0,0.0,0.0,0.0,0.0,0.0,0.0,0.0,0.0,0.0,0.0,0.0,0.0,0.0,0.0,0.0,0.0,0.0,0.0,0.0,0.0,0.0,-1.4085,-1.6134,-1.4228,0.0,0.0,0.0,0.0,-1.4646,-1.4544,0.0,0.0,0.0,0.0,0.0,0.0,0.0,0.0,0.0,0.0,0.0,0.0,0.0,0.0,0.0,0.0,0.0,0.0,0.0,0.0,0.0,0.0,0.0,0.0,0.0,0.0,0.0,0.0,0.0,0.0,0.0,0.0,0.0,0.0,0.0,0.0,0.0,0.0,0.0,0.0,0.0,0.0,0.0,0.0,0.0,0.0,0.0,0.0,0.0,0.0,0.0,0.0,0.0,0.0,0.0,0.0,-2.0205,-2.1847,-2.3167,-2.4131,-2.4189,-2.3959,-2.3407,-2.1853,-2.0315,0.0,0.0,0.0,0.0,0.0,0.0,0.0,0.0,0.0,0.0,0.0,0.0,0.0,0.0,0.0,0.0,0.0,0.0,0.0,0.0,0.0,0.0,0.0,0.0,0.0,0.0,0.0,0.0,0.0,0.0,0.0,0.0,0.0,0.0,0.0,0.0,0.0,0.0,0.0,0.0,0.0,-1.5831,-1.9495,-1.6191,-1.3515,0.0,0.0,-1.4863,-1.5384,-1.6205,0.0,0.0,0.0,0.0,0.0,0.0,0.0,0.0,0.0,0.0,0.0,0.0,0.0,0.0,0.0,0.0,0.0,0.0,0.0,0.0,0.0,0.0,0.0,0.0,0.0,0.0,0.0,0.0,0.0,0.0,0.0,0.0,0.0,0.0,0.0,0.0,0.0,0.0,0.0,0.0,0.0,0.0,0.0,0.0,0.0,0.0,0.0,0.0,0.0,0.0,0.0,0.0,0.0,0.0,0.0,-1.8954,-2.0423,-2.2478,-2.3752,-2.4177,-2.4189,-2.4097,-2.3831,-2.1944,-2.0468,0.0,0.0,0.0,0.0,0.0,0.0,0.0,0.0,0.0,0.0,0.0,0.0,0.0,0.0,0.0,0.0,0.0,0.0,0.0,0.0,0.0,0.0,0.0,0.0,0.0,0.0,0.0,0.0,0.0,0.0,0.0,0.0,0.0,0.0,0.0,0.0,0.0,0.0,0.0,0.0,0.0,0.0,-1.9333,-1.7185,0.0,0.0,0.0,-1.6716,-1.6337,0.0,0.0,0.0,0.0,0.0,0.0,0.0,0.0,0.0,0.0,0.0,0.0,0.0,0.0,0.0,0.0,0.0,0.0,0.0,0.0,0.0,0.0,0.0,0.0,0.0,0.0,0.0,0.0,0.0,0.0,0.0,0.0,0.0,0.0,0.0,0.0,0.0,0.0,0.0,0.0,0.0,0.0,0.0,0.0,0.0,0.0,0.0,0.0,0.0,0.0,0.0,0.0,0.0,0.0,0.0,0.0,0.0,-2.0618,-2.2972,-2.4189,-2.4189,-2.4189,-2.4189,-2.4166,-2.2354,0.0,0.0,0.0,0.0,0.0,0.0,0.0,0.0,0.0,0.0,0.0,0.0,0.0,0.0,0.0,0.0,0.0,0.0,0.0,0.0,0.0,0.0,0.0,0.0,0.0,0.0,0.0,-1.1382,0.0,0.0,0.0,0.0,0.0,0.0,0.0,0.0,0.0,0.0,0.0,0.0,0.0,0.0,-1.7186,-1.9124,-1.8062,-1.7147,0.0,0.0,-1.8223,-1.769,-1.8883,-1.8859,0.0,0.0,0.0,0.0,0.0,0.0,0.0,0.0,0.0,0.0,0.0,0.0,0.0,0.0,0.0,0.0,0.0,0.0,0.0,0.0,0.0,0.0,0.0,0.0,0.0,0.0,0.0,0.0,0.0,0.0,0.0,0.0,0.0,0.0,0.0,0.0,0.0,0.0,0.0,0.0,0.0,0.0,0.0,0.0,0.0,0.0,0.0,0.0,0.0,0.0,0.0,0.0,0.0,0.0,0.0,-2.1178,-2.3179,-2.4212,-2.42,-2.4189,-2.4189,-2.4177,-2.3133,-2.2033,0.0,0.0,0.0,0.0,0.0,0.0,0.0,0.0,0.0,0.0,0.0,0.0,0.0,0.0,0.0,0.0,0.0,0.0,0.0,0.0,0.0,0.0,0.0,0.0,0.0,0.0,0.0,0.0,0.0,0.0,0.0,0.0,0.0,0.0,0.0,0.0,0.0,0.0,0.0,0.0,0.0,-1.7739,-2.0161,-1.9012,-1.842,0.0,0.0,-1.879,-1.9651,-2.1055,-2.0849,-1.7159,0.0,0.0,0.0,0.0,0.0,0.0,0.0,0.0,0.0,0.0,0.0,0.0,0.0,0.0,0.0,0.0,0.0,0.0,0.0,0.0,0.0,0.0,0.0,0.0,0.0,0.0,0.0,0.0,0.0,0.0,0.0,0.0,0.0,0.0,0.0,0.0,0.0,0.0,0.0,0.0,0.0,0.0,0.0,0.0,0.0,0.0,0.0,0.0,0.0,0.0,0.0,0.0,0.0,-2.063,-2.164,-2.3615,-2.4786,-2.5096,-2.482,-2.4648,-2.4636,-2.3374,-2.2318,0.0,0.0,0.0,0.0,0.0,0.0,0.0,0.0,0.0,0.0,0.0,0.0,0.0,0.0,0.0,0.0,0.0,0.0,0.0,0.0,0.0,0.0,0.0,0.0,0.0,0.0,0.0,0.0,-1.5211,-1.5269,-1.5131,0.0,0.0,0.0,0.0,0.0,0.0,0.0,0.0,0.0,0.0,-1.8066,-2.0873,-1.9873,0.0,0.0,-1.957,-1.9586,-1.9848,-2.0686,-2.0457,-1.8012,-1.6995,0.0,0.0,0.0,0.0,0.0,0.0,0.0,0.0,0.0,0.0,0.0,0.0,0.0,0.0,0.0,0.0,0.0,0.0,0.0,0.0,0.0,0.0,0.0,0.0,0.0,0.0,0.0,0.0,0.0,0.0,0.0,0.0,0.0,0.0,0.0,0.0,0.0,0.0,0.0,0.0,0.0,0.0,0.0,0.0,0.0,0.0,0.0,0.0,0.0,0.0,0.0,0.0,-2.1135,-2.2157,-2.4131,-2.5299,-2.5704,-2.5348,-2.5142,-2.5119,-2.3982,-2.3052,0.0,0.0,0.0,0.0,0.0,0.0,0.0,0.0,0.0,0.0,0.0,0.0,0.0,0.0,0.0,0.0,0.0,0.0,0.0,0.0,0.0,0.0,0.0,0.0,0.0,0.0,0.0,0.0,-1.5946,-1.5923,-1.5406,0.0,0.0,0.0,0.0,0.0,0.0,0.0,0.0,0.0,0.0,-1.856,-2.0766,-2.017,-1.9469,-1.9497,-1.9674,-1.9808,-1.9813,-2.0207,-2.0093,-1.8754,0.0,0.0,0.0,0.0,0.0,0.0,0.0,0.0,0.0,0.0,0.0,0.0,0.0,0.0,0.0,0.0,0.0,0.0,0.0,0.0,0.0,0.0,0.0,0.0,0.0,0.0,0.0,0.0,0.0,0.0,-1.0174,0.0,0.0,0.0,0.0,0.0,0.0,0.0,0.0,0.0,0.0,0.0,0.0,0.0,0.0,0.0,0.0,0.0,0.0,0.0,0.0,0.0,0.0,0.0,-2.2673,-2.4659,-2.5704,-2.5739,-2.5716,-2.5704,-2.5681,-2.5153,-2.4359,-2.3373,0.0,0.0,0.0,0.0,0.0,0.0,0.0,0.0,0.0,0.0,0.0,0.0,0.0,0.0,0.0,0.0,0.0,0.0,0.0,0.0,0.0,0.0,0.0,0.0,0.0,0.0,-1.5154,-1.5991,-1.6369,0.0,0.0,0.0,0.0,0.0,0.0,0.0,0.0,0.0,0.0,-1.7007,-1.9347,-1.9713,-1.9824,-1.9843,-1.9878,-1.946,-1.9284,-1.9736,-1.9949,-1.9953,0.0,0.0,0.0,0.0,0.0,0.0,0.0,0.0,0.0,0.0,0.0,0.0,0.0,0.0,0.0,0.0,0.0,0.0,0.0,0.0,0.0,0.0,0.0,0.0,0.0,0.0,0.0,-1.336,-1.3048,0.0,0.0,0.0,0.0,0.0,0.0,0.0,0.0,0.0,0.0,0.0,-1.7944,-1.8029,0.0,0.0,0.0,0.0,0.0,0.0,0.0,0.0,0.0,0.0,0.0,0.0,-2.218,-2.3189,-2.5187,-2.6381,-2.6663,-2.6381,-2.6249,-2.6249,-2.5716,-2.482,-2.3442,0.0,0.0,0.0,0.0,0.0,0.0,0.0,0.0,0.0,0.0,0.0,0.0,0.0,0.0,0.0,0.0,0.0,0.0,0.0,0.0,0.0,0.0,0.0,0.0,0.0,-1.5763,0.0,0.0,0.0,0.0,0.0,0.0,0.0,0.0,0.0,0.0,0.0,-1.6317,-1.6652,-1.7724,-1.8797,-1.9603,-1.9437,-1.9477,0.0,0.0,0.0,0.0,0.0,0.0,0.0,0.0,0.0,0.0,0.0,0.0,0.0,0.0,-1.6591,-1.5488,-1.5868,-1.6322,-1.6308,0.0,0.0,0.0,0.0,0.0,0.0,0.0,0.0,0.0,0.0,0.0,0.0,0.0,0.0,0.0,0.0,-1.4496,0.0,0.0,0.0,0.0,0.0,0.0,0.0,0.0,-1.895,-2.0056,-2.0508,-2.0572,-2.078,0.0,-2.1076,-2.0209,0.0,0.0,0.0,0.0,0.0,0.0,0.0,0.0,-2.2846,-2.3717,-2.5704,-2.6887,-2.7156,-2.6909,-2.6737,-2.6766,-2.6232,-2.5429,-2.4233,-2.3408,-2.218,0.0,0.0,0.0,0.0,0.0,0.0,0.0,0.0,0.0,0.0,0.0,0.0,0.0,0.0,0.0,0.0,0.0,0.0,0.0,0.0,0.0,0.0,0.0,-1.6625,0.0,0.0,0.0,0.0,0.0,0.0,0.0,0.0,0.0,-1.6476,-1.6991,-1.7447,-1.7573,-1.8501,-1.9183,-1.9132,0.0,0.0,0.0,0.0,0.0,0.0,0.0,-1.8313,-1.8712,-1.9505,-2.0092,-2.0193,-1.9748,-1.962,-2.0374,0.0,0.0,-1.8751,-1.8991,-1.9382,-1.92,-1.9178,-1.9157,-1.9143,-1.9164,-1.9143,0.0,0.0,0.0,0.0,0.0,0.0,0.0,0.0,-1.6237,-1.6175,0.0,-1.577,0.0,0.0,0.0,0.0,0.0,-1.8096,0.0,0.0,-2.2345,-2.384,-2.3276,-2.3371,-2.3717,-2.4154,-2.3259,-2.28,-2.2776,-2.2306,0.0,0.0,0.0,0.0,0.0,0.0,-2.3682,-2.4292,-2.6209,-2.719,-2.719,-2.7179,-2.7179,-2.7167,-2.6737,-2.6244,-2.5716,-2.4301,-2.3476,-2.335,-2.0641,0.0,0.0,0.0,0.0,0.0,0.0,0.0,0.0,0.0,0.0,0.0,0.0,0.0,0.0,0.0,0.0,0.0,0.0,0.0,0.0,-1.7415,0.0,0.0,0.0,0.0,0.0,0.0,0.0,0.0,0.0,0.0,-1.7648,-1.8322,-1.838,-1.6931,0.0,0.0,0.0,0.0,-1.9842,-1.8478,-1.7897,-1.7691,-1.776,-1.833,-1.9171,-2.0377,0.0,0.0,-2.2971,-2.2115,-2.1707,-2.2724,-2.3025,-2.2588,-2.0988,-2.1173,-2.1308,-2.0793,-2.0737,-2.0625,-2.0639,-2.0906,-2.085,-1.8839,0.0,0.0,0.0,0.0,-1.747,-1.789,-1.8623,-1.8614,-1.8446,-1.8163,-1.8078,0.0,0.0,0.0,0.0,0.0,0.0,-2.0514,-2.1161,-2.3331,-2.4581,-2.4974,-2.5024,-2.5142,-2.5268,-2.5375,-2.5421,-2.5421,-2.5601,-2.4244,-2.1537,0.0,0.0,0.0,0.0,-2.4407,-2.5302,-2.6577,-2.719,-2.719,-2.719,-2.719,-2.719,-2.7093,-2.676,-2.6306,-2.5819,-2.4923,-2.3465,-2.257,0.0,0.0,0.0,0.0,0.0,0.0,0.0,0.0,0.0,0.0,0.0,0.0,0.0,0.0,0.0,0.0,0.0,0.0,0.0,-1.7848,-1.8242,-1.8258,0.0,0.0,0.0,0.0,0.0,0.0,0.0,0.0,0.0,-2.0074,-1.9711,-1.931,0.0,0.0,-2.0423,-2.1261,-2.0538,-1.9998,-2.0262,0.0,0.0,0.0,-2.0014,-2.0057,-2.0515,-2.2097,-2.3592,-2.4438,-2.4515,-2.4739,-2.5437,-2.5449,-2.5288,-2.5287,-2.4864,-2.4531,-2.4348,-2.432,-2.4474,-2.4868,-2.4966,-2.5064,-2.0966,-2.0125,-1.8943,-1.8622,-1.8849,-1.8788,-1.9156,-1.9823,-1.9823,-1.977,-1.9643,-1.9571,-1.9159,-1.8506,-1.8468,0.0,0.0,0.0,-2.1745,-2.2576,-2.415,-2.5317,-2.5991,-2.6014,-2.6117,-2.6324,-2.6622,-2.6772,-2.6772,-2.6875,-2.5853,-2.3775,0.0,0.0,-2.3305,-2.4292,-2.5096,-2.5727,-2.6674,-2.719,-2.719,-2.719,-2.719,-2.719,-2.719,-2.7082,-2.6783,-2.6605,-2.595,-2.4694,-2.3831,-2.2719,0.0,0.0,0.0,0.0,0.0,0.0,0.0,0.0,0.0,0.0,0.0,-1.6795,0.0,0.0,0.0,0.0,-1.8361,-1.8793,-1.9298,-1.9436,0.0,0.0,0.0,0.0,0.0,0.0,0.0,-1.9787,-2.0331,-2.0974,-2.1684,-2.1282,-2.0753,-2.0362,-2.0791,-2.1686,-2.3087,0.0,-2.1548,-2.1776,-2.1293,-2.1078,-2.1696,-2.1858,-2.2063,-2.2545,-2.4049,-2.5303,-2.5828,-2.6343,-2.6762,-2.696,-2.6731,-2.6631,-2.7099,-2.6757,-2.6483,-2.661,-2.6638,-2.6778,-2.7144,-2.72,-2.7326,-2.276,-2.2382,-2.0413,-1.9693,-1.9805,-1.9814,-2.0039,-2.0425,-2.04,-2.051,-2.068,-2.051,-2.0292,-2.0058,-1.9714,0.0,-2.0159,-2.186,-2.2876,-2.337,-2.5059,-2.6108,-2.6674,-2.6697,-2.6887,-2.7316,-2.7305,-2.7305,-2.7293,-2.6887,-2.6685,-2.6662,-2.6175,-2.5429,-2.4476,-2.5302,-2.5796,-2.5842,-2.672,-2.719,-2.719,-2.719,-2.719,-2.719,-2.719,-2.719,-2.7179,-2.6772,-2.6547,-2.6455,-2.4682,-2.3591,-2.3407,0.0,0.0,0.0,0.0,0.0,0.0,0.0,0.0,0.0,0.0,0.0,0.0,0.0,0.0,0.0,-1.9941,0.0,-2.1213,-2.0802,0.0,0.0,0.0,-2.0664,-2.1201,-2.1328,-2.1374,-2.1374,0.0,0.0,-2.2765,0.0,-2.2581,-2.1707,-2.2685,-2.3648,-2.42,-2.4212,-2.3913,-2.3006,-2.2937,-2.2949,-2.3041,-2.3661,-2.443,-2.526,-2.6661,-2.7152,-2.7032,-2.7559,-2.7828,-2.7694,-2.7278,-2.7091,-2.7415,-2.7602,-2.7612,-2.8068,-2.7918,-2.7748,-2.7862,-2.7876,-2.7918,-2.316,-2.3183,-2.24,-2.1953,-2.1815,-2.1815,-2.1961,-2.2235,-2.206,-2.2097,-2.2327,-2.2281,-2.2053,-2.1696,-2.1649,-2.1658,-2.1813,-2.322,-2.4329,-2.5205,-2.6336,-2.7325,-2.8161,-2.8161,-2.823,-2.8344,-2.8344,-2.8344,-2.8344,-2.823,-2.8172,-2.8161,-2.8046,-2.73,-2.6019,-2.6214,-2.6473,-2.6823,-2.7064,-2.719,-2.719,-2.719,-2.719,-2.719,-2.719,-2.719,-2.719,-2.7075,-2.6864,-2.6524,-2.6042,-2.521,-2.4062,-2.2352,0.0,0.0,0.0,0.0,0.0,0.0,0.0,0.0,0.0,-1.7939,-1.7928,0.0,-1.939,0.0,-2.0974,-2.1617,-2.1699,-2.1608,0.0,0.0,-2.1086,-2.1213,-2.1697,-2.2399,-2.2869,-2.2869,-2.3557,-2.4108,-2.4349,-2.4384,-2.4545,-2.4923,-2.4418,-2.4246,-2.4855,-2.4832,-2.4671,-2.4464,-2.4705,-2.4992,-2.4981,-2.5176,-2.544,-2.567,-2.6306,-2.6726,-2.6669,-2.7541,-2.8216,-2.818,-2.8676,-2.9161,-2.9508,-2.9841,-3.0109,-3.0395,-2.9141,-2.796,-2.8396,-2.8493,-2.8619,-2.3734,-2.3767,-2.366,-2.3471,-2.3169,-2.2823,-2.2762,-2.2913,-2.2715,-2.2762,-2.2913,-2.2913,-2.2776,-2.2556,-2.2556,-2.2565,-2.2667,-2.4231,-2.527,-2.5858,-2.7216,-2.817,-2.8689,-2.8689,-2.8689,-2.8689,-2.8689,-2.8689,-2.8689,-2.8689,-2.8689,-2.8689,-2.8689,-2.8287,-2.7495,-2.7461,-2.7598,-2.7874,-2.7679,-2.7461,-2.7201,-2.719,-2.7087,-2.6898,-2.6887,-2.6668,-2.6221,-2.6158,-2.5968,-2.5486,-2.5233,-2.474,-2.3854,-2.2421,-2.1342,0.0,0.0,0.0,0.0,0.0,0.0,0.0,0.0,0.0,0.0,0.0,-2.0561,0.0,-2.1801,-2.226,-2.226,-2.226,-2.2329,-2.2523,-2.2546,-2.28,-2.3499,-2.4072,-2.4427,-2.4427,-2.4897,-2.5348,-2.5566,-2.5612,-2.5865,-2.6525,-2.6026,-2.5681,-2.6003,-2.6003,-2.5906,-2.5929,-2.6198,-2.6342,-2.6393,-2.6381,-2.6353,-2.6421,-2.6882,-2.7171,-2.6898,-2.7621,-2.8262,-2.833,-2.8902,-2.9631,-3.0248,-3.0658,-3.1009,-3.1203,-3.0417,-2.9704,-2.9869,-2.994,-3.0066,-2.4351,-2.4193,-2.4403,-2.4403,-2.4088,-2.3399,-2.3083,-2.3046,-2.3037,-2.3058,-2.3059,-2.3014,-2.2986,-2.2986,-2.2986,-2.2977,-2.3071,-2.4927,-2.5853,-2.6069,-2.7844,-2.8765,-2.8896,-2.8896,-2.8896,-2.8896,-2.8896,-2.8896,-2.8896,-2.8896,-2.8884,-2.8884,-2.8896,-2.8896,-2.8896,-2.8896,-2.8827,-2.8689,-2.823,-2.777,-2.7305,-2.7265,-2.6978,-2.6536,-2.6501,-2.6014,-2.5084,-2.5015,-2.4786,-2.4303,-2.3831,-2.3625,-2.3671,-2.2283,-2.1535,0.0,-2.0695,0.0,0.0,0.0,0.0,0.0,0.0,0.0,0.0,-2.1123,-2.1696,-2.2146,-2.2673,-2.3029,-2.3052,-2.3064,-2.342,-2.4269,-2.4395,-2.474,-2.5589,-2.5761,-2.5807,-2.5807,-2.5865,-2.6083,-2.6473,-2.6605,-2.6749,-2.7052,-2.7075,-2.7007,-2.7156,-2.7098,-2.7064,-2.719,-2.719,-2.7064,-2.7098,-2.7133,-2.7133,-2.7226,-2.7666,-2.7978,-2.7487,-2.7999,-2.8473,-2.8559,-2.9055,-2.9626,-3.0408,-3.0863,-3.1205,-3.1626,-3.1596,-3.1489,-3.1387,-3.1316,-3.1485,-2.4298,-2.4395,-2.4456,-2.4456,-2.442,-2.4241,-2.3999,-2.3705,-2.3705,-2.3777,-2.3914,-2.3526,-2.3389,-2.338,-2.3389,-2.338,-2.3494,-2.5006,-2.6194,-2.6978,-2.8153,-2.9149,-2.9884,-2.9929,-2.9929,-2.9929,-2.9929,-2.9929,-2.9917,-2.9917,-2.9929,-2.9929,-2.9929,-2.9929,-2.9929,0.0,0.0,0.0,-2.823,-2.7973,-2.7828,-2.7438,-2.699,-2.6524,-2.6501,0.0,-2.5601,-2.5528,-2.5325,-2.482,-2.4645,0.0,0.0,0.0,0.0,0.0,0.0,0.0,0.0,0.0,0.0,0.0,-2.2593,-2.2399,-2.1711,-2.2444,-2.3189,-2.3718,-2.4212,-2.4671,-2.5096,-2.5142,-2.5222,-2.5394,-2.5429,-2.5509,-2.5716,-2.6071,-2.6363,-2.6363,-2.668,-2.6926,-2.7036,-2.7082,-2.7075,-2.7156,-2.719,-2.719,-2.719,-2.719,-2.719,-2.719,-2.719,-2.719,-2.719,-2.719,-2.719,-2.7272,-2.7748,-2.8179,-2.8291,-2.8954,-2.9591,-2.9606,-3.0459,-3.1037,-3.1342,-3.1645,-3.1971,-3.238,-3.245,-3.2257,-3.1643,-3.1499,-3.1485,-2.4501,0.0,-2.4663,-2.4663,0.0,-2.4663,-2.4383,-2.407,-2.4148,-2.4148,-2.4043,-2.3836,-2.3678,-2.3644,-2.3644,-2.3978,-2.4619,-2.5353,-2.6254,-2.7237,-2.7709,-2.8481,-2.9463,-2.9463,-2.9703,-3.0216,-3.0216,-3.0216,-3.0216,-3.0216,-3.0216,-3.0216,-3.0216,-3.0216,-3.0216,-3.0216,-2.9848,-2.9102,-2.8861,-2.8609,-2.8333,-2.8092,-2.7587,-2.6887,0.0,0.0,0.0,0.0,0.0,0.0,0.0,0.0,0.0,0.0,0.0,-2.4499,-2.3844,-2.3534,-2.3764,-2.3787,-2.3902,-2.4154,-2.4418,-2.4198,-2.3419,-2.4084,-2.4671,-2.4923,-2.5164,-2.5417,-2.5681,-2.5716,-2.5807,-2.6048,-2.6083,-2.6163,-2.6439,-2.668,-2.6841,-2.6852,-2.707,-2.719,-2.719,-2.719,-2.719,-2.719,-2.719,-2.719,-2.719,-2.719,-2.719,-2.719,-2.719,-2.719,-2.719,-2.719,-2.719,-2.7272,-2.7505,-2.8018,-2.8661,-2.8661,-2.8791,-2.9406,-3.0177,-3.0859,-3.1726,-3.2128,-3.2489,-3.2668,-3.286,-3.2827,-3.2242,-3.2248,-3.2398,-2.4915,-2.4915,-2.4855,-2.4821,-2.4821,-2.4821,-2.4578,-2.4307,0.0,0.0,0.0,-2.4038,-2.4056,-2.4012,-2.399,-2.4551,-2.5517,-2.5635,-2.6071,-2.6856,-2.7047,-2.7662,-2.8631,-2.8678,-2.9233,-3.017,-3.0216,-3.0216,-3.0216,-3.0216,-3.0216,-3.0216,-3.0216,-3.0216,-3.0216,-3.0216,-3.0021,-2.963,-2.945,-2.9142,-2.872,-2.853,-2.8052,-2.7204,-2.7113,-2.6508,-2.5245,-2.5096,-2.482,-2.4361,-2.4315,-2.4361,-2.4464,-2.4464,-2.4545,-2.4728,-2.4728,-2.49,-2.5291,-2.5287,-2.552,-2.5957,-2.598,-2.5677,-2.5119,-2.5543,-2.5842,-2.5842,-2.5922,-2.598,-2.598,-2.598,-2.614,-2.6605,-2.6639,-2.6772,-2.711,-2.719,-2.7156,-2.719,-2.7179,-2.719,-2.719,-2.719,-2.719,-2.719,-2.719,-2.719,-2.719,-2.719,-2.719,-2.719,-2.719,-2.719,-2.719,-2.719,-2.719,-2.719,-2.7313,-2.7736,-2.8303,-2.8075,-2.8035,-2.8976,-2.9433,-3.0279,-3.1405,-3.1969,-3.2417,-3.2561,-3.2874,-3.3016,-3.2895,-3.3051,-3.3234,-2.5292,-2.5258,-2.4949,-2.4821,-2.4821,-2.4821,-2.4778,-2.4675,-2.4295,-2.4272,-2.442,-2.4637,-2.4758,-2.4747,-2.4687,-2.4744,-2.4918,-2.5231,-2.5441,0.0,-2.6464,-2.7416,-2.8319,-2.8574,-2.9233,-3.017,-3.0216,-3.0216,-3.0216,-3.0216,-3.0216,-3.0216,-3.0216,-3.0216,-3.0216,-3.0216,-3.0181,-3.0101,-2.924,-2.8768,-2.869,-2.7856,-2.7336,-2.72,-2.6838,-2.6526,-2.6278,-2.5842,-2.536,-2.4843,-2.482,-2.5027,-2.5463,-2.5509,-2.5888,-2.6674,-2.6766,-2.6789,-2.6846,-2.6869,-2.6892,-2.6972,-2.6972,-2.6582,-2.5677,-2.6071,-2.6398,-2.6421,-2.6726,-2.6972,-2.6972,-2.6938,-2.6938,-2.7082,-2.7105,-2.7162,-2.719,-2.719,-2.719,-2.719,-2.719,-2.719,-2.719,-2.719,-2.719,-2.719,-2.719,-2.719,-2.719,-2.719,-2.719,-2.719,-2.719,-2.719,-2.719,-2.719,-2.719,-2.719,-2.7667,-2.7817,-2.7615,-2.8115,-2.8621,-2.9042,-2.9471,-3.0024,-3.0406,-3.081,-3.1519,-3.2055,-3.2322,-3.2503,-3.298,-3.3206,-3.329,-2.5677,-2.5634,-2.5275,-2.5112,-2.5104,-2.4907,-2.4821,-2.4787,-2.4562,-2.444,-2.4348,-2.4455,-2.4492,-2.4447,-2.4435,-2.4821,-2.547,-2.5062,-2.5101,-2.5572,-2.6045,-2.6772,-2.772,-2.8376,-2.9233,-3.017,-3.0216,-3.0216,-3.0216,-3.0216,-3.0216,-3.0216,-3.0216,-3.008,-2.9852,-3.008,-3.0216,-3.0216,-2.9761,-2.9511,-2.95,-2.906,-2.87,-2.8445,-2.8218,-2.7995,-2.769,-2.7208,-2.6829,-2.6588,-2.6313,-2.6239,-2.6479,-2.6491,-2.6697,-2.7156,-2.719,-2.719,-2.719,-2.719,-2.719,-2.719,-2.719,-2.7007,-2.6548,-2.6749,-2.6887,-2.6887,-2.7105,-2.719,-2.719,-2.719,-2.719,-2.719,-2.719,-2.719,-2.719,-2.719,-2.719,-2.719,-2.719,-2.719,-2.719,-2.719,-2.719,-2.719,-2.719,-2.719,-2.719,-2.719,-2.719,-2.719,-2.719,-2.719,-2.719,-2.719,-2.719,-2.719,-2.7423,-2.7505,-2.7231,-2.7805,-2.8155,-2.8542,-2.9106,-2.9704,-3.0139,-3.0872,-3.1408,-3.1703,-3.22,-3.2538,-3.2682,-3.2959,-3.329,-2.6004,-2.597,-2.5652,-2.5455,-2.5335,-2.4975,-2.4821,-2.4821,-2.4821,-2.465,-2.4384,-2.4413,-2.4404,-2.4349,-2.4315,-2.4896,-2.5601,-2.485,-2.479,-2.5408,-2.5632,-2.6152,-2.703,-2.802,-2.8973,-2.976,-2.984,-2.9897,-2.984,-2.984,-2.984,-2.9852,-2.984,-2.9669,-2.9336,-2.9806,-3.0034,-3.0034,-3.0125,-3.017,-3.0034,-2.9932,-2.9716,-2.9509,-2.9361,-2.9209,-2.8884,-2.8402,-2.8149,-2.8115,-2.7667,-2.7362,-2.7351,-2.7247,-2.719,-2.719,-2.719,-2.719,-2.719,-2.719,-2.719,-2.719,-2.719,-2.719,-2.719,-2.719,-2.719,-2.719,-2.7179,-2.719,-2.719,-2.719,-2.719,-2.719,-2.719,-2.719,-2.719,-2.719,-2.719,-2.719,-2.719,-2.719,-2.719,-2.719,-2.719,-2.719,-2.719,-2.719,-2.719,-2.719,-2.719,-2.719,-2.719,-2.719,-2.719,-2.719,-2.719,-2.719,-2.719,-2.7231,-2.719,-2.719,-2.7342,-2.7938,-2.8474,-2.9042,-2.9896,-3.0558,-3.0985,-3.1158,-3.1736,-3.2381,-3.2538,-3.2909,-3.3276,-2.6439,-2.6379,-2.6037,-2.5686,-2.5391,-2.4984,-2.4838,-2.4821,-2.4821,-2.4804,-2.4744,-2.502,-2.5078,-2.5081,-2.4984,-2.5058,-2.513,-2.4465,-2.4237,-2.4394,-2.5063,-2.5758,-2.6418,-2.749,-2.8259,-2.879,-2.8885,-2.8943,-2.891,-2.8863,-2.8863,-2.8817,-2.8806,-2.8874,-2.8828,-2.9312,-2.9588,-2.9577,-2.9988,-2.9988,-2.9566,-2.9095,-2.9037,-2.9521,-2.9038,-2.8969,-2.9412,-2.8907,-2.8643,-2.8597,-2.8172,-2.7908,-2.7874,-2.7483,-2.719,-2.7201,-2.719,-2.719,-2.719,-2.719,-2.719,-2.719,-2.719,-2.719,-2.719,-2.719,-2.719,-2.719,-2.719,-2.719,-2.719,-2.719,-2.719,-2.719,-2.719,-2.719,-2.719,-2.719,-2.719,-2.719,-2.719,-2.719,-2.719,-2.719,-2.719,-2.719,-2.719,-2.719,-2.719,-2.719,-2.719,-2.719,-2.719,-2.719,-2.719,-2.719,-2.719,-2.719,-2.719,-2.719,-2.719,-2.719,-2.7272,-2.7464,-2.795,-2.8447,-2.8633,-2.9067,-2.9793,-3.0317,-3.1007,-3.1882,-3.2824,-3.3171,-3.3206,-2.6842,-2.6799,-2.6422,-2.5908,-2.5378,-2.5206,-2.5018,-2.483,-2.4821,-2.4821,-2.4821,-2.4923,-2.497,-2.4962,-2.4925,-2.4919,-2.4902,-2.4637,-2.4484,-2.4498,-2.542,-2.5923,-2.6203,-2.7721,-2.8429,-2.8391,-2.8867,-2.8961,-2.8721,-2.8678,-2.8585,-2.8395,-2.8809,-2.8972,-2.8804,-2.9445,-2.9752,-2.9443,-2.9969,-2.9823,-2.9185,-2.9371,-2.9566,-2.9463,-2.9284,-2.941,-2.9782,-2.9114,-2.8852,-2.9093,-2.8677,-2.8413,-2.839,-2.7943,-2.7679,-2.7656,-2.7351,-2.719,-2.719,-2.719,-2.719,-2.719,-2.719,-2.719,-2.719,-2.719,-2.719,-2.719,-2.719,-2.719,-2.719,-2.719,-2.719,-2.719,-2.719,-2.719,-2.719,-2.719,-2.719,-2.719,-2.719,-2.7201,-2.719,-2.719,-2.719,-2.719,-2.7201,-2.7236,-2.7213,-2.719,-2.719,-2.719,-2.719,-2.719,-2.719,-2.719,-2.719,-2.719,-2.719,-2.719,-2.719,-2.719,-2.719,-2.719,-2.7748,-2.8139,-2.8259,-2.8831,-2.9484,-2.9819,-3.019,-3.1132,-3.2354,-3.2583,-3.2739,-2.7004,-2.6859,-2.6499,-2.6088,-2.5669,-2.5511,-2.5215,-2.4975,-2.4872,-2.4821,-2.4821,-2.4821,-2.4821,-2.4821,-2.4821,-2.4821,-2.4821,-2.4821,-2.4722,-2.4791,-2.572,-2.6079,-2.6022,-2.7467,-2.7974,-2.7736,-2.8265,-2.8519,-2.8312,-2.8315,-2.8128,-2.7967,-2.8481,-2.8705,-2.8576,-2.9343,-2.9591,-2.9445,-2.9903,-2.9708,-2.895,-2.9537,-2.9758,-2.9312,-2.929,-2.9428,-2.9738,-2.924,-2.9105,-2.9453,-2.9106,-2.8919,-2.8907,-2.8448,-2.8172,-2.8161,-2.7839,-2.7575,-2.7449,-2.7438,-2.738,-2.7213,-2.719,-2.719,-2.719,-2.719,-2.719,-2.719,-2.719,-2.719,-2.719,-2.719,-2.719,-2.719,-2.719,-2.719,-2.719,-2.719,-2.719,-2.719,-2.738,-2.7506,-2.7568,-2.7614,-2.7591,-2.727,-2.7431,-2.7591,-2.7591,-2.7626,-2.7667,-2.7591,-2.7603,-2.7477,-2.727,-2.719,-2.719,-2.719,-2.719,-2.719,-2.719,-2.719,-2.719,-2.7231,-2.7708,-2.7898,-2.7817,-2.8447,-2.9223,-2.9496,-2.9871,-3.0494,-3.1563,-3.1746,-3.2137,-2.6859,-2.6491,-2.6122,-2.6157,-2.6371,-2.5694,-2.5426,-2.5283,-2.4984,-2.483,-2.483,-2.4821,-2.4821,-2.4821,-2.4821,-2.4821,-2.4821,-2.4821,-2.4804,-2.4863,-2.5672,-2.5856,-2.5513,-2.6362,-2.6546,-2.6292,-2.6783,-2.7057,-2.7361,-2.7378,-2.7347,-2.7357,-2.743,-2.7627,-2.8029,-2.8612,-2.9025,-2.9394,-2.984,-2.9624,-2.8876,-2.9185,-2.9252,-2.8776,-2.8724,-2.8771,-2.8852,-2.9222,-2.9486,-2.9498,-2.9487,-2.9458,-2.9412,-2.8964,-2.8677,-2.8643,-2.8609,-2.8402,-2.8023,-2.7943,-2.777,-2.7328,-2.7316,-2.7236,-2.7339,-2.7328,-2.7339,-2.7236,-2.7316,-2.7293,-2.7293,-2.7316,-2.7282,-2.7305,-2.7259,-2.727,-2.7247,-2.7351,-2.7213,-2.7316,-2.7702,-2.8057,-2.8517,-2.8632,-2.8149,-2.7694,-2.8046,-2.8586,-2.8609,-2.8632,-2.8528,-2.8517,-2.8459,-2.8299,-2.7442,-2.7419,-2.7362,-2.7224,-2.7247,-2.7224,-2.7201,-2.719,-2.7201,-2.719,-2.7353,-2.7383,-2.7383,-2.7777,-2.8554,-2.9028,-2.9406,-3.0075,-3.0782,-3.0895,-3.1392,-2.6405,-2.6473,-2.6345,-2.6362,-2.6448,-2.6191,-2.5872,-2.5426,-2.5288,-2.5035,-2.4847,-2.4821,-2.4821,-2.4821,-2.4821,-2.4821,-2.4821,-2.4821,-2.4821,-2.4821,-2.5136,-2.5168,-2.511,-2.5883,-2.6042,-2.5782,-2.6328,-2.6464,-2.6221,-2.6713,-2.6806,-2.6635,-2.6826,-2.7293,-2.7948,-2.8663,-2.9013,-2.8998,-2.9679,-2.9625,-2.8806,-2.9157,-2.902,-2.8264,-2.8231,-2.8409,-2.8678,-2.8921,-2.9152,-2.9485,-2.9772,-2.9952,-2.9906,-2.9481,-2.9045,-2.8746,-2.8689,-2.862,-2.8471,-2.8448,-2.8379,-2.8207,-2.8172,-2.8138,-2.8172,-2.8161,-2.8172,-2.8161,-2.8161,-2.8161,-2.8103,-2.7908,-2.7839,-2.8103,-2.8161,-2.8126,-2.8172,-2.8172,-2.8161,-2.8195,-2.8356,-2.8517,-2.8677,-2.87,-2.8551,-2.8287,-2.8482,-2.8953,-2.9389,-2.916,-2.8758,-2.87,-2.8689,-2.8586,-2.831,-2.8184,-2.8069,-2.7587,-2.7392,-2.7449,-2.7419,-2.7351,-2.7339,-2.7305,-2.727,-2.7265,-2.74,-2.7626,-2.8299,-2.8645,-2.9028,-2.9406,-2.9961,-3.0114,-3.0782,-2.6045,-2.6439,-2.6354,-2.6465,-2.6653,-2.6542,-2.6199,-2.5711,-2.5472,-2.5223,-2.5009,-2.4881,-2.4821,-2.4821,-2.4821,-2.4821,-2.4821,-2.4821,-2.4821,-2.4821,-2.4821,-2.4821,-2.4876,-2.5404,-2.5537,-2.5343,-2.5933,-2.6035,-2.5733,-2.6156,-2.6201,-2.5967,-2.634,-2.6862,-2.7566,-2.8406,-2.8804,-2.8916,-2.9511,-2.949,-2.8916,-2.9176,-2.8956,-2.8261,-2.8034,-2.8041,-2.8233,-2.8538,-2.8874,-2.9244,-2.9852,-3.0216,-3.0181,-2.9906,-2.9573,-2.924,-2.9206,-2.9114,-2.8976,-2.8953,-2.8884,-2.8712,-2.8689,-2.8689,-2.8689,-2.8689,-2.8689,-2.8689,-2.87,-2.8746,-2.8861,-2.8654,-2.8551,-2.8689,-2.8689,-2.8689,-2.8689,-2.8677,-2.8769,-2.8896,-2.8953,-2.9022,-2.9148,-2.9206,-2.9217,-2.9183,-2.9183,-2.9538,-2.9929,-2.9699,-2.9194,-2.9194,-2.9263,-2.9274,-2.9183,-2.9183,-2.8896,-2.8425,-2.7977,-2.7908,-2.7862,-2.7736,-2.7587,-2.7518,-2.7449,-2.7421,-2.7475,-2.7661,-2.8002,-2.8351,-2.8578,-2.8922,-2.9184,-2.9302,-3.0037,-2.5788,-2.6336,-2.6088,-2.6328,-2.6824,-2.6559,-2.6456,-2.6208,-2.5643,-2.5326,-2.5189,-2.4967,-2.4821,-2.4821,-2.4821,-2.4821,-2.4821,-2.4821,-2.4821,-2.4821,-2.4821,-2.4821,-2.4821,-2.4876,-2.4923,-2.4918,-2.5234,-2.5642,-2.5773,-2.5679,-2.5572,-2.5572,-2.58,-2.6202,-2.6784,-2.7516,-2.8322,-2.8868,-2.9208,-2.9342,-2.9301,-2.9342,-2.9134,-2.8638,-2.8204,-2.7876,-2.7467,-2.8186,-2.8631,-2.8817,-2.9612,-3.0159,-3.0216,-3.017,-3.017,-3.0112,-3.0147,-2.994,-2.9573,-2.9493,-2.9286,-2.8976,-2.8781,-2.8861,-2.8907,-2.8861,-2.8861,-2.8884,-2.8873,-2.8976,-2.9412,-2.9447,-2.9274,-2.8838,-2.8884,-2.8884,-2.8827,-2.8758,-2.893,-2.9378,-2.9493,-2.9711,-3.0044,-3.0055,-2.9998,-3.0009,-3.0032,-3.0044,-3.0193,-3.0055,-3.0147,-3.0124,-2.9963,-2.9837,-3.0021,-3.0147,-2.9745,-2.9332,-2.8896,-2.8643,-2.862,-2.8517,-2.8184,-2.8057,-2.7989,-2.7939,-2.7724,-2.79,-2.7963,-2.8262,-2.8387,-2.8522,-2.8697,-2.8922,-2.9184,-2.5275,-2.5686,-2.56,-2.5831,-2.6259,-2.6157,-2.5968,-2.572,-2.5503,-2.5232,-2.5001,-2.4872,-2.4821,-2.4821,-2.4821,-2.4821,-2.4821,-2.4821,-2.4821,-2.4821,-2.4821,-2.4821,-2.4821,-2.4821,-2.4821,-2.4915,-2.5555,-2.5433,-2.4978,-2.5232,-2.5255,-2.4794,-2.4803,-2.5086,-2.5594,-2.6576,-2.7341,-2.7633,-2.8737,-2.9301,-2.9342,-2.9611,-2.9539,-2.9135,-2.8938,-2.8524,-2.7817,-2.8015,-2.8175,-2.8269,-2.9198,-2.9852,-3.0125,-3.0216,-3.0216,-3.0216,-3.0216,-3.0181,-3.0032,-2.9975,-2.9917,-2.9768,-2.9722,-2.9745,-2.9745,-2.9711,-2.9711,-2.9711,-2.9745,-2.9837,-2.9952,-2.9986,-2.9871,-2.9757,-2.9734,-2.9688,-2.9653,-2.9699,-2.9814,-2.994,-2.9998,-3.0067,-3.0158,-3.0216,-3.0216,-3.0216,-3.0216,-3.0216,-3.0216,-3.0216,-3.0216,-3.0216,-3.0216,-3.0216,-3.0216,-3.0216,-3.0021,-2.9757,-2.947,-2.9228,-2.9228,-2.916,-2.8838,-2.8563,-2.8494,-2.8349,-2.8147,-2.8128,-2.824,-2.8248,-2.835,-2.8463,-2.8495,-2.8697,-2.8961,-2.5035,-2.536,-2.5369,-2.5583,-2.5867,-2.5934,-2.5806,-2.5574,-2.5429,-2.5241,-2.5035,-2.4872,-2.4821,-2.4821,-2.4821,-2.4821,-2.4821,-2.4821,-2.4821,-2.4821,-2.4821,-2.4821,-2.4821,-2.4821,-2.4821,-2.4876,-2.5348,-2.5217,-2.4499,-2.4769,-2.4783,-2.4359,-2.4414,-2.4748,-2.5187,-2.6182,-2.6844,-2.7329,-2.8244,-2.8876,-2.9104,-2.9497,-2.9601,-2.9342,-2.9301,-2.9011,-2.8431,-2.8132,-2.8073,-2.8405,-2.9244,-2.9897,-3.017,-3.0216,-3.0216,-3.0216,-3.0216,-3.0216,-3.0216,-3.0193,-3.0216,-3.0216,-3.0216,-3.0204,-3.0216,-3.0216,-3.0216,-3.0216,-3.0193,-3.0216,-3.0204,-3.0216,-3.0216,-3.0216,-3.0181,-3.0216,-3.0216,-3.0216,-3.0204,-3.0193,-3.0193,-3.0216,-3.0216,-3.0216,-3.0216,-3.0216,-3.0216,-3.0216,-3.0216,-3.0216,-3.0216,-3.0216,-3.0216,-3.0216,-3.0216,-3.0216,-3.0216,-3.0089,-2.9917,-2.9768,-2.9711,-2.963,-2.9412,-2.9022,-2.885,-2.8597,-2.8422,-2.8507,-2.8594,-2.8516,-2.8519,-2.8669,-2.875,-2.8543,-2.8761,-2.5018,-2.5383,-2.5335,-2.5506,-2.5797,-2.5748,-2.5722,-2.5763,-2.5472,-2.5292,-2.5215,-2.4949,-2.4821,-2.4821,-2.4821,-2.4821,-2.4821,-2.4821,-2.4821,-2.4821,-2.4821,-2.4821,-2.4821,-2.4821,-2.4821,-2.4821,-2.4876,-2.4868,-2.4735,-2.4525,-2.4247,-2.4281,-2.4553,-2.4963,-2.5288,-2.6108,-2.6814,-2.7347,-2.7791,-2.8224,-2.8597,-2.9032,-2.929,-2.929,-2.9301,-2.9259,-2.9073,-2.8476,-2.8184,-2.8661,-2.9417,-2.9943,-3.0125,-3.017,-3.0216,-3.0216,-3.0216,-3.0216,-3.0216,-3.0216,-3.0216,-3.0216,-3.0216,-3.0216,-3.0216,-3.0216,-3.0216,-3.0216,-3.0216,-3.0216,-3.0216,-3.0216,-3.0216,-3.0216,-3.0216,-3.0216,-3.0216,-3.0216,-3.0216,-3.0216,-3.0216,-3.0216,-3.0216,-3.0216,-3.0216,-3.0216,-3.0216,-3.0216,-3.0216,-3.0216,-3.0216,-3.0216,-3.0216,-3.0216,-3.0216,-3.0216,-3.0216,-3.0181,-3.0101,-3.0055,-3.0009,-2.9952,-2.9906,-2.9538,-2.924,-2.8953,-2.8801,-2.8973,-2.904,-2.9038,-2.9077,-2.9112,-2.9032,-2.8927,-2.8791,-2.4881,-2.4958,-2.4967,-2.5026,-2.5112,-2.5112,-2.5073,-2.5112,-2.5035,-2.4992,-2.4941,-2.4864,-2.4821,-2.4821,-2.4821,-2.4821,-2.4821,-2.4821,-2.4821,-2.4821,-2.4821,-2.4821,-2.4821,-2.4821,-2.4821,-2.4821,-2.4821,-2.4821,-2.4821,-2.4693,-2.4458,-2.4176,-2.436,-2.4323,-2.435,-2.5312,-2.5839,-2.6288,-2.7376,-2.7917,-2.8142,-2.8566,-2.897,-2.929,-2.929,-2.929,-2.9269,-2.8806,-2.8333,-2.8228,-2.8724,-2.9279,-2.9669,-2.9988,-3.017,-3.0216,-3.0216,-3.0216,-3.0216,-3.0216,-3.0216,-3.0216,-3.0216,-3.0216,-3.0216,-3.0216,-3.0216,-3.0216,-3.0216,-3.0216,-3.0216,-3.0216,-3.0216,-3.0216,-3.0216,-3.0216,-3.0216,-3.0216,-3.0216,-3.0216,-3.0216,-3.0216,-3.0216,-3.0216,-3.0216,-3.0216,-3.0216,-3.0216,-3.0216,-3.0216,-3.0216,-3.0216,-3.0216,-3.0216,-3.0216,-3.0216,-3.0216,-3.0216,-3.0193,-3.017,-3.0147,-3.0124,-3.0112,-2.9986,-2.9802,-2.955,-2.9466,-2.9461,-2.9482,-2.9601,-2.9567,-2.96,-2.9612,-2.9532,-2.9256,-2.4821,-2.4821,-2.4821,-2.4821,-2.4821,-2.4821,-2.4821,-2.4821,-2.4821,-2.4821,-2.4821,-2.4821,-2.4821,-2.4821,-2.4821,-2.4821,-2.4821,-2.4821,-2.4821,-2.4821,-2.4821,-2.4821,-2.4821,-2.4821,-2.4821,-2.4821,-2.4821,-2.4821,-2.4821,-2.4821,-2.4684,-2.4538,-2.4424,-2.4444,-2.4571,-2.5025,-2.5656,-2.6056,-2.6962,-2.7452,-2.7648,-2.809,-2.84,-2.8731,-2.8876,-2.9011,-2.8979,-2.8959,-2.8764,-2.8482,-2.8585,-2.8921,-2.9439,-2.9715,-2.9977,-3.017,-3.0216,-3.0216,-3.0216,-3.0216,-3.0216,-3.0216,-3.0216,-3.0216,-3.0216,-3.0216,-3.0216,-3.0216,-3.0216,-3.0216,-3.0216,-3.0216,-3.0216,-3.0216,-3.0216,-3.0216,-3.0216,-3.0216,-3.0216,-3.0216,-3.0216,-3.0216,-3.0216,-3.0216,-3.0216,-3.0216,-3.0216,-3.0216,-3.0216,-3.0216,-3.0216,-3.0216,-3.0216,-3.0216,-3.0216,-3.0216,-3.0216,-3.0216,-3.0216,-3.0216,-3.0216,-3.0216,-3.0204,-3.0193,-3.0204,-3.0147,-2.9984,-2.9912,-3.0167,-3.02,-3.0123,-3.0167,-3.0205,-3.0013,-2.9749,-2.4821,-2.4821,-2.4821,-2.4821,-2.4821,-2.4821,-2.4821,-2.4821,-2.4821,-2.4821,-2.4821,-2.4821,-2.4821,-2.4821,-2.4821,-2.4821,-2.4821,-2.4821,-2.4821,-2.4821,-2.4821,-2.4821,-2.4821,-2.4821,-2.4821,-2.4821,-2.4821,-2.4821,-2.4821,-2.4821,-2.4821,-2.477,-2.4778,-2.4963,-2.5029,-2.5344,-2.578,-2.6186,-2.6387,-2.6695,-2.6972,-2.7349,-2.7641,-2.7885,-2.8464,-2.863,-2.8763,-2.8906,-2.8963,-2.8709,-2.8686,-2.8981,-2.9402,-2.9507,-2.976,-3.008,-3.0216,-3.0216,-3.0216,-3.0216,-3.0216,-3.0216,-3.0216,-3.0216,-3.0216,-3.0216,-3.0216,-3.0216,-3.0216,-3.0216,-3.0216,-3.0216,-3.0216,-3.0216,-3.0216,-3.0216,-3.0216,-3.0216,-3.0216,-3.0216,-3.0216,-3.0216,-3.0216,-3.0216,-3.0216,-3.0216,-3.0216,-3.0216,-3.0216,-3.0216,-3.0216,-3.0216,-3.0216,-3.0216,-3.0216,-3.0216,-3.0216,-3.0216,-3.0216,-3.0216,-3.0216,-3.0216,-3.0216,-3.0216,-3.0216,-3.0216,-3.0158,-3.0293,-3.0619,-3.0761,-3.0683,-3.0783,-3.0848,-3.0494,-3.017,-2.4821,-2.4821,-2.4821,-2.4821,-2.4821,-2.4821,-2.4821,-2.4821,-2.4821,-2.4821,-2.4821,-2.4821,-2.4821,-2.4821,-2.4821,-2.4821,-2.4821,-2.4821,-2.4821,-2.4821,-2.4821,-2.4821,-2.4821,-2.4821,-2.4821,-2.4821,-2.4821,-2.4821,-2.4821,-2.4821,-2.4821,-2.4821,-2.4821,-2.4834,-2.4942,-2.5253,-2.5415,-2.5626,-2.5744,-2.5839,-2.6044,-2.6368,-2.6692,-2.7061,-2.7941,-2.8476,-2.8568,-2.87,-2.8709,-2.8658,-2.8634,-2.8827,-2.9296,-2.9478,-2.9725,-3.008,-3.0239,-3.0216,-3.0216,-3.0216,-3.0216,-3.0216,-3.0216,-3.0216,-3.0216,-3.0216,-3.0216,-3.0216,-3.0216,-3.0216,-3.0216,-3.0216,-3.0216,-3.0216,-3.0216,-3.0216,-3.0216,-3.0216,-3.0216,-3.0216,-3.0216,-3.0216,-3.0216,-3.0216,-3.0216,-3.0216,-3.0216,-3.0216,-3.0216,-3.0216,-3.0216,-3.0216,-3.0216,-3.0216,-3.0216,-3.0216,-3.0216,-3.0216,-3.0216,-3.0216,-3.0216,-3.0216,-3.0216,-3.0216,-3.0216,-3.0216,-3.0216,-3.0544,-3.0824,-3.1012,-3.1178,-3.1224,-3.1097,-3.0848,-3.0742,-2.4821,-2.4821,-2.4821,-2.4821,-2.4821,-2.4821,-2.4821,-2.4821,-2.4821,-2.4821,-2.4821,-2.4821,-2.4821,-2.4821,-2.4821,-2.4821,-2.4821,-2.4821,-2.4821,-2.4821,-2.4821,-2.4821,-2.4821,-2.4821,-2.4821,-2.4821,-2.4821,-2.4821,-2.4821,-2.4821,-2.4821,-2.4821,-2.4821,-2.4821,-2.4821,-2.5029,-2.5234,-2.537,-2.5441,-2.5451,-2.5566,-2.5697,-2.5771,-2.6014,-2.6735,-2.7332,-2.7691,-2.7552,-2.7733,-2.7935,-2.8061,-2.8519,-2.9236,-2.9441,-2.9715,-3.01,-3.0228,-3.0193,-3.0216,-3.0216,-3.0216,-3.0216,-3.0216,-3.0216,-3.0216,-3.0216,-3.0216,-3.0216,-3.0216,-3.0216,-3.0216,-3.0216,-3.0216,-3.0216,-3.0216,-3.0216,-3.0216,-3.0216,-3.0216,-3.0216,-3.0216,-3.0216,-3.0216,-3.0216,-3.0216,-3.0216,-3.0216,-3.0216,-3.0216,-3.0216,-3.0216,-3.0216,-3.0216,-3.0216,-3.0216,-3.0216,-3.0216,-3.0216,-3.0216,-3.0216,-3.0216,-3.0216,-3.0216,-3.0216,-3.0216,-3.0216,-3.0261,-3.0634,-3.0814,-3.0836,-3.1003,-3.1294,-3.1356,-3.1069,-3.1117,-2.4821,-2.4821,-2.4821,-2.4821,-2.4821,-2.4821,-2.4821,-2.4821,-2.4821,-2.4821,-2.4821,-2.4821,-2.4821,-2.4821,-2.4821,-2.4821,-2.4821,-2.4821,-2.4821,-2.4821,-2.4821,-2.4821,-2.4821,-2.4821,-2.4821,-2.4821,-2.4821,-2.4821,-2.4821,-2.4821,-2.4821,-2.4821,-2.4821,-2.4821,-2.4821,-2.4804,-2.4989,-2.5199,-2.5121,-2.5055,-2.5103,-2.5204,-2.5161,-2.5231,-2.5473,-2.5982,-2.6378,-2.6431,-2.655,-2.7047,-2.7197,-2.7834,-2.8653,-2.9462,-2.9701,-3.0189,-3.0318,-3.0331,-3.0239,-3.0216,-3.0216,-3.0216,-3.0216,-3.0216,-3.0216,-3.0216,-3.0216,-3.0216,-3.0216,-3.0216,-3.0216,-3.0216,-3.0216,-3.0216,-3.0216,-3.0216,-3.0216,-3.0216,-3.0216,-3.0216,-3.0216,-3.0216,-3.0216,-3.0216,-3.0216,-3.0216,-3.0216,-3.0216,-3.0216,-3.0216,-3.0216,-3.0216,-3.0216,-3.0216,-3.0216,-3.0216,-3.0216,-3.0216,-3.0216,-3.0216,-3.0216,-3.0216,-3.0216,-3.0216,-3.0216,-3.0216,-3.0261,-3.0487,-3.0623,-3.0623,-3.0814,-3.1139,-3.1217,-3.1261,-3.1392,-2.4821,-2.4821,-2.4821,-2.4821,-2.4821,-2.4821,-2.4821,-2.4821,-2.4821,-2.4821,-2.4821,-2.4821,-2.4821,-2.4821,-2.4821,-2.4821,-2.4821,-2.4821,-2.4821,-2.4821,-2.4821,-2.4821,-2.4821,-2.4821,-2.4821,-2.4821,-2.4821,-2.4821,-2.4821,-2.4821,-2.4821,-2.4821,-2.4821,-2.4821,-2.4821,-2.4821,-2.4851,-2.4908,-2.4754,-2.4507,-2.4316,-2.4416,-2.4569,-2.4655,-2.478,-2.4996,-2.522,-2.5545,-2.5784,-2.5922,-2.627,-2.6557,-2.7219,-2.8749,-2.9715,-2.9969,-3.0285,-3.0247,-2.9999,-3.0125,-3.0182,-3.0216,-3.0216,-3.0216,-3.0216,-3.0216,-3.0216,-3.0216,-3.0216,-3.0216,-3.0216,-3.0216,-3.0216,-3.0216,-3.0216,-3.0216,-3.0216,-3.0216,-3.0216,-3.0216,-3.0216,-3.0216,-3.0216,-3.0216,-3.0216,-3.0216,-3.0216,-3.0216,-3.0216,-3.0216,-3.0216,-3.0216,-3.0216,-3.0216,-3.0216,-3.0216,-3.0216,-3.0216,-3.0216,-3.0216,-3.0216,-3.0216,-3.0216,-3.0216,-3.0216,-3.0216,-3.0306,-3.0442,-3.0487,-3.0532,-3.0736,-3.0972,-3.1005,-3.1083,-3.1217,-2.4821,-2.4821,-2.4821,-2.4821,-2.4821,-2.4821,-2.4821,-2.4821,-2.4821,-2.4821,-2.4821,-2.4821,-2.4821,-2.4821,-2.4821,-2.4821,-2.4821,-2.4821,-2.4821,-2.4821,-2.4821,-2.4821,-2.4821,-2.4821,-2.4821,-2.4821,-2.4821,-2.4821,-2.4821,-2.4821,-2.4821,-2.4821,-2.4821,-2.4821,-2.4821,-2.4821,-2.4821,-2.477,-2.4616,-2.4333,-2.3913,-2.3878,-2.3779,-2.3677,-2.3768,-2.3908,-2.4202,-2.4013,-2.4258,-2.4592,-2.5048,-2.5284,-2.5929,-2.71,-2.8622,-2.8747,-2.9192,-2.9336,-2.9172,-2.9355,-2.9615,-2.9497,-2.984,-3.017,-3.0216,-3.0216,-3.0216,-3.0216,-3.0216,-3.0216,-3.0216,-3.0216,-3.0216,-3.0216,-3.0216,-3.0216,-3.0216,-3.0216,-3.0216,-3.0216,-3.0216,-3.0216,-3.0216,-3.0216,-3.0216,-3.0216,-3.0216,-3.0216,-3.0216,-3.0216,-3.0216,-3.0216,-3.0216,-3.0216,-3.0216,-3.0216,-3.0216,-3.0216,-3.0216,-3.0216,-3.0216,-3.0216,-3.0216,-3.0216,-3.0216,-3.0216,-3.0216,-3.0306,-3.0352,-3.0397,-3.0499,-3.0646,-3.0736,-3.0859,-3.1038,-2.4821,-2.4821,-2.4821,-2.4821,-2.4821,-2.4821,-2.4821,-2.4821,-2.4821,-2.4821,-2.4821,-2.4821,-2.4821,-2.4821,-2.4821,-2.4821,-2.4821,-2.4821,-2.4821,-2.4821,-2.4821,-2.4821,-2.4821,-2.4821,-2.4821,-2.4821,-2.4821,-2.4821,-2.4821,-2.4821,-2.4821,-2.4821,-2.4821,-2.4821,-2.4821,-2.4821,-2.4821,-2.4821,-2.4812,-2.4607,-2.4076,-2.3485,-2.2937,-2.2637,-2.2603,-2.2937,-2.3388,-2.3114,-2.314,-2.3503,-2.3824,-2.4062,-2.4278,-2.5479,-2.6308,-2.6633,-2.7391,-2.7701,-2.7765,-2.8267,-2.8582,-2.8326,-2.9233,-2.9692,-2.9977,-2.9977,-3.0216,-3.0216,-3.0216,-3.0216,-3.0216,-3.0216,-3.0216,-3.0216,-3.0216,-3.0216,-3.0216,-3.0216,-3.0216,-3.0216,-3.0216,-3.0216,-3.0216,-3.0216,-3.0216,-3.0216,-3.0216,-3.0216,-3.0216,-3.0216,-3.0216,-3.0216,-3.0216,-3.0216,-3.0216,-3.0216,-3.0216,-3.0216,-3.0216,-3.0216,-3.0216,-3.0216,-3.0216,-3.0216,-3.0216,-3.0216,-3.0216,-3.0216,-3.0261,-3.0306,-3.0216,-3.0306,-3.0454,-3.0679,-3.0859,-2.4821,-2.4821,-2.4821,-2.4821,-2.4821,-2.4821,-2.4821,-2.4821,-2.4821,-2.4821,-2.4821,-2.4821,-2.4821,-2.4821,-2.4821,-2.4821,-2.4821,-2.4821,-2.4821,-2.4821,-2.4821,-2.4821,-2.4821,-2.4821,-2.4821,-2.4821,-2.4821,-2.4821,-2.4821,-2.4821,-2.4821,-2.4821,-2.4821,-2.4821,-2.4821,-2.4821,-2.4821,-2.4821,-2.4821,-2.4496,-2.3871,-2.3383,-2.298,-2.274,-2.2603,-2.2644,-2.2846,-2.2695,-2.2745,-2.2754,-2.2839,-2.2823,-2.2866,-2.322,-2.3702,-2.4648,-2.5996,-2.7401,-2.6739,-2.7073,-2.7316,-2.7282,-2.8028,-2.8552,-2.8991,-2.9749,-3.017,-3.0216,-3.0216,-3.008,-3.008,-3.017,-3.017,-3.0125,-3.0034,-3.008,-3.0125,-3.0216,-3.0216,-3.0216,-3.0216,-3.0216,-3.0216,-3.0216,-3.0216,-3.0216,-3.0216,-3.0216,-3.0216,-3.0216,-3.0216,-3.0216,-3.0216,-3.0216,-3.0216,-3.0216,-3.0216,-3.0216,-3.0216,-3.0216,-3.0216,-3.0216,-3.0216,-3.0216,-3.0216,-3.0216,-3.0216,-3.0216,-3.0216,-3.0216,-3.0216,-3.0216,-3.0216,-3.0442,-3.0724,-2.4821,-2.4821,-2.4821,-2.4821,-2.4821,-2.4821,-2.4821,-2.4821,-2.4821,-2.4821,-2.4821,-2.4821,-2.4821,-2.4821,-2.4821,-2.4821,-2.4821,-2.4821,-2.4821,-2.4821,-2.4821,-2.4821,-2.4821,-2.4821,-2.4821,-2.4821,-2.4821,-2.4821,-2.4821,-2.4821,-2.4821,-2.4821,-2.4821,-2.4821,-2.4821,-2.4821,-2.4821,-2.4821,-2.4787,-2.4538,-2.405,-2.3622,-2.3246,-2.2877,-2.2714,-2.262,-2.2603,-2.2603,-2.2603,-2.2603,-2.2603,-2.2603,-2.262,-2.2757,-2.2953,-2.3132,-2.4188,-2.4969,-2.5098,-2.5863,-2.6074,-2.6315,-2.6941,-2.7699,-2.8143,-2.9187,-2.9795,-2.9382,-2.9897,-2.9886,-2.96,-2.9886,-2.936,-2.9176,-2.9463,-2.9566,-2.9703,-3.0125,-3.0216,-3.0216,-3.017,-3.0125,-3.0125,-3.0216,-3.0216,-3.0216,-3.0216,-3.0216,-3.0216,-3.0216,-3.0216,-3.0216,-3.0216,-3.0216,-3.0216,-3.0216,-3.0216,-3.0216,-3.0216,-3.0216,-3.0216,-3.0216,-3.0216,-3.0216,-3.0216,-3.0216,-3.0216,-3.0216,-3.0216,-3.0216,-3.0216,-3.0216,-3.0216,-3.0442,-3.0713,-2.4821,-2.4821,-2.4821,-2.4821,-2.4821,-2.4821,-2.4821,-2.4821,-2.4821,-2.4821,-2.4821,-2.4821,-2.4821,-2.4821,-2.4821,-2.4821,-2.4821,-2.4821,-2.4821,-2.4821,-2.4821,-2.4821,-2.4821,-2.4821,-2.4821,-2.4821,-2.4821,-2.4821,-2.4821,-2.4821,-2.4821,-2.4821,-2.4821,-2.4821,-2.4821,-2.4821,-2.4821,-2.4821,-2.4821,-2.4598,-2.415,-2.3836,-2.3468,-2.3109,-2.2783,-2.2603,-2.2603,-2.2603,-2.2603,-2.2603,-2.2603,-2.2603,-2.2611,-2.2637,-2.2654,-2.2748,-2.326,-2.3449,-2.3931,-2.4523,-2.4964,-2.534,-2.6061,-2.6904,-2.7426,-2.8702,-2.9268,-2.8341,-2.8806,-2.8806,-2.8713,-2.898,-2.8563,-2.8319,-2.847,-2.8667,-2.8863,-2.9084,-2.9646,-3.008,-3.0034,-2.9943,-2.9988,-3.017,-3.0216,-3.0216,-3.0216,-3.0216,-3.0216,-3.0216,-3.0216,-3.0216,-3.0216,-3.0216,-3.0216,-3.0216,-3.0216,-3.0216,-3.0216,-3.0216,-3.0216,-3.0216,-3.0216,-3.0216,-3.0216,-3.0216,-3.0216,-3.0216,-3.0216,-3.0216,-3.0216,-3.0216,-3.0261,-3.0487,-3.0758,-2.4821,-2.4821,-2.4821,-2.4821,-2.4821,-2.4821,-2.4821,-2.4821,-2.4821,-2.4821,-2.4821,-2.4821,-2.4821,-2.4821,-2.4821,-2.4821,-2.4821,-2.4821,-2.4821,-2.4821,-2.4821,-2.4821,-2.4821,-2.4821,-2.4821,-2.4821,-2.4821,-2.4821,-2.4821,-2.4821,-2.4821,-2.4821,-2.4821,-2.4821,-2.4821,-2.4821,-2.4821,-2.4821,-2.4821,-2.4658,-2.4273,-2.3888,-2.3502,-2.3151,-2.2843,-2.2603,-2.2603,-2.2603,-2.2603,-2.2603,-2.2603,-2.2603,-2.2603,-2.2603,-2.2603,-2.2637,-2.2663,-2.2841,-2.312,-2.3472,-2.3633,-2.4013,-2.4952,-2.6205,-2.6628,-2.7094,-2.7379,-2.7437,-2.7757,-2.7615,-2.7426,-2.7379,-2.7568,-2.7189,-2.7332,-2.7814,-2.7908,-2.7804,-2.8459,-2.9509,-2.9703,-2.9279,-2.9233,-2.9268,-2.9977,-3.008,-3.0216,-3.0216,-3.0216,-3.0216,-3.0216,-3.0216,-3.0216,-3.0216,-3.0216,-3.0216,-3.0216,-3.0216,-3.0216,-3.0216,-3.0216,-3.0216,-3.0216,-3.0216,-3.0216,-3.0216,-3.0216,-3.0216,-3.0216,-3.0216,-3.0216,-3.0216,-3.0352,-3.0532,-3.0847,-2.4821,-2.4821,-2.4821,-2.4821,-2.4821,-2.4821,-2.4821,-2.4821,-2.4821,-2.4821,-2.4821,-2.4821,-2.4821,-2.4821,-2.4821,-2.4821,-2.4821,-2.4821,-2.4821,-2.4821,-2.4821,-2.4821,-2.4821,-2.4821,-2.4821,-2.4821,-2.4821,-2.4821,-2.4821,-2.4821,-2.4821,-2.4821,-2.4821,-2.4821,-2.4821,-2.4821,-2.4821,-2.4821,-2.4821,-2.4718,-2.4538,-2.3973,-2.3597,-2.3477,-2.286,-2.2637,-2.2603,-2.2603,-2.2603,-2.2603,-2.2603,-2.2603,-2.2603,-2.2603,-2.2603,-2.2603,-2.2603,-2.2603,-2.2653,-2.2993,-2.3278,-2.3877,-2.4864,-2.5635,-2.5722,-2.6388,-2.6628,-2.6723,-2.6771,-2.6809,-2.635,-2.6723,-2.6999,-2.6196,-2.6147,-2.6771,-2.6962,-2.6856,-2.7332,-2.847,-2.833,-2.7945,-2.8038,-2.8179,-2.913,-2.9886,-3.008,-3.0216,-3.0216,-3.0216,-3.0216,-3.0216,-3.0216,-3.0216,-3.0216,-3.0216,-3.0216,-3.0216,-3.0216,-3.0216,-3.0216,-3.0216,-3.0216,-3.0216,-3.0216,-3.0216,-3.0216,-3.0216,-3.0216,-3.0216,-3.0261,-3.0261,-3.0454,-3.0634,-3.0859,-2.4984,-2.4975,-2.4864,-2.4821,-2.4821,-2.4821,-2.4821,-2.4821,-2.4821,-2.4821,-2.4821,-2.4821,-2.4821,-2.4821,-2.4821,-2.4821,-2.4821,-2.4821,-2.4821,-2.4821,-2.4821,-2.4821,-2.4821,-2.4821,-2.4821,-2.4821,-2.4821,-2.4821,-2.4821,-2.4821,-2.4821,-2.4821,-2.4821,-2.4821,-2.4821,-2.4821,-2.4821,-2.4821,-2.4821,-2.4821,-2.471,-2.4093,-2.3682,-2.3562,-2.2989,-2.2637,-2.2603,-2.2603,-2.2603,-2.2603,-2.2603,-2.2603,-2.2603,-2.2603,-2.2603,-2.2603,-2.2603,-2.2603,-2.2644,-2.2846,-2.3206,-2.3696,-2.4282,-2.448,-2.4667,-2.5382,-2.5479,-2.545,-2.5868,-2.6051,-2.5314,-2.5684,-2.5722,-2.5011,-2.5294,-2.5771,-2.5974,-2.6022,-2.6628,-2.7332,-2.7047,-2.6914,-2.7237,-2.7474,-2.7955,-2.8806,-2.9141,-2.9566,-3.0216,-3.0216,-3.0216,-3.0216,-3.0216,-3.0216,-3.0216,-3.0216,-3.0216,-3.0216,-3.0216,-3.0216,-3.0216,-3.0216,-3.0216,-3.0216,-3.0216,-3.0216,-3.0216,-3.0216,-3.0216,-3.0216,-3.0261,-3.0261,-3.0487,-3.0623,-3.0769,-2.536,-2.5318,-2.4984,-2.4847,-2.4864,-2.4821,-2.4821,-2.4821,-2.4821,-2.4821,-2.4821,-2.4821,-2.4821,-2.4821,-2.4821,-2.4821,-2.4821,-2.4821,-2.4821,-2.4821,-2.4821,-2.4821,-2.4821,-2.4821,-2.4821,-2.4821,-2.4821,-2.4821,-2.4821,-2.4821,-2.4821,-2.4821,-2.4821,-2.4821,-2.4821,-2.4821,-2.4821,-2.4821,-2.4821,-2.4821,-2.4667,-2.4085,-2.3751,-2.3528,-2.2997,-2.2611,-2.2603,-2.2603,-2.2603,-2.2603,-2.2603,-2.2603,-2.2603,-2.2603,-2.2603,-2.2603,-2.2603,-2.2603,-2.2653,-2.2846,-2.3097,-2.3347,-2.3836,-2.3786,-2.3795,-2.4035,-2.4332,-2.444,-2.4587,-2.4529,-2.4291,-2.435,-2.435,-2.444,-2.4726,-2.4873,-2.5118,-2.5167,-2.5771,-2.6099,-2.6013,-2.6022,-2.6446,-2.6819,-2.701,-2.7484,-2.806,-2.8806,-2.9795,-2.9988,-2.9886,-3.0216,-3.0216,-3.0216,-3.0216,-3.0216,-3.0216,-3.0216,-3.0216,-3.0216,-3.0216,-3.0216,-3.0216,-3.0216,-3.0216,-3.0216,-3.0216,-3.0216,-3.0216,-3.0216,-3.0216,-3.0261,-3.0487,-3.0578,-3.0634,-2.5746,-2.5711,-2.5343,-2.5181,-2.5146,-2.4915,-2.4821,-2.4821,-2.4821,-2.4821,-2.4821,-2.4821,-2.4821,-2.4821,-2.4821,-2.4821,-2.4821,-2.4821,-2.4821,-2.4821,-2.4821,-2.4821,-2.4821,-2.4821,-2.4821,-2.4821,-2.4821,-2.4821,-2.4821,-2.4821,-2.4821,-2.4821,-2.4821,-2.4821,-2.4821,-2.4821,-2.4821,-2.4821,-2.4821,-2.4804,-2.4727,-2.4119,-2.3735,-2.3701,-2.2997,-2.262,-2.2603,-2.2603,-2.2603,-2.2603,-2.2603,-2.2603,-2.2603,-2.2603,-2.2603,-2.2603,-2.2603,-2.2603,-2.2603,-2.2703,-2.2854,-2.3097,-2.3247,-2.3397,-2.3497,-2.3546,-2.3605,-2.3705,-2.3854,-2.3895,-2.3945,-2.4143,-2.4192,-2.4251,-2.4399,-2.4449,-2.4548,-2.4489,-2.4677,-2.4775,-2.4784,-2.4883,-2.5206,-2.5586,-2.5877,-2.6061,-2.6532,-2.8236,-2.9463,-2.9371,-2.9279,-2.9932,-3.0216,-3.0216,-3.0216,-3.0216,-3.0216,-3.0216,-3.0216,-3.0216,-3.0216,-3.0216,-3.0216,-3.0216,-3.0216,-3.0216,-3.0216,-3.0216,-3.0216,-3.0216,-3.0216,-3.0216,-3.0306,-3.0352,-3.0352,-2.5953,-2.6071,-2.5574,-2.5369,-2.5309,-2.4975,-2.4821,-2.4821,-2.4821,-2.4821,-2.4821,-2.4821,-2.4821,-2.4821,-2.4821,-2.4821,-2.4821,-2.4821,-2.4821,-2.4821,-2.4821,-2.4821,-2.4821,-2.4821,-2.4821,-2.4821,-2.4821,-2.4821,-2.4821,-2.4821,-2.4821,-2.4821,-2.4821,-2.4821,-2.4821,-2.4821,-2.4821,-2.4821,-2.4821,-2.4821,-2.4598,-2.4162,-2.3727,-2.3512,-2.3083,-2.2603,-2.2603,-2.2603,-2.2603,-2.2603,-2.2603,-2.2603,-2.2603,-2.2603,-2.2603,-2.2603,-2.2603,-2.2603,-2.2603,-2.2603,-2.2754,-2.2854,-2.3055,-2.3147,-2.3197,-2.3247,-2.3347,-2.3447,-2.3555,-2.3705,-2.3795,-2.3994,-2.4102,-2.4102,-2.4211,-2.426,-2.426,-2.4202,-2.4202,-2.426,-2.426,-2.4211,-2.4211,-2.4301,-2.4637,-2.4824,-2.5011,-2.6952,-2.8749,-2.8713,-2.8713,-2.9463,-2.9977,-3.0023,-3.008,-3.0216,-3.0216,-3.0216,-3.017,-3.008,-3.0216,-3.0216,-3.0216,-3.0216,-3.0216,-3.0216,-3.0216,-3.0216,-3.0216,-3.0216,-3.0216,-3.0216,-3.0216,-3.0216,-3.0216,-2.614,-2.6336,-2.5677,-2.5369,-2.5309,-2.4975,-2.4821,-2.4821,-2.4821,-2.4821,-2.4821,-2.4821,-2.4821,-2.4821,-2.4821,-2.4821,-2.4821,-2.4821,-2.4821,-2.4821,-2.4821,-2.4821,-2.4821,-2.4821,-2.4821,-2.4821,-2.4821,-2.4821,-2.4821,-2.4821,-2.4821,-2.4821,-2.4821,-2.4821,-2.4821,-2.4821,-2.4821,-2.4821,-2.4821,-2.4778,-2.4547,-2.405,-2.3727,-2.3426,-2.2989,-2.2663,-2.2603,-2.2603,-2.2603,-2.2603,-2.2603,-2.2603,-2.2603,-2.2603,-2.2603,-2.2603,-2.2603,-2.2603,-2.2603,-2.2603,-2.2603,-2.2703,-2.2703,-2.2795,-2.2896,-2.2996,-2.3046,-2.3197,-2.3347,-2.3546,-2.3746,-2.3845,-2.3954,-2.4053,-2.4211,-2.4211,-2.4211,-2.4202,-2.4202,-2.4211,-2.4211,-2.4211,-2.4211,-2.4211,-2.4211,-2.4301,-2.4637,-2.5246,-2.6904,-2.7872,-2.8107,-2.9037,-2.9509,-2.9738,-2.9795,-2.9658,-2.9795,-2.9658,-2.9806,-2.9806,-2.9988,-3.008,-3.0034,-2.9988,-3.017,-3.0216,-3.0216,-3.0216,-3.0216,-3.0216,-3.0216,-3.0216,-3.0216,-3.0216,-3.0216,-2.5944,-2.6037,-2.5574,-2.5369,-2.5318,-2.4975,-2.4821,-2.4821,-2.4821,-2.4821,-2.4821,-2.4821,-2.4821,-2.4821,-2.4821,-2.4821,-2.4821,-2.4821,-2.4821,-2.4821,-2.4821,-2.4821,-2.4821,-2.4821,-2.4821,-2.4821,-2.4821,-2.4821,-2.4821,-2.4821,-2.4821,-2.4821,-2.4821,-2.4821,-2.4821,-2.4821,-2.4812,-2.4787,-2.477,-2.4641,-2.4384,-2.3896,-2.358,-2.3203,-2.2886,-2.2637,-2.2603,-2.2603,-2.2603,-2.2603,-2.2603,-2.2603,-2.2603,-2.2603,-2.2603,-2.2603,-2.2603,-2.2603,-2.2603,-2.2603,-2.2603,-2.2603,-2.2603,-2.2594,-2.2695,-2.2745,-2.2795,-2.2946,-2.3097,-2.3247,-2.3447,-2.3596,-2.3795,-2.4003,-2.4102,-2.4161,-2.4161,-2.4211,-2.4211,-2.4211,-2.4211,-2.4211,-2.4211,-2.4211,-2.4211,-2.4211,-2.435,-2.4726,-2.5294,-2.6398,-2.7389,-2.833,-2.8598,-2.8749,-2.8667,-2.8527,-2.8863,-2.9106,-2.9152,-2.9325,-2.9555,-2.9646,-2.9658,-2.9703,-2.9749,-2.9977,-3.0216,-3.0216,-3.0216,-3.0216,-3.0216,-3.0216,-3.0216,-3.0216,-3.0216,-2.5797,-2.5816,-2.5532,-2.5292,-2.5121,-2.4915,-2.4821,-2.4821,-2.4821,-2.4821,-2.4821,-2.4821,-2.4821,-2.4821,-2.4821,-2.4821,-2.4821,-2.4821,-2.4821,-2.4821,-2.4821,-2.4821,-2.4821,-2.4821,-2.4821,-2.4821,-2.4821,-2.4821,-2.4821,-2.4821,-2.4821,-2.4821,-2.4821,-2.4821,-2.4821,-2.4812,-2.471,-2.4569,-2.4475,-2.4427,-2.4127,-2.3725,-2.3348,-2.3083,-2.2732,-2.2637,-2.2603,-2.2603,-2.2603,-2.2603,-2.2603,-2.2603,-2.2603,-2.2603,-2.2603,-2.2603,-2.2603,-2.2603,-2.2603,-2.2603,-2.2603,-2.2603,-2.2603,-2.2594,-2.2594,-2.2653,-2.2653,-2.2703,-2.2795,-2.2937,-2.3138,-2.3397,-2.3696,-2.4003,-2.4053,-2.4053,-2.4161,-2.4211,-2.4211,-2.4211,-2.4211,-2.4211,-2.4211,-2.4211,-2.4211,-2.4211,-2.4211,-2.435,-2.4824,-2.5548,-2.659,-2.7568,-2.7558,-2.751,-2.7474,-2.7531,-2.7872,-2.8107,-2.8143,-2.8376,-2.8841,-2.8841,-2.8563,-2.8795,-2.9222,-2.9463,-2.9795,-3.0125,-3.0216,-3.0216,-3.0216,-3.0216,-3.0216,-3.0216,-3.0216,-2.5497,-2.5739,-2.5472,-2.5129,-2.4855,-2.4821,-2.4821,-2.4821,-2.4821,-2.4821,-2.4821,-2.4821,-2.4821,-2.4821,-2.4821,-2.4821,-2.4821,-2.4821,-2.4821,-2.4821,-2.4821,-2.4821,-2.4821,-2.4821,-2.4821,-2.4821,-2.4821,-2.4821,-2.4821,-2.4821,-2.4821,-2.4821,-2.4821,-2.4821,-2.4821,-2.471,-2.4509,-2.4367,-2.417,-2.3999,-2.3888,-2.3511,-2.3091,-2.2989,-2.2808,-2.2603,-2.2603,-2.2603,-2.2603,-2.2603,-2.2603,-2.2603,-2.2603,-2.2603,-2.2603,-2.2603,-2.2603,-2.2603,-2.2603,-2.2603,-2.2603,-2.2603,-2.2603,-2.2603,-2.2603,-2.2603,-2.2603,-2.2603,-2.2695,-2.2846,-2.3046,-2.3197,-2.3397,-2.3696,-2.3854,-2.3954,-2.4003,-2.4102,-2.4211,-2.4211,-2.4211,-2.4211,-2.4211,-2.4211,-2.4211,-2.4211,-2.4211,-2.4211,-2.4449,-2.4981,-2.5635,-2.657,-2.633,-2.6282,-2.6484,-2.658,-2.6914,-2.7105,-2.7105,-2.7426,-2.7898,-2.7709,-2.7321,-2.8085,-2.8945,-2.9002,-2.929,-2.9795,-3.0216,-3.0216,-3.0216,-3.0216,-3.0216,-3.0216,-3.0216,-2.4671,-2.5086,-2.4992,-2.4898,-2.4821,-2.4821,-2.4821,-2.4821,-2.4821,-2.4765,-2.4821,-2.4765,-2.4821,-2.4821,-2.471,-2.471,-2.4821,-2.4821,-2.4821,-2.4821,-2.4821,-2.4821,-2.4821,-2.4821,-2.4821,-2.4821,-2.4821,-2.4821,-2.4821,-2.4821,-2.4821,-2.4821,-2.4821,-2.4812,-2.4744,-2.4526,-2.427,-2.4022,-2.3734,-2.3502,-2.3357,-2.3271,-2.3014,-2.28,-2.2603,-2.2603,-2.2603,-2.2603,-2.2603,-2.2603,-2.2603,-2.2603,-2.2603,-2.2603,-2.2603,-2.2603,-2.2603,-2.2603,-2.2603,-2.2603,-2.2603,-2.2603,-2.2603,-2.2603,-2.2603,-2.2603,-2.2603,-2.2603,-2.2653,-2.2795,-2.2896,-2.2996,-2.3097,-2.3397,-2.3646,-2.3746,-2.3904,-2.4003,-2.4152,-2.4161,-2.4211,-2.4211,-2.4211,-2.4211,-2.4211,-2.4211,-2.4211,-2.4211,-2.4211,-2.4548,-2.4597,-2.5206,-2.4962,-2.4922,-2.5294,-2.5635,-2.5964,-2.6061,-2.6071,-2.6484,-2.6952,-2.6761,-2.6617,-2.7861,-2.8713,-2.8667,-2.9002,-2.9897,-3.017,-3.0216,-3.0216,-3.0216,-3.0216,-3.0216,-3.0216,-2.411,-2.4324,-2.4496,-2.4501,-2.459,-2.4735,-2.4821,-2.4765,-2.4543,-2.4368,-2.4423,-2.4432,-2.4543,-2.4654,-2.4535,-2.4654,-2.4765,-2.4821,-2.4821,-2.4821,-2.4821,-2.4821,-2.4821,-2.4821,-2.4821,-2.4821,-2.4821,-2.4821,-2.4821,-2.4821,-2.4821,-2.4821,-2.4812,-2.4718,-2.459,-2.4307,-2.4025,-2.3663,-2.328,-2.3057,-2.292,-2.2894,-2.2792,-2.2628,-2.2603,-2.2603,-2.2603,-2.2603,-2.2603,-2.2603,-2.2603,-2.2603,-2.2603,-2.2603,-2.2603,-2.2603,-2.2603,-2.2603,-2.2603,-2.2603,-2.2603,-2.2603,-2.2603,-2.2603,-2.2603,-2.2603,-2.2603,-2.2603,-2.2603,-2.2703,-2.2745,-2.2795,-2.2946,-2.3197,-2.3297,-2.3397,-2.3596,-2.3795,-2.3904,-2.3954,-2.4053,-2.4211,-2.4211,-2.4211,-2.4211,-2.4211,-2.4211,-2.4211,-2.4211,-2.4211,-2.4211,-2.4211,-2.4211,-2.4211,-2.4587,-2.4824,-2.4962,-2.502,-2.5167,-2.5255,-2.5586,-2.5722,-2.6061,-2.6867,-2.7626,-2.8096,-2.8574,-2.9612,-3.0125,-3.0216,-3.0216,-3.0216,-3.0216,-3.0216,-3.0216,-2.3631,-2.3717,-2.4025,-2.417,-2.415,-2.4513,-2.4641,-2.4539,-2.4147,-2.395,-2.4014,-2.3944,-2.4256,-2.4312,-2.432,-2.4543,-2.4663,-2.4765,-2.4821,-2.4821,-2.4821,-2.4821,-2.4821,-2.4821,-2.4821,-2.4821,-2.4821,-2.4821,-2.4821,-2.4821,-2.4821,-2.4812,-2.4646,-2.4518,-2.4253,-2.4033,-2.3768,-2.3365,-2.3023,-2.2843,-2.274,-2.2603,-2.2611,-2.2611,-2.2603,-2.2603,-2.2603,-2.2603,-2.2603,-2.2603,-2.2603,-2.2603,-2.2603,-2.2603,-2.2603,-2.2603,-2.2603,-2.2603,-2.2603,-2.2603,-2.2603,-2.2603,-2.2603,-2.2603,-2.2603,-2.2603,-2.2603,-2.2603,-2.2603,-2.2603,-2.2594,-2.2644,-2.2795,-2.2946,-2.2996,-2.3147,-2.3397,-2.3596,-2.3696,-2.3755,-2.3904,-2.4053,-2.4152,-2.4152,-2.4152,-2.4152,-2.4211,-2.4211,-2.4211,-2.4211,-2.4211,-2.4211,-2.4211,-2.4211,-2.4211,-2.4301,-2.4489,-2.4489,-2.4587,-2.435,-2.4301,-2.4775,-2.5109,-2.5304,-2.6013,-2.7342,-2.833,-2.9325,-2.9749,-3.0216,-3.0216,-3.0216,-3.0216,-3.0216,-3.0216,-2.34,-2.3727,-2.3776,-2.3802,-2.3766,-2.3879,-2.3879,-2.3939,-2.4059,-2.4124,-2.4036,-2.3964,-2.3977,-2.408,-2.4535,-2.4765,-2.4765,-2.4821,-2.4821,-2.4821,-2.4821,-2.4821,-2.4821,-2.4821,-2.4821,-2.4821,-2.4821,-2.4821,-2.4821,-2.4821,-2.4821,-2.4821,-2.4453,-2.4299,-2.4162,-2.3811,-2.3323,-2.3006,-2.2877,-2.2688,-2.268,-2.2603,-2.2603,-2.2603,-2.2603,-2.2603,-2.2603,-2.2603,-2.2603,-2.2603,-2.2603,-2.2603,-2.2603,-2.2603,-2.2603,-2.2603,-2.2603,-2.2603,-2.2603,-2.2603,-2.2603,-2.2603,-2.2603,-2.2603,-2.2603,-2.2603,-2.2603,-2.2603,-2.2603,-2.2603,-2.2594,-2.2594,-2.2703,-2.2804,-2.2854,-2.3046,-2.3297,-2.3397,-2.3447,-2.3497,-2.3546,-2.3755,-2.3904,-2.3954,-2.4044,-2.4102,-2.4211,-2.4211,-2.4211,-2.4211,-2.4211,-2.4211,-2.4211,-2.4211,-2.4211,-2.4211,-2.4301,-2.4251,-2.4211,-2.4211,-2.4211,-2.4211,-2.4449,-2.4784,-2.5964,-2.7379,-2.833,-2.9084,-2.9795,-3.0216,-3.0216,-3.0216,-3.0216,-3.0216,-3.0216]}]]